<?xml version='1.0' encoding='UTF-8'?><gpx version="1.1" creator="JPX - https://github.com/jenetics/jpx" xmlns="http://www.topografix.com/GPX/1/1"><trk><trkseg><trkpt lat="39.242850499156916" lon="9.569916590984409"><ele>11.999999999999998</ele><time>2026-04-05T14:57:29Z</time></trkpt><trkpt lat="39.24285411383685" lon="9.569830197788445"><ele>12.0</ele><time>2026-04-05T14:58:00Z</time></trkpt><trkpt lat="39.24285962725403" lon="9.569731483555797"><ele>12.0</ele><time>2026-04-05T14:58:02Z</time></trkpt><trkpt lat="39.242789370103026" lon="9.569687770726002"><ele>12.0</ele><time>2026-04-05T14:58:05Z</time></trkpt><trkpt lat="39.242717851255115" lon="9.569703970924403"><ele>12.0</ele><time>2026-04-05T14:58:07Z</time></trkpt><trkpt lat="39.242652427895614" lon="9.569711452642583"><ele>11.999999999999998</ele><time>2026-04-05T14:58:09Z</time></trkpt><trkpt lat="39.24258696299666" lon="9.569704930420976"><ele>12.0</ele><time>2026-04-05T14:58:11Z</time></trkpt><trkpt lat="39.24252036705064" lon="9.569680904210442"><ele>11.999999999999998</ele><time>2026-04-05T14:58:13Z</time></trkpt><trkpt lat="39.2424478018572" lon="9.569675133863786"><ele>12.0</ele><time>2026-04-05T14:58:15Z</time></trkpt><trkpt lat="39.24237173799407" lon="9.56966046267209"><ele>12.0</ele><time>2026-04-05T14:58:17Z</time></trkpt><trkpt lat="39.24229807292433" lon="9.569650030520053"><ele>12.0</ele><time>2026-04-05T14:58:19Z</time></trkpt><trkpt lat="39.24222717667247" lon="9.569672599826555"><ele>12.0</ele><time>2026-04-05T14:58:21Z</time></trkpt><trkpt lat="39.242171595483356" lon="9.569628697880674"><ele>11.999999999999998</ele><time>2026-04-05T14:58:23Z</time></trkpt><trkpt lat="39.24220549561885" lon="9.569526719189085"><ele>12.0</ele><time>2026-04-05T14:58:26Z</time></trkpt><trkpt lat="39.242300883763505" lon="9.569558630417996"><ele>12.0</ele><time>2026-04-05T14:58:29Z</time></trkpt><trkpt lat="39.242390185501996" lon="9.569552555635841"><ele>12.0</ele><time>2026-04-05T14:58:31Z</time></trkpt><trkpt lat="39.24248096901411" lon="9.56951757618489"><ele>12.0</ele><time>2026-04-05T14:58:33Z</time></trkpt><trkpt lat="39.2425614145722" lon="9.569467046976426"><ele>12.0</ele><time>2026-04-05T14:58:35Z</time></trkpt><trkpt lat="39.24263769503661" lon="9.569419201045585"><ele>12.0</ele><time>2026-04-05T14:58:37Z</time></trkpt><trkpt lat="39.242714138745555" lon="9.569378631872326"><ele>12.0</ele><time>2026-04-05T14:58:39Z</time></trkpt><trkpt lat="39.24278266619235" lon="9.569331539930571"><ele>12.2</ele><time>2026-04-05T14:58:41Z</time></trkpt><trkpt lat="39.24285464493325" lon="9.569307456328156"><ele>12.399999999999999</ele><time>2026-04-05T14:58:43Z</time></trkpt><trkpt lat="39.24293895899522" lon="9.569346092380524"><ele>12.600000000000001</ele><time>2026-04-05T14:59:41Z</time></trkpt><trkpt lat="39.243036476596174" lon="9.569366848833196"><ele>12.8</ele><time>2026-04-05T14:59:43Z</time></trkpt><trkpt lat="39.243161922428946" lon="9.569418020698096"><ele>13.0</ele><time>2026-04-05T14:59:45Z</time></trkpt><trkpt lat="39.243227776671816" lon="9.56944240839825"><ele>13.8</ele><time>2026-04-05T14:59:46Z</time></trkpt><trkpt lat="39.24329943316429" lon="9.569467295223959"><ele>14.600000000000001</ele><time>2026-04-05T14:59:47Z</time></trkpt><trkpt lat="39.24339365536052" lon="9.569470133573994"><ele>15.399999999999999</ele><time>2026-04-05T14:59:48Z</time></trkpt><trkpt lat="39.24348565211097" lon="9.569512466236555"><ele>16.2</ele><time>2026-04-05T14:59:49Z</time></trkpt><trkpt lat="39.24358702253297" lon="9.569525735705856"><ele>17.0</ele><time>2026-04-05T14:59:50Z</time></trkpt><trkpt lat="39.24368457152201" lon="9.569550952277343"><ele>15.500000000000002</ele><time>2026-04-05T14:59:51Z</time></trkpt><trkpt lat="39.24377812057278" lon="9.569573982553544"><ele>14.0</ele><time>2026-04-05T14:59:52Z</time></trkpt><trkpt lat="39.243864770250575" lon="9.569601477292423"><ele>12.5</ele><time>2026-04-05T14:59:53Z</time></trkpt><trkpt lat="39.2439420327004" lon="9.56962353996677"><ele>11.0</ele><time>2026-04-05T14:59:54Z</time></trkpt><trkpt lat="39.24402080476593" lon="9.569649447630574"><ele>9.5</ele><time>2026-04-05T14:59:55Z</time></trkpt><trkpt lat="39.24409797334597" lon="9.569683559549556"><ele>8.0</ele><time>2026-04-05T14:59:56Z</time></trkpt><trkpt lat="39.24417539825328" lon="9.569699754194563"><ele>8.0</ele><time>2026-04-05T14:59:57Z</time></trkpt><trkpt lat="39.24423732266634" lon="9.569741667685664"><ele>8.0</ele><time>2026-04-05T14:59:58Z</time></trkpt><trkpt lat="39.244354180664125" lon="9.569763087712946"><ele>8.0</ele><time>2026-04-05T15:00:00Z</time></trkpt><trkpt lat="39.24445230289701" lon="9.569821980026521"><ele>8.0</ele><time>2026-04-05T15:00:02Z</time></trkpt><trkpt lat="39.24451351312316" lon="9.56984545161254"><ele>8.0</ele><time>2026-04-05T15:00:04Z</time></trkpt><trkpt lat="39.244568559218465" lon="9.569696643856588"><ele>8.0</ele><time>2026-04-05T15:00:07Z</time></trkpt><trkpt lat="39.24456904111543" lon="9.56959294598953"><ele>8.0</ele><time>2026-04-05T15:00:08Z</time></trkpt><trkpt lat="39.24457598440955" lon="9.569476475788841"><ele>8.0</ele><time>2026-04-05T15:00:09Z</time></trkpt><trkpt lat="39.24460326946019" lon="9.569358710914308"><ele>8.0</ele><time>2026-04-05T15:00:10Z</time></trkpt><trkpt lat="39.24462492447647" lon="9.56923681358574"><ele>8.0</ele><time>2026-04-05T15:00:11Z</time></trkpt><trkpt lat="39.24464755222926" lon="9.569097914611907"><ele>9.0</ele><time>2026-04-05T15:00:12Z</time></trkpt><trkpt lat="39.24467036678943" lon="9.56894918273714"><ele>10.0</ele><time>2026-04-05T15:00:13Z</time></trkpt><trkpt lat="39.244694683042525" lon="9.568802773700686"><ele>11.0</ele><time>2026-04-05T15:00:14Z</time></trkpt><trkpt lat="39.24472125129552" lon="9.568669261467921"><ele>12.0</ele><time>2026-04-05T15:00:15Z</time></trkpt><trkpt lat="39.24473964389225" lon="9.568551943092157"><ele>13.0</ele><time>2026-04-05T15:00:16Z</time></trkpt><trkpt lat="39.244765204257526" lon="9.568443867226302"><ele>13.600000000000001</ele><time>2026-04-05T15:00:17Z</time></trkpt><trkpt lat="39.2447991823652" lon="9.568353701959621"><ele>14.200000000000001</ele><time>2026-04-05T15:00:18Z</time></trkpt><trkpt lat="39.24483676536137" lon="9.568240797066363"><ele>14.8</ele><time>2026-04-05T15:00:20Z</time></trkpt><trkpt lat="39.24498219856069" lon="9.56827315801924"><ele>15.4</ele><time>2026-04-05T15:00:21Z</time></trkpt><trkpt lat="39.24505934922359" lon="9.568330493484547"><ele>16.0</ele><time>2026-04-05T15:00:22Z</time></trkpt><trkpt lat="39.24515481171604" lon="9.568376185263679"><ele>16.0</ele><time>2026-04-05T15:00:23Z</time></trkpt><trkpt lat="39.24528151614086" lon="9.568424556003782"><ele>16.0</ele><time>2026-04-05T15:00:24Z</time></trkpt><trkpt lat="39.245419994592574" lon="9.568499484544986"><ele>16.0</ele><time>2026-04-05T15:00:25Z</time></trkpt><trkpt lat="39.24555296981207" lon="9.56857764629885"><ele>16.0</ele><time>2026-04-05T15:00:26Z</time></trkpt><trkpt lat="39.24569028048629" lon="9.568660493462945"><ele>14.666666666666666</ele><time>2026-04-05T15:00:27Z</time></trkpt><trkpt lat="39.245831781980286" lon="9.568747038502512"><ele>13.333333333333332</ele><time>2026-04-05T15:00:28Z</time></trkpt><trkpt lat="39.24597466158126" lon="9.56882814006915"><ele>12.0</ele><time>2026-04-05T15:00:29Z</time></trkpt><trkpt lat="39.246116164245635" lon="9.568895994271884"><ele>12.0</ele><time>2026-04-05T15:00:30Z</time></trkpt><trkpt lat="39.24625181951487" lon="9.56896821580294"><ele>12.0</ele><time>2026-04-05T15:00:31Z</time></trkpt><trkpt lat="39.24639076014557" lon="9.56901591604486"><ele>12.0</ele><time>2026-04-05T15:00:32Z</time></trkpt><trkpt lat="39.24653361459618" lon="9.569063085495786"><ele>12.0</ele><time>2026-04-05T15:00:33Z</time></trkpt><trkpt lat="39.24667883191239" lon="9.569093188478767"><ele>13.0</ele><time>2026-04-05T15:00:34Z</time></trkpt><trkpt lat="39.24682804787337" lon="9.569136271981696"><ele>14.0</ele><time>2026-04-05T15:00:35Z</time></trkpt><trkpt lat="39.246974379683" lon="9.56917937205924"><ele>15.0</ele><time>2026-04-05T15:00:36Z</time></trkpt><trkpt lat="39.24711472087382" lon="9.569217710315957"><ele>16.0</ele><time>2026-04-05T15:00:37Z</time></trkpt><trkpt lat="39.24724824335789" lon="9.56925825942499"><ele>16.25</ele><time>2026-04-05T15:00:38Z</time></trkpt><trkpt lat="39.247381368023945" lon="9.56929015278472"><ele>16.5</ele><time>2026-04-05T15:00:39Z</time></trkpt><trkpt lat="39.24751269578372" lon="9.569341727507288"><ele>16.75</ele><time>2026-04-05T15:00:40Z</time></trkpt><trkpt lat="39.247646118132955" lon="9.569360597692103"><ele>17.0</ele><time>2026-04-05T15:00:41Z</time></trkpt><trkpt lat="39.24778009008407" lon="9.569376742101047"><ele>17.0</ele><time>2026-04-05T15:00:42Z</time></trkpt><trkpt lat="39.24790883614185" lon="9.569388006212744"><ele>17.0</ele><time>2026-04-05T15:00:43Z</time></trkpt><trkpt lat="39.24802780759471" lon="9.56943711841474"><ele>17.0</ele><time>2026-04-05T15:00:44Z</time></trkpt><trkpt lat="39.24813883406348" lon="9.569497690391396"><ele>17.0</ele><time>2026-04-05T15:00:45Z</time></trkpt><trkpt lat="39.24823785106438" lon="9.569562063726565"><ele>15.75</ele><time>2026-04-05T15:00:46Z</time></trkpt><trkpt lat="39.24833234210391" lon="9.569623374162953"><ele>14.5</ele><time>2026-04-05T15:00:47Z</time></trkpt><trkpt lat="39.24844801636737" lon="9.569644364537183"><ele>13.25</ele><time>2026-04-05T15:00:48Z</time></trkpt><trkpt lat="39.248579196496195" lon="9.569689855145215"><ele>12.0</ele><time>2026-04-05T15:00:49Z</time></trkpt><trkpt lat="39.24872108637493" lon="9.569724241639658"><ele>12.0</ele><time>2026-04-05T15:00:50Z</time></trkpt><trkpt lat="39.2488647519407" lon="9.56976820772678"><ele>12.0</ele><time>2026-04-05T15:00:51Z</time></trkpt><trkpt lat="39.24901201124375" lon="9.569814045172718"><ele>12.0</ele><time>2026-04-05T15:00:52Z</time></trkpt><trkpt lat="39.24915895212218" lon="9.569856838188828"><ele>12.5</ele><time>2026-04-05T15:00:53Z</time></trkpt><trkpt lat="39.249295079303835" lon="9.569902600646284"><ele>13.0</ele><time>2026-04-05T15:00:54Z</time></trkpt><trkpt lat="39.2494264126335" lon="9.569945744049301"><ele>13.5</ele><time>2026-04-05T15:00:55Z</time></trkpt><trkpt lat="39.249546565663294" lon="9.569986561644093"><ele>14.0</ele><time>2026-04-05T15:00:56Z</time></trkpt><trkpt lat="39.249654444140205" lon="9.57001803919391"><ele>14.0</ele><time>2026-04-05T15:00:57Z</time></trkpt><trkpt lat="39.24975487146086" lon="9.570051190108103"><ele>13.999999999999998</ele><time>2026-04-05T15:00:58Z</time></trkpt><trkpt lat="39.2498373936058" lon="9.570078824181234"><ele>13.999999999999998</ele><time>2026-04-05T15:00:59Z</time></trkpt><trkpt lat="39.249905133430644" lon="9.570099066879763"><ele>14.0</ele><time>2026-04-05T15:01:00Z</time></trkpt><trkpt lat="39.24999827914924" lon="9.570125821070926"><ele>14.0</ele><time>2026-04-05T15:01:02Z</time></trkpt><trkpt lat="39.25009344878677" lon="9.57015895480795"><ele>14.6</ele><time>2026-04-05T15:01:05Z</time></trkpt><trkpt lat="39.25016669182097" lon="9.570187322444461"><ele>15.2</ele><time>2026-04-05T15:01:06Z</time></trkpt><trkpt lat="39.2502657118401" lon="9.570218228646057"><ele>15.799999999999999</ele><time>2026-04-05T15:01:07Z</time></trkpt><trkpt lat="39.2503880570838" lon="9.570248168330906"><ele>16.4</ele><time>2026-04-05T15:01:08Z</time></trkpt><trkpt lat="39.25050893937555" lon="9.57028609224003"><ele>17.0</ele><time>2026-04-05T15:01:09Z</time></trkpt><trkpt lat="39.25063655824481" lon="9.570328654659727"><ele>16.5</ele><time>2026-04-05T15:01:10Z</time></trkpt><trkpt lat="39.2507682611397" lon="9.570369815957614"><ele>16.0</ele><time>2026-04-05T15:01:11Z</time></trkpt><trkpt lat="39.25090560381909" lon="9.570413004474254"><ele>15.5</ele><time>2026-04-05T15:01:12Z</time></trkpt><trkpt lat="39.25104866053995" lon="9.57045744715055"><ele>15.0</ele><time>2026-04-05T15:01:13Z</time></trkpt><trkpt lat="39.25119515753421" lon="9.570502350462784"><ele>15.0</ele><time>2026-04-05T15:01:14Z</time></trkpt><trkpt lat="39.25134404561661" lon="9.570546717920243"><ele>15.0</ele><time>2026-04-05T15:01:15Z</time></trkpt><trkpt lat="39.25149649348755" lon="9.57059191325254"><ele>15.0</ele><time>2026-04-05T15:01:16Z</time></trkpt><trkpt lat="39.25164747133331" lon="9.570639496724331"><ele>15.75</ele><time>2026-04-05T15:01:17Z</time></trkpt><trkpt lat="39.25179731547884" lon="9.570687239820469"><ele>16.5</ele><time>2026-04-05T15:01:18Z</time></trkpt><trkpt lat="39.251938257040884" lon="9.570734939611285"><ele>17.25</ele><time>2026-04-05T15:01:19Z</time></trkpt><trkpt lat="39.25207730152822" lon="9.57078029534895"><ele>18.0</ele><time>2026-04-05T15:01:20Z</time></trkpt><trkpt lat="39.252205300896755" lon="9.57081835789606"><ele>18.0</ele><time>2026-04-05T15:01:21Z</time></trkpt><trkpt lat="39.25231794875911" lon="9.570845129232373"><ele>18.0</ele><time>2026-04-05T15:01:22Z</time></trkpt><trkpt lat="39.25239930724717" lon="9.57087920056611"><ele>18.0</ele><time>2026-04-05T15:01:23Z</time></trkpt><trkpt lat="39.252492945192365" lon="9.57090799644436"><ele>18.0</ele><time>2026-04-05T15:01:25Z</time></trkpt><trkpt lat="39.252560879261914" lon="9.570929117597046"><ele>18.0</ele><time>2026-04-05T15:01:30Z</time></trkpt><trkpt lat="39.25262652650782" lon="9.570945699869982"><ele>18.0</ele><time>2026-04-05T15:01:32Z</time></trkpt><trkpt lat="39.252693485457826" lon="9.570962948691495"><ele>18.0</ele><time>2026-04-05T15:01:33Z</time></trkpt><trkpt lat="39.252784515143524" lon="9.570997630956242"><ele>18.0</ele><time>2026-04-05T15:01:34Z</time></trkpt><trkpt lat="39.25290013093353" lon="9.57103114117305"><ele>18.0</ele><time>2026-04-05T15:01:35Z</time></trkpt><trkpt lat="39.253017343360156" lon="9.571063283395299"><ele>18.0</ele><time>2026-04-05T15:01:36Z</time></trkpt><trkpt lat="39.25315238048675" lon="9.571103471422642"><ele>18.333333333333332</ele><time>2026-04-05T15:01:37Z</time></trkpt><trkpt lat="39.25329133650927" lon="9.57114467706557"><ele>18.666666666666664</ele><time>2026-04-05T15:01:38Z</time></trkpt><trkpt lat="39.253445324816944" lon="9.571192870929366"><ele>19.0</ele><time>2026-04-05T15:01:39Z</time></trkpt><trkpt lat="39.25360803031439" lon="9.571247620190134"><ele>19.666666666666664</ele><time>2026-04-05T15:01:40Z</time></trkpt><trkpt lat="39.2537853022555" lon="9.571304107715841"><ele>20.333333333333332</ele><time>2026-04-05T15:01:41Z</time></trkpt><trkpt lat="39.25396973181231" lon="9.571359109030956"><ele>21.0</ele><time>2026-04-05T15:01:42Z</time></trkpt><trkpt lat="39.254160687813815" lon="9.571417373481625"><ele>21.0</ele><time>2026-04-05T15:01:43Z</time></trkpt><trkpt lat="39.254345078176804" lon="9.571475702100873"><ele>21.0</ele><time>2026-04-05T15:01:44Z</time></trkpt><trkpt lat="39.25452605314532" lon="9.571535289564427"><ele>21.0</ele><time>2026-04-05T15:01:45Z</time></trkpt><trkpt lat="39.254700746681884" lon="9.571596143140948"><ele>22.0</ele><time>2026-04-05T15:01:46Z</time></trkpt><trkpt lat="39.25488677752123" lon="9.571653472970588"><ele>23.0</ele><time>2026-04-05T15:01:47Z</time></trkpt><trkpt lat="39.25508671070929" lon="9.571707668496703"><ele>24.0</ele><time>2026-04-05T15:01:48Z</time></trkpt><trkpt lat="39.25529035709974" lon="9.571767835464566"><ele>24.0</ele><time>2026-04-05T15:01:49Z</time></trkpt><trkpt lat="39.25548364813698" lon="9.5718308982115"><ele>24.0</ele><time>2026-04-05T15:01:50Z</time></trkpt><trkpt lat="39.25566793710627" lon="9.571888116377245"><ele>24.0</ele><time>2026-04-05T15:01:51Z</time></trkpt><trkpt lat="39.25583333455781" lon="9.571936932958199"><ele>25.0</ele><time>2026-04-05T15:01:52Z</time></trkpt><trkpt lat="39.25597734562994" lon="9.57198034672625"><ele>26.0</ele><time>2026-04-05T15:01:53Z</time></trkpt><trkpt lat="39.25609910880437" lon="9.572033866627745"><ele>27.0</ele><time>2026-04-05T15:01:54Z</time></trkpt><trkpt lat="39.25617630471698" lon="9.572128786365417"><ele>28.0</ele><time>2026-04-05T15:01:55Z</time></trkpt><trkpt lat="39.25621724862899" lon="9.572220712678364"><ele>29.25</ele><time>2026-04-05T15:01:56Z</time></trkpt><trkpt lat="39.25619651848073" lon="9.572340807024807"><ele>30.5</ele><time>2026-04-05T15:01:57Z</time></trkpt><trkpt lat="39.25614945279415" lon="9.572471426926498"><ele>31.75</ele><time>2026-04-05T15:01:58Z</time></trkpt><trkpt lat="39.256082272194256" lon="9.572607473363568"><ele>33.0</ele><time>2026-04-05T15:01:59Z</time></trkpt><trkpt lat="39.25600826356311" lon="9.572745808327179"><ele>33.25</ele><time>2026-04-05T15:02:00Z</time></trkpt><trkpt lat="39.25593922783048" lon="9.572869035462233"><ele>33.5</ele><time>2026-04-05T15:02:01Z</time></trkpt><trkpt lat="39.25585409174175" lon="9.572983383742095"><ele>33.75</ele><time>2026-04-05T15:02:02Z</time></trkpt><trkpt lat="39.25576625015534" lon="9.573084590618862"><ele>34.0</ele><time>2026-04-05T15:02:03Z</time></trkpt><trkpt lat="39.25570135096091" lon="9.573187094186581"><ele>34.0</ele><time>2026-04-05T15:02:04Z</time></trkpt><trkpt lat="39.25566858778034" lon="9.573297635428958"><ele>34.0</ele><time>2026-04-05T15:02:05Z</time></trkpt><trkpt lat="39.255680480069586" lon="9.573410912553511"><ele>34.0</ele><time>2026-04-05T15:02:06Z</time></trkpt><trkpt lat="39.25572001090557" lon="9.573519314799873"><ele>34.0</ele><time>2026-04-05T15:02:07Z</time></trkpt><trkpt lat="39.25579620997507" lon="9.57362842796094"><ele>34.0</ele><time>2026-04-05T15:02:08Z</time></trkpt><trkpt lat="39.25588812600355" lon="9.573739106473358"><ele>32.5</ele><time>2026-04-05T15:02:09Z</time></trkpt><trkpt lat="39.25598518928593" lon="9.573856441432595"><ele>31.0</ele><time>2026-04-05T15:02:10Z</time></trkpt><trkpt lat="39.25605852896222" lon="9.573984082294945"><ele>29.5</ele><time>2026-04-05T15:02:11Z</time></trkpt><trkpt lat="39.25606495716811" lon="9.574136570949724"><ele>28.0</ele><time>2026-04-05T15:02:12Z</time></trkpt><trkpt lat="39.25607647766372" lon="9.574292017261218"><ele>28.0</ele><time>2026-04-05T15:02:13Z</time></trkpt><trkpt lat="39.25605493994957" lon="9.574463410598096"><ele>28.0</ele><time>2026-04-05T15:02:14Z</time></trkpt><trkpt lat="39.256019042297616" lon="9.574642010958913"><ele>28.0</ele><time>2026-04-05T15:02:15Z</time></trkpt><trkpt lat="39.255987993579545" lon="9.574831235281335"><ele>28.0</ele><time>2026-04-05T15:02:16Z</time></trkpt><trkpt lat="39.2559585234241" lon="9.575003128255739"><ele>26.5</ele><time>2026-04-05T15:02:17Z</time></trkpt><trkpt lat="39.25594595065342" lon="9.57517322744073"><ele>25.0</ele><time>2026-04-05T15:02:18Z</time></trkpt><trkpt lat="39.25597185671916" lon="9.575318288502062"><ele>23.5</ele><time>2026-04-05T15:02:19Z</time></trkpt><trkpt lat="39.256029657433515" lon="9.575440038781661"><ele>22.0</ele><time>2026-04-05T15:02:20Z</time></trkpt><trkpt lat="39.25612019767057" lon="9.575520374964167"><ele>21.0</ele><time>2026-04-05T15:02:21Z</time></trkpt><trkpt lat="39.25623674229866" lon="9.575577495100452"><ele>20.0</ele><time>2026-04-05T15:02:22Z</time></trkpt><trkpt lat="39.25636753791394" lon="9.575619233974177"><ele>19.0</ele><time>2026-04-05T15:02:23Z</time></trkpt><trkpt lat="39.25651714266691" lon="9.575655689101417"><ele>18.0</ele><time>2026-04-05T15:02:24Z</time></trkpt><trkpt lat="39.256667997050535" lon="9.575696973194757"><ele>18.0</ele><time>2026-04-05T15:02:25Z</time></trkpt><trkpt lat="39.25682155257769" lon="9.575736272692229"><ele>18.0</ele><time>2026-04-05T15:02:26Z</time></trkpt><trkpt lat="39.256980741484966" lon="9.575769976048107"><ele>18.0</ele><time>2026-04-05T15:02:27Z</time></trkpt><trkpt lat="39.25713571884806" lon="9.57580824975303"><ele>18.0</ele><time>2026-04-05T15:02:28Z</time></trkpt><trkpt lat="39.257285722444244" lon="9.575852825557085"><ele>18.0</ele><time>2026-04-05T15:02:29Z</time></trkpt><trkpt lat="39.257427163871164" lon="9.57590519488064"><ele>18.0</ele><time>2026-04-05T15:02:30Z</time></trkpt><trkpt lat="39.25756272381893" lon="9.575957962296256"><ele>18.0</ele><time>2026-04-05T15:02:31Z</time></trkpt><trkpt lat="39.257697541601715" lon="9.5760124602337"><ele>18.0</ele><time>2026-04-05T15:02:32Z</time></trkpt><trkpt lat="39.25782540501003" lon="9.576075050452538"><ele>18.0</ele><time>2026-04-05T15:02:33Z</time></trkpt><trkpt lat="39.25795186827448" lon="9.576127310494568"><ele>18.0</ele><time>2026-04-05T15:02:34Z</time></trkpt><trkpt lat="39.25807845760661" lon="9.576174043563997"><ele>18.0</ele><time>2026-04-05T15:02:35Z</time></trkpt><trkpt lat="39.25821319343977" lon="9.576199262143477"><ele>15.75</ele><time>2026-04-05T15:02:36Z</time></trkpt><trkpt lat="39.25834041448526" lon="9.576225607695752"><ele>13.5</ele><time>2026-04-05T15:02:37Z</time></trkpt><trkpt lat="39.25846890597204" lon="9.576240680073209"><ele>11.25</ele><time>2026-04-05T15:02:38Z</time></trkpt><trkpt lat="39.258597098030734" lon="9.576237785616067"><ele>9.0</ele><time>2026-04-05T15:02:39Z</time></trkpt><trkpt lat="39.25872322552716" lon="9.576219751481988"><ele>9.0</ele><time>2026-04-05T15:02:40Z</time></trkpt><trkpt lat="39.258849626169884" lon="9.576232152889473"><ele>9.0</ele><time>2026-04-05T15:02:41Z</time></trkpt><trkpt lat="39.25898175626765" lon="9.576228227149373"><ele>9.0</ele><time>2026-04-05T15:02:42Z</time></trkpt><trkpt lat="39.25911959369957" lon="9.576224130183961"><ele>9.0</ele><time>2026-04-05T15:02:43Z</time></trkpt><trkpt lat="39.2592508361782" lon="9.576220002054603"><ele>8.5</ele><time>2026-04-05T15:02:44Z</time></trkpt><trkpt lat="39.25937612495987" lon="9.576198222466937"><ele>8.0</ele><time>2026-04-05T15:02:45Z</time></trkpt><trkpt lat="39.25948761977817" lon="9.576195190270727"><ele>7.5</ele><time>2026-04-05T15:02:46Z</time></trkpt><trkpt lat="39.25960832899084" lon="9.576209319528708"><ele>7.0</ele><time>2026-04-05T15:02:47Z</time></trkpt><trkpt lat="39.25975175666816" lon="9.576204762703124"><ele>9.333333333333334</ele><time>2026-04-05T15:02:48Z</time></trkpt><trkpt lat="39.25990420118456" lon="9.576183267160435"><ele>11.666666666666668</ele><time>2026-04-05T15:02:49Z</time></trkpt><trkpt lat="39.26006381763145" lon="9.576185648669496"><ele>14.0</ele><time>2026-04-05T15:02:50Z</time></trkpt><trkpt lat="39.26022310004542" lon="9.576178031417209"><ele>14.0</ele><time>2026-04-05T15:02:51Z</time></trkpt><trkpt lat="39.26038746223665" lon="9.576167806738766"><ele>14.0</ele><time>2026-04-05T15:02:52Z</time></trkpt><trkpt lat="39.26055092347665" lon="9.576162637432382"><ele>14.0</ele><time>2026-04-05T15:02:53Z</time></trkpt><trkpt lat="39.26071077211709" lon="9.57616220590815"><ele>14.0</ele><time>2026-04-05T15:02:54Z</time></trkpt><trkpt lat="39.260873625970845" lon="9.576161047191203"><ele>14.0</ele><time>2026-04-05T15:02:55Z</time></trkpt><trkpt lat="39.2610335492079" lon="9.576153526378674"><ele>14.0</ele><time>2026-04-05T15:02:56Z</time></trkpt><trkpt lat="39.261185650139275" lon="9.576129424418108"><ele>14.0</ele><time>2026-04-05T15:02:57Z</time></trkpt><trkpt lat="39.26131685298806" lon="9.57604675048215"><ele>14.0</ele><time>2026-04-05T15:02:58Z</time></trkpt><trkpt lat="39.261440579580444" lon="9.575931408360217"><ele>14.0</ele><time>2026-04-05T15:02:59Z</time></trkpt><trkpt lat="39.261559135053226" lon="9.575795696536478"><ele>13.333333333333334</ele><time>2026-04-05T15:03:00Z</time></trkpt><trkpt lat="39.261686877455276" lon="9.575666568623681"><ele>12.666666666666668</ele><time>2026-04-05T15:03:01Z</time></trkpt><trkpt lat="39.26181764432462" lon="9.57553982816812"><ele>12.0</ele><time>2026-04-05T15:03:02Z</time></trkpt><trkpt lat="39.26195163073335" lon="9.575414296326926"><ele>13.666666666666668</ele><time>2026-04-05T15:03:03Z</time></trkpt><trkpt lat="39.262092939285886" lon="9.575308687143776"><ele>15.333333333333334</ele><time>2026-04-05T15:03:04Z</time></trkpt><trkpt lat="39.262246310404045" lon="9.575248623917833"><ele>17.0</ele><time>2026-04-05T15:03:05Z</time></trkpt><trkpt lat="39.26241183898362" lon="9.575225605913088"><ele>16.666666666666668</ele><time>2026-04-05T15:03:06Z</time></trkpt><trkpt lat="39.262566508415475" lon="9.575277617811917"><ele>16.333333333333332</ele><time>2026-04-05T15:03:07Z</time></trkpt><trkpt lat="39.26272847306799" lon="9.575333970452593"><ele>16.0</ele><time>2026-04-05T15:03:08Z</time></trkpt><trkpt lat="39.26290574016436" lon="9.575380224656929"><ele>16.0</ele><time>2026-04-05T15:03:09Z</time></trkpt><trkpt lat="39.26308864455878" lon="9.575451281426966"><ele>16.0</ele><time>2026-04-05T15:03:10Z</time></trkpt><trkpt lat="39.2632748033414" lon="9.57551732401613"><ele>16.0</ele><time>2026-04-05T15:03:11Z</time></trkpt><trkpt lat="39.263456894990455" lon="9.575581973109477"><ele>16.0</ele><time>2026-04-05T15:03:12Z</time></trkpt><trkpt lat="39.26363496337866" lon="9.57564947106439"><ele>16.0</ele><time>2026-04-05T15:03:13Z</time></trkpt><trkpt lat="39.263805039769295" lon="9.575712282637484"><ele>16.0</ele><time>2026-04-05T15:03:14Z</time></trkpt><trkpt lat="39.263974312691026" lon="9.575772097786325"><ele>16.0</ele><time>2026-04-05T15:03:15Z</time></trkpt><trkpt lat="39.26415443278359" lon="9.575820175900159"><ele>16.0</ele><time>2026-04-05T15:03:16Z</time></trkpt><trkpt lat="39.26434501524625" lon="9.575853198629973"><ele>16.0</ele><time>2026-04-05T15:03:17Z</time></trkpt><trkpt lat="39.26453769283597" lon="9.575880222238958"><ele>16.0</ele><time>2026-04-05T15:03:18Z</time></trkpt><trkpt lat="39.26472846743389" lon="9.575909650914467"><ele>16.0</ele><time>2026-04-05T15:03:19Z</time></trkpt><trkpt lat="39.264913787578074" lon="9.575937408896774"><ele>16.0</ele><time>2026-04-05T15:03:20Z</time></trkpt><trkpt lat="39.26508848503847" lon="9.575965227158571"><ele>16.0</ele><time>2026-04-05T15:03:21Z</time></trkpt><trkpt lat="39.265254842256205" lon="9.575992602315596"><ele>16.0</ele><time>2026-04-05T15:03:22Z</time></trkpt><trkpt lat="39.26541538474713" lon="9.576020944794337"><ele>16.0</ele><time>2026-04-05T15:03:23Z</time></trkpt><trkpt lat="39.2655764127447" lon="9.576055906175462"><ele>15.333333333333332</ele><time>2026-04-05T15:03:24Z</time></trkpt><trkpt lat="39.26575034720377" lon="9.576107590607247"><ele>14.666666666666668</ele><time>2026-04-05T15:03:25Z</time></trkpt><trkpt lat="39.26592869011752" lon="9.576171969020008"><ele>14.0</ele><time>2026-04-05T15:03:26Z</time></trkpt><trkpt lat="39.266112899556184" lon="9.576245382474406"><ele>13.666666666666668</ele><time>2026-04-05T15:03:27Z</time></trkpt><trkpt lat="39.26629881764543" lon="9.576318998529608"><ele>13.333333333333332</ele><time>2026-04-05T15:03:28Z</time></trkpt><trkpt lat="39.26648746391223" lon="9.57639128658523"><ele>13.0</ele><time>2026-04-05T15:03:29Z</time></trkpt><trkpt lat="39.2666682068493" lon="9.576458665427786"><ele>13.0</ele><time>2026-04-05T15:03:30Z</time></trkpt><trkpt lat="39.266850915992094" lon="9.576535233562653"><ele>13.0</ele><time>2026-04-05T15:03:31Z</time></trkpt><trkpt lat="39.26703792671608" lon="9.576610580072403"><ele>13.0</ele><time>2026-04-05T15:03:32Z</time></trkpt><trkpt lat="39.26722401337952" lon="9.576683118888381"><ele>13.0</ele><time>2026-04-05T15:03:33Z</time></trkpt><trkpt lat="39.26741556956183" lon="9.576755755212975"><ele>13.0</ele><time>2026-04-05T15:03:34Z</time></trkpt><trkpt lat="39.2676077043467" lon="9.576827729050523"><ele>13.0</ele><time>2026-04-05T15:03:35Z</time></trkpt><trkpt lat="39.26780089863081" lon="9.576896772369633"><ele>13.0</ele><time>2026-04-05T15:03:36Z</time></trkpt><trkpt lat="39.267998373469595" lon="9.576965702329023"><ele>13.0</ele><time>2026-04-05T15:03:37Z</time></trkpt><trkpt lat="39.26819462011781" lon="9.577035129051298"><ele>13.0</ele><time>2026-04-05T15:03:38Z</time></trkpt><trkpt lat="39.26839417501551" lon="9.577108980634764"><ele>13.0</ele><time>2026-04-05T15:03:39Z</time></trkpt><trkpt lat="39.26859114350187" lon="9.577184638034845"><ele>13.0</ele><time>2026-04-05T15:03:40Z</time></trkpt><trkpt lat="39.26879086257868" lon="9.57725814704711"><ele>13.0</ele><time>2026-04-05T15:03:41Z</time></trkpt><trkpt lat="39.268991819380766" lon="9.577327948534984"><ele>13.333333333333332</ele><time>2026-04-05T15:03:42Z</time></trkpt><trkpt lat="39.26919190017235" lon="9.577397207708074"><ele>13.666666666666668</ele><time>2026-04-05T15:03:43Z</time></trkpt><trkpt lat="39.26939174205727" lon="9.577469210750909"><ele>14.0</ele><time>2026-04-05T15:03:44Z</time></trkpt><trkpt lat="39.2695934849809" lon="9.57754317498237"><ele>13.666666666666668</ele><time>2026-04-05T15:03:45Z</time></trkpt><trkpt lat="39.269794509951005" lon="9.57761749159512"><ele>13.333333333333332</ele><time>2026-04-05T15:03:46Z</time></trkpt><trkpt lat="39.26999489483114" lon="9.577691915623598"><ele>13.0</ele><time>2026-04-05T15:03:47Z</time></trkpt><trkpt lat="39.27019791539741" lon="9.57776658543744"><ele>13.0</ele><time>2026-04-05T15:03:48Z</time></trkpt><trkpt lat="39.27040144261934" lon="9.57784679052757"><ele>13.0</ele><time>2026-04-05T15:03:49Z</time></trkpt><trkpt lat="39.27060696868025" lon="9.577925641009653"><ele>13.0</ele><time>2026-04-05T15:03:50Z</time></trkpt><trkpt lat="39.27081542758652" lon="9.578005432265991"><ele>12.333333333333332</ele><time>2026-04-05T15:03:51Z</time></trkpt><trkpt lat="39.271026061833645" lon="9.578086608078868"><ele>11.666666666666666</ele><time>2026-04-05T15:03:52Z</time></trkpt><trkpt lat="39.27123718262322" lon="9.578168594198406"><ele>11.0</ele><time>2026-04-05T15:03:53Z</time></trkpt><trkpt lat="39.27145308428572" lon="9.578251802525736"><ele>10.666666666666666</ele><time>2026-04-05T15:03:54Z</time></trkpt><trkpt lat="39.27166612588976" lon="9.57833402969106"><ele>10.333333333333334</ele><time>2026-04-05T15:03:55Z</time></trkpt><trkpt lat="39.271880994159964" lon="9.578415375844505"><ele>10.0</ele><time>2026-04-05T15:03:56Z</time></trkpt><trkpt lat="39.27209552493868" lon="9.578493552261904"><ele>9.333333333333334</ele><time>2026-04-05T15:03:57Z</time></trkpt><trkpt lat="39.272309547950236" lon="9.578572484769008"><ele>8.666666666666666</ele><time>2026-04-05T15:03:58Z</time></trkpt><trkpt lat="39.27251653775591" lon="9.578654051960342"><ele>8.0</ele><time>2026-04-05T15:03:59Z</time></trkpt><trkpt lat="39.27271879506506" lon="9.57873390427294"><ele>8.0</ele><time>2026-04-05T15:04:00Z</time></trkpt><trkpt lat="39.272917715842496" lon="9.57880831082106"><ele>8.0</ele><time>2026-04-05T15:04:01Z</time></trkpt><trkpt lat="39.27310481855999" lon="9.578878873174585"><ele>8.0</ele><time>2026-04-05T15:04:02Z</time></trkpt><trkpt lat="39.273272636191685" lon="9.578964358996314"><ele>9.0</ele><time>2026-04-05T15:04:03Z</time></trkpt><trkpt lat="39.273437875880774" lon="9.579008356924096"><ele>10.0</ele><time>2026-04-05T15:04:04Z</time></trkpt><trkpt lat="39.27357899753646" lon="9.579104397485235"><ele>11.0</ele><time>2026-04-05T15:04:05Z</time></trkpt><trkpt lat="39.27371494359217" lon="9.579207776055705"><ele>11.0</ele><time>2026-04-05T15:04:06Z</time></trkpt><trkpt lat="39.27385950918041" lon="9.57932581606351"><ele>11.0</ele><time>2026-04-05T15:04:07Z</time></trkpt><trkpt lat="39.27400704887792" lon="9.579469505859265"><ele>11.0</ele><time>2026-04-05T15:04:08Z</time></trkpt><trkpt lat="39.274159920880834" lon="9.579615765654097"><ele>10.333333333333332</ele><time>2026-04-05T15:04:09Z</time></trkpt><trkpt lat="39.27430660409875" lon="9.579760871224485"><ele>9.666666666666666</ele><time>2026-04-05T15:04:10Z</time></trkpt><trkpt lat="39.274445407268374" lon="9.579898177089813"><ele>9.0</ele><time>2026-04-05T15:04:11Z</time></trkpt><trkpt lat="39.274575981333285" lon="9.580029542780384"><ele>9.0</ele><time>2026-04-05T15:04:12Z</time></trkpt><trkpt lat="39.27470312578404" lon="9.580155193371853"><ele>9.0</ele><time>2026-04-05T15:04:13Z</time></trkpt><trkpt lat="39.27483608267464" lon="9.580270808937936"><ele>9.0</ele><time>2026-04-05T15:04:14Z</time></trkpt><trkpt lat="39.27497232138979" lon="9.580383593200908"><ele>8.666666666666666</ele><time>2026-04-05T15:04:15Z</time></trkpt><trkpt lat="39.2751037001411" lon="9.580504378991964"><ele>8.333333333333332</ele><time>2026-04-05T15:04:16Z</time></trkpt><trkpt lat="39.275228419207636" lon="9.580624865926195"><ele>8.0</ele><time>2026-04-05T15:04:17Z</time></trkpt><trkpt lat="39.27535153583413" lon="9.580741607346033"><ele>8.0</ele><time>2026-04-05T15:04:18Z</time></trkpt><trkpt lat="39.27546905396399" lon="9.580863269094383"><ele>8.0</ele><time>2026-04-05T15:04:19Z</time></trkpt><trkpt lat="39.275590937244814" lon="9.580987027696352"><ele>8.0</ele><time>2026-04-05T15:04:20Z</time></trkpt><trkpt lat="39.27572064884433" lon="9.581112404761939"><ele>7.666666666666666</ele><time>2026-04-05T15:04:21Z</time></trkpt><trkpt lat="39.27584816416237" lon="9.581239471898737"><ele>7.333333333333334</ele><time>2026-04-05T15:04:22Z</time></trkpt><trkpt lat="39.275981432806205" lon="9.581362318436105"><ele>7.0</ele><time>2026-04-05T15:04:23Z</time></trkpt><trkpt lat="39.27611760279968" lon="9.581479866055307"><ele>7.0</ele><time>2026-04-05T15:04:24Z</time></trkpt><trkpt lat="39.27624923323333" lon="9.581594982981034"><ele>7.0</ele><time>2026-04-05T15:04:25Z</time></trkpt><trkpt lat="39.276374627986264" lon="9.58171334945115"><ele>7.0</ele><time>2026-04-05T15:04:26Z</time></trkpt><trkpt lat="39.27649487935207" lon="9.581834574272333"><ele>7.0</ele><time>2026-04-05T15:04:27Z</time></trkpt><trkpt lat="39.276616296258055" lon="9.581950759952573"><ele>7.0</ele><time>2026-04-05T15:04:28Z</time></trkpt><trkpt lat="39.27673887073613" lon="9.582067927848133"><ele>7.0</ele><time>2026-04-05T15:04:29Z</time></trkpt><trkpt lat="39.27686256800039" lon="9.582181852955108"><ele>7.0</ele><time>2026-04-05T15:04:30Z</time></trkpt><trkpt lat="39.276986230758645" lon="9.582297635032669"><ele>7.0</ele><time>2026-04-05T15:04:31Z</time></trkpt><trkpt lat="39.277112661969326" lon="9.582413329021618"><ele>7.0</ele><time>2026-04-05T15:04:32Z</time></trkpt><trkpt lat="39.2772388101941" lon="9.582528098948483"><ele>7.0</ele><time>2026-04-05T15:04:33Z</time></trkpt><trkpt lat="39.27736581087461" lon="9.58264289153625"><ele>7.0</ele><time>2026-04-05T15:04:34Z</time></trkpt><trkpt lat="39.27749192152156" lon="9.58275908423801"><ele>7.0</ele><time>2026-04-05T15:04:35Z</time></trkpt><trkpt lat="39.277617619084346" lon="9.582875386731438"><ele>7.0</ele><time>2026-04-05T15:04:36Z</time></trkpt><trkpt lat="39.27774343519464" lon="9.582988250498685"><ele>7.0</ele><time>2026-04-05T15:04:37Z</time></trkpt><trkpt lat="39.2778733939662" lon="9.583101969434264"><ele>7.0</ele><time>2026-04-05T15:04:38Z</time></trkpt><trkpt lat="39.27800674755769" lon="9.583218955788459"><ele>7.666666666666667</ele><time>2026-04-05T15:04:39Z</time></trkpt><trkpt lat="39.278138441101305" lon="9.583332035255768"><ele>8.333333333333334</ele><time>2026-04-05T15:04:40Z</time></trkpt><trkpt lat="39.2782663237813" lon="9.583444664593008"><ele>9.0</ele><time>2026-04-05T15:04:41Z</time></trkpt><trkpt lat="39.27838789443079" lon="9.58355438169203"><ele>9.0</ele><time>2026-04-05T15:04:42Z</time></trkpt><trkpt lat="39.27850469635561" lon="9.583668741361201"><ele>9.0</ele><time>2026-04-05T15:04:43Z</time></trkpt><trkpt lat="39.27862011089249" lon="9.583798742159097"><ele>9.0</ele><time>2026-04-05T15:04:44Z</time></trkpt><trkpt lat="39.27873866396006" lon="9.583933554420849"><ele>9.0</ele><time>2026-04-05T15:04:45Z</time></trkpt><trkpt lat="39.27886677776062" lon="9.58405928189687"><ele>9.0</ele><time>2026-04-05T15:04:46Z</time></trkpt><trkpt lat="39.279005982570474" lon="9.584177734268192"><ele>9.0</ele><time>2026-04-05T15:04:47Z</time></trkpt><trkpt lat="39.27914166257742" lon="9.584292619864941"><ele>9.333333333333334</ele><time>2026-04-05T15:04:48Z</time></trkpt><trkpt lat="39.27928080685467" lon="9.584412986315872"><ele>9.666666666666668</ele><time>2026-04-05T15:04:49Z</time></trkpt><trkpt lat="39.27941841045158" lon="9.584538279893218"><ele>10.0</ele><time>2026-04-05T15:04:50Z</time></trkpt><trkpt lat="39.279559884935935" lon="9.58467113710661"><ele>10.0</ele><time>2026-04-05T15:04:51Z</time></trkpt><trkpt lat="39.279705758223066" lon="9.584805670765308"><ele>10.0</ele><time>2026-04-05T15:04:52Z</time></trkpt><trkpt lat="39.27985109292519" lon="9.584940969875438"><ele>10.0</ele><time>2026-04-05T15:04:53Z</time></trkpt><trkpt lat="39.27999175558575" lon="9.585074780698708"><ele>10.0</ele><time>2026-04-05T15:04:54Z</time></trkpt><trkpt lat="39.2801241833487" lon="9.585205027082793"><ele>10.0</ele><time>2026-04-05T15:04:55Z</time></trkpt><trkpt lat="39.2802460451922" lon="9.585323658718815"><ele>10.0</ele><time>2026-04-05T15:04:56Z</time></trkpt><trkpt lat="39.28034828304926" lon="9.58541843123215"><ele>10.0</ele><time>2026-04-05T15:04:57Z</time></trkpt><trkpt lat="39.280423718331626" lon="9.585486754600266"><ele>10.0</ele><time>2026-04-05T15:04:58Z</time></trkpt><trkpt lat="39.28048499132938" lon="9.585527436930496"><ele>10.0</ele><time>2026-04-05T15:04:59Z</time></trkpt><trkpt lat="39.280606262059834" lon="9.585531337247732"><ele>10.0</ele><time>2026-04-05T15:05:01Z</time></trkpt><trkpt lat="39.280674030470436" lon="9.585497328438647"><ele>10.0</ele><time>2026-04-05T15:05:02Z</time></trkpt><trkpt lat="39.28074895954096" lon="9.585453033536334"><ele>10.0</ele><time>2026-04-05T15:05:03Z</time></trkpt><trkpt lat="39.280818231578195" lon="9.585387212758558"><ele>10.0</ele><time>2026-04-05T15:05:04Z</time></trkpt><trkpt lat="39.280890943828304" lon="9.585300408780142"><ele>10.0</ele><time>2026-04-05T15:05:05Z</time></trkpt><trkpt lat="39.2809714371438" lon="9.585207461168011"><ele>10.0</ele><time>2026-04-05T15:05:06Z</time></trkpt><trkpt lat="39.281054486163164" lon="9.585127457822223"><ele>10.0</ele><time>2026-04-05T15:05:07Z</time></trkpt><trkpt lat="39.28113498261275" lon="9.585071772265625"><ele>10.0</ele><time>2026-04-05T15:05:08Z</time></trkpt><trkpt lat="39.28123080156809" lon="9.585028108280527"><ele>10.0</ele><time>2026-04-05T15:05:09Z</time></trkpt><trkpt lat="39.28134194058038" lon="9.585001551792962"><ele>10.2</ele><time>2026-04-05T15:05:10Z</time></trkpt><trkpt lat="39.281456092770604" lon="9.584986430253947"><ele>10.4</ele><time>2026-04-05T15:05:11Z</time></trkpt><trkpt lat="39.28156310171959" lon="9.584973217346084"><ele>10.600000000000001</ele><time>2026-04-05T15:05:12Z</time></trkpt><trkpt lat="39.281661280105695" lon="9.584952476727793"><ele>10.8</ele><time>2026-04-05T15:05:13Z</time></trkpt><trkpt lat="39.28175114176268" lon="9.584924004119559"><ele>11.0</ele><time>2026-04-05T15:05:14Z</time></trkpt><trkpt lat="39.28182814617864" lon="9.584892855089102"><ele>11.0</ele><time>2026-04-05T15:05:15Z</time></trkpt><trkpt lat="39.28189341635821" lon="9.584849532628859"><ele>11.0</ele><time>2026-04-05T15:05:16Z</time></trkpt><trkpt lat="39.28195815501857" lon="9.584784837976045"><ele>11.0</ele><time>2026-04-05T15:05:17Z</time></trkpt><trkpt lat="39.28203020617875" lon="9.584693202841672"><ele>11.0</ele><time>2026-04-05T15:05:18Z</time></trkpt><trkpt lat="39.282107434401" lon="9.584582675858991"><ele>11.0</ele><time>2026-04-05T15:05:19Z</time></trkpt><trkpt lat="39.28218482783091" lon="9.58444969711658"><ele>11.5</ele><time>2026-04-05T15:05:20Z</time></trkpt><trkpt lat="39.282277711797555" lon="9.584318290586411"><ele>12.0</ele><time>2026-04-05T15:05:21Z</time></trkpt><trkpt lat="39.2823587581902" lon="9.58416982372527"><ele>12.5</ele><time>2026-04-05T15:05:22Z</time></trkpt><trkpt lat="39.28244036004332" lon="9.584021879612441"><ele>13.0</ele><time>2026-04-05T15:05:23Z</time></trkpt><trkpt lat="39.282520592488105" lon="9.583883108439666"><ele>13.0</ele><time>2026-04-05T15:05:24Z</time></trkpt><trkpt lat="39.282599944663176" lon="9.583745266511743"><ele>13.0</ele><time>2026-04-05T15:05:25Z</time></trkpt><trkpt lat="39.28268419274937" lon="9.583618125369087"><ele>13.0</ele><time>2026-04-05T15:05:26Z</time></trkpt><trkpt lat="39.28276971251312" lon="9.583505631572528"><ele>13.0</ele><time>2026-04-05T15:05:27Z</time></trkpt><trkpt lat="39.28284338401075" lon="9.583400527225967"><ele>13.0</ele><time>2026-04-05T15:05:28Z</time></trkpt><trkpt lat="39.28291129201748" lon="9.583291141702409"><ele>13.0</ele><time>2026-04-05T15:05:29Z</time></trkpt><trkpt lat="39.2829797885047" lon="9.583180808227208"><ele>13.0</ele><time>2026-04-05T15:05:30Z</time></trkpt><trkpt lat="39.28304154100089" lon="9.583059697317491"><ele>13.0</ele><time>2026-04-05T15:05:31Z</time></trkpt><trkpt lat="39.28311721944216" lon="9.582936466334736"><ele>13.25</ele><time>2026-04-05T15:05:32Z</time></trkpt><trkpt lat="39.283194787521" lon="9.582810752188628"><ele>13.5</ele><time>2026-04-05T15:05:33Z</time></trkpt><trkpt lat="39.28326026901076" lon="9.582680550136422"><ele>13.75</ele><time>2026-04-05T15:05:34Z</time></trkpt><trkpt lat="39.28329547939861" lon="9.58253532386318"><ele>14.0</ele><time>2026-04-05T15:05:35Z</time></trkpt><trkpt lat="39.28335305800699" lon="9.58240324843625"><ele>14.0</ele><time>2026-04-05T15:05:36Z</time></trkpt><trkpt lat="39.28340674775843" lon="9.582262522721974"><ele>14.0</ele><time>2026-04-05T15:05:37Z</time></trkpt><trkpt lat="39.28345139361732" lon="9.582115872134413"><ele>14.0</ele><time>2026-04-05T15:05:38Z</time></trkpt><trkpt lat="39.28349562566231" lon="9.58197386948236"><ele>14.0</ele><time>2026-04-05T15:05:39Z</time></trkpt><trkpt lat="39.283538532566475" lon="9.581834459956905"><ele>13.799999999999999</ele><time>2026-04-05T15:05:40Z</time></trkpt><trkpt lat="39.283591988296784" lon="9.581710463154918"><ele>13.599999999999998</ele><time>2026-04-05T15:05:41Z</time></trkpt><trkpt lat="39.283629853711325" lon="9.581591419354517"><ele>13.4</ele><time>2026-04-05T15:05:42Z</time></trkpt><trkpt lat="39.28366593577449" lon="9.58147798216286"><ele>13.2</ele><time>2026-04-05T15:05:43Z</time></trkpt><trkpt lat="39.28370084400169" lon="9.581368580332674"><ele>13.0</ele><time>2026-04-05T15:05:44Z</time></trkpt><trkpt lat="39.283728451951355" lon="9.58123465781433"><ele>13.5</ele><time>2026-04-05T15:05:45Z</time></trkpt><trkpt lat="39.28377802046246" lon="9.581109869374343"><ele>14.0</ele><time>2026-04-05T15:05:46Z</time></trkpt><trkpt lat="39.28383674267145" lon="9.58098874527225"><ele>14.5</ele><time>2026-04-05T15:05:47Z</time></trkpt><trkpt lat="39.283918347355446" lon="9.580863136940055"><ele>15.0</ele><time>2026-04-05T15:05:48Z</time></trkpt><trkpt lat="39.28399386152214" lon="9.58073900579072"><ele>15.25</ele><time>2026-04-05T15:05:49Z</time></trkpt><trkpt lat="39.284077270160964" lon="9.580628793692242"><ele>15.5</ele><time>2026-04-05T15:05:50Z</time></trkpt><trkpt lat="39.28414262333871" lon="9.580503485562916"><ele>15.75</ele><time>2026-04-05T15:05:51Z</time></trkpt><trkpt lat="39.284213396910474" lon="9.580376309930509"><ele>16.0</ele><time>2026-04-05T15:05:52Z</time></trkpt><trkpt lat="39.284272327944755" lon="9.580253749459843"><ele>16.0</ele><time>2026-04-05T15:05:53Z</time></trkpt><trkpt lat="39.284342489043595" lon="9.58014792678554"><ele>16.0</ele><time>2026-04-05T15:05:54Z</time></trkpt><trkpt lat="39.28440429611159" lon="9.580035583892705"><ele>16.0</ele><time>2026-04-05T15:05:55Z</time></trkpt><trkpt lat="39.28446941128387" lon="9.579937519799165"><ele>16.0</ele><time>2026-04-05T15:05:56Z</time></trkpt><trkpt lat="39.2845475295379" lon="9.579835783034964"><ele>16.0</ele><time>2026-04-05T15:05:57Z</time></trkpt><trkpt lat="39.28460165728016" lon="9.579706938199728"><ele>16.0</ele><time>2026-04-05T15:05:58Z</time></trkpt><trkpt lat="39.28465919213024" lon="9.579591116764812"><ele>16.0</ele><time>2026-04-05T15:05:59Z</time></trkpt><trkpt lat="39.28472109882067" lon="9.579476143903518"><ele>16.0</ele><time>2026-04-05T15:06:00Z</time></trkpt><trkpt lat="39.28475971368154" lon="9.579334894616085"><ele>16.0</ele><time>2026-04-05T15:06:01Z</time></trkpt><trkpt lat="39.284774194307765" lon="9.579186215729875"><ele>16.0</ele><time>2026-04-05T15:06:02Z</time></trkpt><trkpt lat="39.28476709279292" lon="9.579053801757615"><ele>16.333333333333332</ele><time>2026-04-05T15:06:03Z</time></trkpt><trkpt lat="39.284784214203626" lon="9.578942042455044"><ele>16.666666666666664</ele><time>2026-04-05T15:06:04Z</time></trkpt><trkpt lat="39.28480975773233" lon="9.578848754113274"><ele>17.0</ele><time>2026-04-05T15:06:05Z</time></trkpt><trkpt lat="39.28486626025275" lon="9.578788487053966"><ele>17.333333333333332</ele><time>2026-04-05T15:06:06Z</time></trkpt><trkpt lat="39.28490855047343" lon="9.578706331487062"><ele>17.666666666666668</ele><time>2026-04-05T15:06:07Z</time></trkpt><trkpt lat="39.28496371268899" lon="9.578638071966786"><ele>18.0</ele><time>2026-04-05T15:06:08Z</time></trkpt><trkpt lat="39.28500924090876" lon="9.57858060455716"><ele>18.0</ele><time>2026-04-05T15:06:09Z</time></trkpt><trkpt lat="39.285045469726064" lon="9.578471313798056"><ele>18.0</ele><time>2026-04-05T15:06:11Z</time></trkpt><trkpt lat="39.285014404471376" lon="9.578371286989242"><ele>18.0</ele><time>2026-04-05T15:06:13Z</time></trkpt><trkpt lat="39.284996060653306" lon="9.578287489891347"><ele>18.0</ele><time>2026-04-05T15:06:15Z</time></trkpt><trkpt lat="39.28496666532078" lon="9.578164879389867"><ele>18.0</ele><time>2026-04-05T15:06:17Z</time></trkpt><trkpt lat="39.28494455749992" lon="9.578030988593921"><ele>18.0</ele><time>2026-04-05T15:06:19Z</time></trkpt><trkpt lat="39.28494605837816" lon="9.577888257428283"><ele>18.2</ele><time>2026-04-05T15:06:21Z</time></trkpt><trkpt lat="39.284950922914604" lon="9.577741480190902"><ele>18.4</ele><time>2026-04-05T15:06:23Z</time></trkpt><trkpt lat="39.284992608672596" lon="9.577612159693713"><ele>18.599999999999998</ele><time>2026-04-05T15:06:25Z</time></trkpt><trkpt lat="39.28501253595936" lon="9.577529351753618"><ele>18.8</ele><time>2026-04-05T15:06:27Z</time></trkpt><trkpt lat="39.285084774762396" lon="9.577505037105814"><ele>19.0</ele><time>2026-04-05T15:06:30Z</time></trkpt><trkpt lat="39.28517029454096" lon="9.5774905844788"><ele>19.0</ele><time>2026-04-05T15:06:31Z</time></trkpt><trkpt lat="39.28527798117525" lon="9.577508028404623"><ele>19.0</ele><time>2026-04-05T15:06:32Z</time></trkpt><trkpt lat="39.28539304136883" lon="9.577507418889716"><ele>19.0</ele><time>2026-04-05T15:06:33Z</time></trkpt><trkpt lat="39.28553157632571" lon="9.577490103724148"><ele>19.0</ele><time>2026-04-05T15:06:34Z</time></trkpt><trkpt lat="39.285664644136894" lon="9.577464130552139"><ele>19.0</ele><time>2026-04-05T15:06:35Z</time></trkpt><trkpt lat="39.285779678948444" lon="9.577445108131911"><ele>19.0</ele><time>2026-04-05T15:06:36Z</time></trkpt><trkpt lat="39.2858832436305" lon="9.57744848707421"><ele>19.0</ele><time>2026-04-05T15:06:37Z</time></trkpt><trkpt lat="39.2859772210882" lon="9.577465317902378"><ele>19.0</ele><time>2026-04-05T15:06:38Z</time></trkpt><trkpt lat="39.28604904708452" lon="9.577506976224976"><ele>19.0</ele><time>2026-04-05T15:06:39Z</time></trkpt><trkpt lat="39.286113653636086" lon="9.577550950074905"><ele>19.0</ele><time>2026-04-05T15:06:40Z</time></trkpt><trkpt lat="39.28615120756503" lon="9.577690379191523"><ele>19.0</ele><time>2026-04-05T15:06:41Z</time></trkpt><trkpt lat="39.286196843708574" lon="9.577835486243655"><ele>19.0</ele><time>2026-04-05T15:06:42Z</time></trkpt><trkpt lat="39.28625248410567" lon="9.577995129194585"><ele>19.0</ele><time>2026-04-05T15:06:43Z</time></trkpt><trkpt lat="39.286316218992496" lon="9.578173111354323"><ele>19.0</ele><time>2026-04-05T15:06:44Z</time></trkpt><trkpt lat="39.28638686695513" lon="9.578368453323614"><ele>19.0</ele><time>2026-04-05T15:06:45Z</time></trkpt><trkpt lat="39.286462940415845" lon="9.578566160697816"><ele>19.0</ele><time>2026-04-05T15:06:46Z</time></trkpt><trkpt lat="39.286544664550625" lon="9.578776435455653"><ele>19.666666666666664</ele><time>2026-04-05T15:06:47Z</time></trkpt><trkpt lat="39.28662940254843" lon="9.578999652028717"><ele>20.333333333333332</ele><time>2026-04-05T15:06:48Z</time></trkpt><trkpt lat="39.28670333789077" lon="9.579205025223493"><ele>21.0</ele><time>2026-04-05T15:06:49Z</time></trkpt><trkpt lat="39.2867842868995" lon="9.579422343091359"><ele>21.0</ele><time>2026-04-05T15:06:50Z</time></trkpt><trkpt lat="39.28686570655641" lon="9.57964052024023"><ele>21.0</ele><time>2026-04-05T15:06:51Z</time></trkpt><trkpt lat="39.28694622115296" lon="9.579862260522804"><ele>21.0</ele><time>2026-04-05T15:06:52Z</time></trkpt><trkpt lat="39.28703022298711" lon="9.580092304730613"><ele>21.0</ele><time>2026-04-05T15:06:53Z</time></trkpt><trkpt lat="39.28711285715657" lon="9.580316797965583"><ele>21.0</ele><time>2026-04-05T15:06:54Z</time></trkpt><trkpt lat="39.287195875031344" lon="9.580541099240136"><ele>21.0</ele><time>2026-04-05T15:06:55Z</time></trkpt><trkpt lat="39.28727595764536" lon="9.580759944142518"><ele>22.0</ele><time>2026-04-05T15:06:56Z</time></trkpt><trkpt lat="39.28735364140495" lon="9.580973440035699"><ele>23.0</ele><time>2026-04-05T15:06:57Z</time></trkpt><trkpt lat="39.28742938312272" lon="9.581178451604135"><ele>24.0</ele><time>2026-04-05T15:06:58Z</time></trkpt><trkpt lat="39.28750113428611" lon="9.58137128689463"><ele>24.0</ele><time>2026-04-05T15:06:59Z</time></trkpt><trkpt lat="39.28756949655369" lon="9.58154892833688"><ele>24.0</ele><time>2026-04-05T15:07:00Z</time></trkpt><trkpt lat="39.28762049300214" lon="9.581732919346798"><ele>24.0</ele><time>2026-04-05T15:07:01Z</time></trkpt><trkpt lat="39.28768453991542" lon="9.581909842767654"><ele>24.25</ele><time>2026-04-05T15:07:02Z</time></trkpt><trkpt lat="39.28776490380546" lon="9.582065738215363"><ele>24.5</ele><time>2026-04-05T15:07:03Z</time></trkpt><trkpt lat="39.28785050065681" lon="9.582213280169803"><ele>24.75</ele><time>2026-04-05T15:07:04Z</time></trkpt><trkpt lat="39.28796121571639" lon="9.582353777847937"><ele>25.0</ele><time>2026-04-05T15:07:05Z</time></trkpt><trkpt lat="39.28807129321185" lon="9.582514852932121"><ele>26.333333333333336</ele><time>2026-04-05T15:07:06Z</time></trkpt><trkpt lat="39.28820628131562" lon="9.582682241648437"><ele>27.666666666666664</ele><time>2026-04-05T15:07:07Z</time></trkpt><trkpt lat="39.288350879765254" lon="9.582861783730305"><ele>29.0</ele><time>2026-04-05T15:07:08Z</time></trkpt><trkpt lat="39.28851429227952" lon="9.583036354683754"><ele>29.5</ele><time>2026-04-05T15:07:09Z</time></trkpt><trkpt lat="39.288669859827415" lon="9.58324091193994"><ele>30.0</ele><time>2026-04-05T15:07:10Z</time></trkpt><trkpt lat="39.28883545020619" lon="9.583448465283222"><ele>31.5</ele><time>2026-04-05T15:07:11Z</time></trkpt><trkpt lat="39.289006393980465" lon="9.583659046238665"><ele>33.0</ele><time>2026-04-05T15:07:12Z</time></trkpt><trkpt lat="39.28917256655971" lon="9.583863778666514"><ele>33.666666666666664</ele><time>2026-04-05T15:07:13Z</time></trkpt><trkpt lat="39.28932462292509" lon="9.584056812419046"><ele>34.33333333333333</ele><time>2026-04-05T15:07:14Z</time></trkpt><trkpt lat="39.28946152285406" lon="9.584252275877061"><ele>35.0</ele><time>2026-04-05T15:07:15Z</time></trkpt><trkpt lat="39.289596787812314" lon="9.584468437153838"><ele>35.0</ele><time>2026-04-05T15:07:16Z</time></trkpt><trkpt lat="39.28973473413741" lon="9.584695454598043"><ele>35.0</ele><time>2026-04-05T15:07:17Z</time></trkpt><trkpt lat="39.289877276299606" lon="9.58491986476897"><ele>35.0</ele><time>2026-04-05T15:07:18Z</time></trkpt><trkpt lat="39.29002779545409" lon="9.585145701799856"><ele>29.5</ele><time>2026-04-05T15:07:19Z</time></trkpt><trkpt lat="39.290179989687935" lon="9.585373053638573"><ele>24.0</ele><time>2026-04-05T15:07:20Z</time></trkpt><trkpt lat="39.29033878222166" lon="9.585614725041433"><ele>24.0</ele><time>2026-04-05T15:07:21Z</time></trkpt><trkpt lat="39.29049145069867" lon="9.585850410854512"><ele>24.0</ele><time>2026-04-05T15:07:22Z</time></trkpt><trkpt lat="39.2906472920402" lon="9.586092222711281"><ele>24.0</ele><time>2026-04-05T15:07:23Z</time></trkpt><trkpt lat="39.29080547995054" lon="9.586335348627426"><ele>24.0</ele><time>2026-04-05T15:07:24Z</time></trkpt><trkpt lat="39.29095705571415" lon="9.586571166137546"><ele>24.0</ele><time>2026-04-05T15:07:25Z</time></trkpt><trkpt lat="39.291105614304" lon="9.586803756510898"><ele>24.0</ele><time>2026-04-05T15:07:26Z</time></trkpt><trkpt lat="39.29125274704845" lon="9.587032213483619"><ele>24.0</ele><time>2026-04-05T15:07:27Z</time></trkpt><trkpt lat="39.29139809111378" lon="9.587255311610077"><ele>24.0</ele><time>2026-04-05T15:07:28Z</time></trkpt><trkpt lat="39.29154035048067" lon="9.58747289047489"><ele>24.0</ele><time>2026-04-05T15:07:29Z</time></trkpt><trkpt lat="39.29168096940954" lon="9.587688670479311"><ele>24.333333333333336</ele><time>2026-04-05T15:07:30Z</time></trkpt><trkpt lat="39.291815390329944" lon="9.587892879362721"><ele>24.666666666666668</ele><time>2026-04-05T15:07:31Z</time></trkpt><trkpt lat="39.291942540966204" lon="9.588087932689572"><ele>25.0</ele><time>2026-04-05T15:07:32Z</time></trkpt><trkpt lat="39.292056477868194" lon="9.58827374990704"><ele>25.0</ele><time>2026-04-05T15:07:33Z</time></trkpt><trkpt lat="39.29213591290177" lon="9.588472116616671"><ele>25.0</ele><time>2026-04-05T15:07:34Z</time></trkpt><trkpt lat="39.292184249963306" lon="9.588673075913043"><ele>25.0</ele><time>2026-04-05T15:07:35Z</time></trkpt><trkpt lat="39.292190831646806" lon="9.588873905628878"><ele>23.333333333333336</ele><time>2026-04-05T15:07:36Z</time></trkpt><trkpt lat="39.29219404692878" lon="9.589100050770867"><ele>21.666666666666668</ele><time>2026-04-05T15:07:37Z</time></trkpt><trkpt lat="39.29219670668907" lon="9.58934655605002"><ele>20.0</ele><time>2026-04-05T15:07:38Z</time></trkpt><trkpt lat="39.2921996447494" lon="9.589618854040314"><ele>19.333333333333336</ele><time>2026-04-05T15:07:39Z</time></trkpt><trkpt lat="39.29220270769131" lon="9.589902725903373"><ele>18.666666666666668</ele><time>2026-04-05T15:07:40Z</time></trkpt><trkpt lat="39.292205863621376" lon="9.590195215885798"><ele>18.0</ele><time>2026-04-05T15:07:41Z</time></trkpt><trkpt lat="39.29222247655327" lon="9.5904923084964"><ele>18.0</ele><time>2026-04-05T15:07:42Z</time></trkpt><trkpt lat="39.29222197515431" lon="9.590791949750399"><ele>18.0</ele><time>2026-04-05T15:07:43Z</time></trkpt><trkpt lat="39.29222577472818" lon="9.59109468305526"><ele>18.0</ele><time>2026-04-05T15:07:44Z</time></trkpt><trkpt lat="39.292231950885096" lon="9.591395490724446"><ele>18.0</ele><time>2026-04-05T15:07:45Z</time></trkpt><trkpt lat="39.29223740041756" lon="9.591693891359714"><ele>18.0</ele><time>2026-04-05T15:07:46Z</time></trkpt><trkpt lat="39.29224089715967" lon="9.591989311416418"><ele>18.0</ele><time>2026-04-05T15:07:47Z</time></trkpt><trkpt lat="39.292244850839324" lon="9.592284390071509"><ele>18.0</ele><time>2026-04-05T15:07:48Z</time></trkpt><trkpt lat="39.29224713293279" lon="9.59258323064975"><ele>18.0</ele><time>2026-04-05T15:07:49Z</time></trkpt><trkpt lat="39.29224796492148" lon="9.592884820655357"><ele>15.5</ele><time>2026-04-05T15:07:50Z</time></trkpt><trkpt lat="39.29224973354246" lon="9.593190222505783"><ele>13.0</ele><time>2026-04-05T15:07:51Z</time></trkpt><trkpt lat="39.29225216727584" lon="9.593496976356478"><ele>13.5</ele><time>2026-04-05T15:07:52Z</time></trkpt><trkpt lat="39.29225824518337" lon="9.593804625093505"><ele>14.0</ele><time>2026-04-05T15:07:53Z</time></trkpt><trkpt lat="39.29226378234639" lon="9.594114581392494"><ele>14.0</ele><time>2026-04-05T15:07:54Z</time></trkpt><trkpt lat="39.292267629571555" lon="9.594426668568934"><ele>14.0</ele><time>2026-04-05T15:07:55Z</time></trkpt><trkpt lat="39.29226904015154" lon="9.594737175197121"><ele>14.0</ele><time>2026-04-05T15:07:56Z</time></trkpt><trkpt lat="39.29226994937403" lon="9.59504640845949"><ele>14.0</ele><time>2026-04-05T15:07:57Z</time></trkpt><trkpt lat="39.29227208658318" lon="9.595359988975446"><ele>14.0</ele><time>2026-04-05T15:07:58Z</time></trkpt><trkpt lat="39.29227784169587" lon="9.595674327227302"><ele>14.0</ele><time>2026-04-05T15:07:59Z</time></trkpt><trkpt lat="39.29228349339988" lon="9.595992654314701"><ele>13.5</ele><time>2026-04-05T15:08:00Z</time></trkpt><trkpt lat="39.2922874191736" lon="9.596308472677512"><ele>13.0</ele><time>2026-04-05T15:08:01Z</time></trkpt><trkpt lat="39.29228946073495" lon="9.596621480102224"><ele>13.0</ele><time>2026-04-05T15:08:02Z</time></trkpt><trkpt lat="39.29229126473371" lon="9.59693435807239"><ele>13.0</ele><time>2026-04-05T15:08:03Z</time></trkpt><trkpt lat="39.29229472899919" lon="9.59724216113694"><ele>13.0</ele><time>2026-04-05T15:08:04Z</time></trkpt><trkpt lat="39.292299456528085" lon="9.597541956251554"><ele>13.0</ele><time>2026-04-05T15:08:05Z</time></trkpt><trkpt lat="39.29230527282728" lon="9.597832662322627"><ele>12.0</ele><time>2026-04-05T15:08:06Z</time></trkpt><trkpt lat="39.29231607700009" lon="9.598122628858498"><ele>11.0</ele><time>2026-04-05T15:08:07Z</time></trkpt><trkpt lat="39.29232727670403" lon="9.598417006497737"><ele>10.5</ele><time>2026-04-05T15:08:08Z</time></trkpt><trkpt lat="39.29234522031029" lon="9.598714674689742"><ele>10.0</ele><time>2026-04-05T15:08:09Z</time></trkpt><trkpt lat="39.29236960974154" lon="9.599014463378648"><ele>10.0</ele><time>2026-04-05T15:08:10Z</time></trkpt><trkpt lat="39.29239702370885" lon="9.599315299277587"><ele>10.0</ele><time>2026-04-05T15:08:11Z</time></trkpt><trkpt lat="39.29242353512729" lon="9.599619535024251"><ele>10.5</ele><time>2026-04-05T15:08:12Z</time></trkpt><trkpt lat="39.292447849683974" lon="9.599925364747966"><ele>11.0</ele><time>2026-04-05T15:08:13Z</time></trkpt><trkpt lat="39.29247443955821" lon="9.600232585156776"><ele>10.5</ele><time>2026-04-05T15:08:14Z</time></trkpt><trkpt lat="39.29250065658303" lon="9.600538646557217"><ele>10.0</ele><time>2026-04-05T15:08:15Z</time></trkpt><trkpt lat="39.29252550300183" lon="9.600836370447242"><ele>10.0</ele><time>2026-04-05T15:08:16Z</time></trkpt><trkpt lat="39.2925474315935" lon="9.601117762203105"><ele>10.0</ele><time>2026-04-05T15:08:17Z</time></trkpt><trkpt lat="39.29256644821611" lon="9.601378461154663"><ele>10.0</ele><time>2026-04-05T15:08:18Z</time></trkpt><trkpt lat="39.29258295306538" lon="9.601619936273918"><ele>9.666666666666668</ele><time>2026-04-05T15:08:19Z</time></trkpt><trkpt lat="39.29260258936832" lon="9.60182693847169"><ele>9.333333333333334</ele><time>2026-04-05T15:08:20Z</time></trkpt><trkpt lat="39.29264347272662" lon="9.602016335618988"><ele>9.0</ele><time>2026-04-05T15:08:21Z</time></trkpt><trkpt lat="39.292651813837594" lon="9.602201004063948"><ele>9.666666666666666</ele><time>2026-04-05T15:08:22Z</time></trkpt><trkpt lat="39.29267571850877" lon="9.602352058468892"><ele>10.333333333333332</ele><time>2026-04-05T15:08:23Z</time></trkpt><trkpt lat="39.29300177256304" lon="9.602409699764562"><ele>11.0</ele><time>2026-04-05T15:08:24Z</time></trkpt><trkpt lat="39.293165992978395" lon="9.602516148324897"><ele>11.0</ele><time>2026-04-05T15:08:25Z</time></trkpt><trkpt lat="39.293322151920194" lon="9.602648903025585"><ele>11.0</ele><time>2026-04-05T15:08:26Z</time></trkpt><trkpt lat="39.29347946636128" lon="9.602789540556492"><ele>11.0</ele><time>2026-04-05T15:08:27Z</time></trkpt><trkpt lat="39.29364403608697" lon="9.60293284455812"><ele>10.666666666666666</ele><time>2026-04-05T15:08:28Z</time></trkpt><trkpt lat="39.29381657447569" lon="9.60307447478124"><ele>10.333333333333334</ele><time>2026-04-05T15:08:29Z</time></trkpt><trkpt lat="39.29399338042332" lon="9.603219204182082"><ele>10.0</ele><time>2026-04-05T15:08:30Z</time></trkpt><trkpt lat="39.29416651954106" lon="9.603368756927942"><ele>10.0</ele><time>2026-04-05T15:08:31Z</time></trkpt><trkpt lat="39.29433514959502" lon="9.603513543143345"><ele>10.0</ele><time>2026-04-05T15:08:32Z</time></trkpt><trkpt lat="39.294494418102076" lon="9.603647916152642"><ele>10.0</ele><time>2026-04-05T15:08:33Z</time></trkpt><trkpt lat="39.29464178119055" lon="9.603780298792152"><ele>10.333333333333334</ele><time>2026-04-05T15:08:34Z</time></trkpt><trkpt lat="39.294763606708734" lon="9.60392264376092"><ele>10.666666666666666</ele><time>2026-04-05T15:08:35Z</time></trkpt><trkpt lat="39.29486121090259" lon="9.604095747167609"><ele>11.0</ele><time>2026-04-05T15:08:36Z</time></trkpt><trkpt lat="39.29494544109862" lon="9.604300608066946"><ele>10.666666666666666</ele><time>2026-04-05T15:08:37Z</time></trkpt><trkpt lat="39.295025325325426" lon="9.604536342405506"><ele>10.333333333333334</ele><time>2026-04-05T15:08:38Z</time></trkpt><trkpt lat="39.29511066406105" lon="9.604784826902538"><ele>10.0</ele><time>2026-04-05T15:08:39Z</time></trkpt><trkpt lat="39.29520617628432" lon="9.605033836062015"><ele>10.0</ele><time>2026-04-05T15:08:40Z</time></trkpt><trkpt lat="39.29530665780044" lon="9.605289258071972"><ele>10.0</ele><time>2026-04-05T15:08:41Z</time></trkpt><trkpt lat="39.295406672417606" lon="9.605545895209563"><ele>10.0</ele><time>2026-04-05T15:08:42Z</time></trkpt><trkpt lat="39.295502254239956" lon="9.605792886337092"><ele>9.666666666666668</ele><time>2026-04-05T15:08:43Z</time></trkpt><trkpt lat="39.29559488750981" lon="9.606037906021742"><ele>9.333333333333334</ele><time>2026-04-05T15:08:44Z</time></trkpt><trkpt lat="39.295685399844494" lon="9.606287762171116"><ele>9.0</ele><time>2026-04-05T15:08:45Z</time></trkpt><trkpt lat="39.29577702195669" lon="9.606538373178171"><ele>8.333333333333334</ele><time>2026-04-05T15:08:46Z</time></trkpt><trkpt lat="39.29587291235309" lon="9.606787237720324"><ele>7.666666666666667</ele><time>2026-04-05T15:08:47Z</time></trkpt><trkpt lat="39.29597209347536" lon="9.607042376686788"><ele>7.0</ele><time>2026-04-05T15:08:48Z</time></trkpt><trkpt lat="39.296067418426915" lon="9.607293402907342"><ele>6.666666666666667</ele><time>2026-04-05T15:08:49Z</time></trkpt><trkpt lat="39.29616111460578" lon="9.607539508896787"><ele>6.333333333333334</ele><time>2026-04-05T15:08:50Z</time></trkpt><trkpt lat="39.296259355658655" lon="9.607785348293442"><ele>6.0</ele><time>2026-04-05T15:08:51Z</time></trkpt><trkpt lat="39.29635617884549" lon="9.608029399420642"><ele>7.666666666666666</ele><time>2026-04-05T15:08:52Z</time></trkpt><trkpt lat="39.296447341970634" lon="9.60827219180169"><ele>9.333333333333332</ele><time>2026-04-05T15:08:53Z</time></trkpt><trkpt lat="39.29653995398408" lon="9.608514385706439"><ele>11.0</ele><time>2026-04-05T15:08:54Z</time></trkpt><trkpt lat="39.296627524563" lon="9.608745255970888"><ele>11.0</ele><time>2026-04-05T15:08:55Z</time></trkpt><trkpt lat="39.296713634234195" lon="9.608973855991898"><ele>11.0</ele><time>2026-04-05T15:08:56Z</time></trkpt><trkpt lat="39.296800192452764" lon="9.609208362224566"><ele>11.0</ele><time>2026-04-05T15:08:57Z</time></trkpt><trkpt lat="39.29689080534671" lon="9.609446472779677"><ele>11.0</ele><time>2026-04-05T15:08:58Z</time></trkpt><trkpt lat="39.29698082506489" lon="9.609680511782624"><ele>11.0</ele><time>2026-04-05T15:08:59Z</time></trkpt><trkpt lat="39.297066817712576" lon="9.609906986416727"><ele>11.0</ele><time>2026-04-05T15:09:00Z</time></trkpt><trkpt lat="39.297149441603636" lon="9.610117831070276"><ele>11.0</ele><time>2026-04-05T15:09:01Z</time></trkpt><trkpt lat="39.29723470801184" lon="9.61031048076487"><ele>11.0</ele><time>2026-04-05T15:09:02Z</time></trkpt><trkpt lat="39.297336507684854" lon="9.610469234169019"><ele>11.0</ele><time>2026-04-05T15:09:03Z</time></trkpt><trkpt lat="39.29745987222762" lon="9.610588799070479"><ele>10.0</ele><time>2026-04-05T15:09:04Z</time></trkpt><trkpt lat="39.29760048541008" lon="9.610647921487244"><ele>9.0</ele><time>2026-04-05T15:09:05Z</time></trkpt><trkpt lat="39.29775933537478" lon="9.610678548496498"><ele>8.0</ele><time>2026-04-05T15:09:06Z</time></trkpt><trkpt lat="39.297931642831216" lon="9.610670658343786"><ele>8.333333333333332</ele><time>2026-04-05T15:09:07Z</time></trkpt><trkpt lat="39.298112717026775" lon="9.610658958507365"><ele>8.666666666666666</ele><time>2026-04-05T15:09:08Z</time></trkpt><trkpt lat="39.29830511353579" lon="9.610658447834696"><ele>9.0</ele><time>2026-04-05T15:09:09Z</time></trkpt><trkpt lat="39.29850763099943" lon="9.610663712708764"><ele>9.0</ele><time>2026-04-05T15:09:10Z</time></trkpt><trkpt lat="39.298719783659415" lon="9.61066937639735"><ele>9.0</ele><time>2026-04-05T15:09:11Z</time></trkpt><trkpt lat="39.29893975096386" lon="9.610675386590742"><ele>9.0</ele><time>2026-04-05T15:09:12Z</time></trkpt><trkpt lat="39.29915586349035" lon="9.610683842627708"><ele>9.0</ele><time>2026-04-05T15:09:13Z</time></trkpt><trkpt lat="39.299365913227014" lon="9.610694320289692"><ele>9.0</ele><time>2026-04-05T15:09:14Z</time></trkpt><trkpt lat="39.29958249353755" lon="9.61070746007222"><ele>9.0</ele><time>2026-04-05T15:09:15Z</time></trkpt><trkpt lat="39.299802870221704" lon="9.610717335867886"><ele>9.666666666666666</ele><time>2026-04-05T15:09:16Z</time></trkpt><trkpt lat="39.300028183816764" lon="9.610724187988867"><ele>10.333333333333332</ele><time>2026-04-05T15:09:17Z</time></trkpt><trkpt lat="39.30024910102809" lon="9.610732526331601"><ele>11.0</ele><time>2026-04-05T15:09:18Z</time></trkpt><trkpt lat="39.300470077276636" lon="9.610740501814972"><ele>12.0</ele><time>2026-04-05T15:09:19Z</time></trkpt><trkpt lat="39.30068366135468" lon="9.610746558747834"><ele>13.0</ele><time>2026-04-05T15:09:20Z</time></trkpt><trkpt lat="39.3008889318253" lon="9.610757712532694"><ele>14.0</ele><time>2026-04-05T15:09:21Z</time></trkpt><trkpt lat="39.30108423896909" lon="9.610794004859349"><ele>14.0</ele><time>2026-04-05T15:09:22Z</time></trkpt><trkpt lat="39.30127997827044" lon="9.61085388151175"><ele>14.0</ele><time>2026-04-05T15:09:23Z</time></trkpt><trkpt lat="39.30146947010409" lon="9.610936649553981"><ele>14.0</ele><time>2026-04-05T15:09:24Z</time></trkpt><trkpt lat="39.301654766047115" lon="9.611009459701993"><ele>15.0</ele><time>2026-04-05T15:09:25Z</time></trkpt><trkpt lat="39.30181907684828" lon="9.611056953432994"><ele>16.0</ele><time>2026-04-05T15:09:26Z</time></trkpt><trkpt lat="39.30196649924382" lon="9.61107022672524"><ele>17.0</ele><time>2026-04-05T15:09:27Z</time></trkpt><trkpt lat="39.30209518578519" lon="9.611037900287227"><ele>18.0</ele><time>2026-04-05T15:09:28Z</time></trkpt><trkpt lat="39.30220393441502" lon="9.61094930784598"><ele>19.25</ele><time>2026-04-05T15:09:29Z</time></trkpt><trkpt lat="39.30229138947659" lon="9.610805644506547"><ele>20.5</ele><time>2026-04-05T15:09:30Z</time></trkpt><trkpt lat="39.3023608720763" lon="9.61063202158273"><ele>21.75</ele><time>2026-04-05T15:09:31Z</time></trkpt><trkpt lat="39.3024465644622" lon="9.610469386615382"><ele>23.0</ele><time>2026-04-05T15:09:32Z</time></trkpt><trkpt lat="39.302550790118396" lon="9.6103386897617"><ele>24.5</ele><time>2026-04-05T15:09:33Z</time></trkpt><trkpt lat="39.30266825986315" lon="9.610237649618863"><ele>26.0</ele><time>2026-04-05T15:09:34Z</time></trkpt><trkpt lat="39.30281490485086" lon="9.610205732696372"><ele>27.5</ele><time>2026-04-05T15:09:35Z</time></trkpt><trkpt lat="39.302970838988415" lon="9.61016229671448"><ele>29.0</ele><time>2026-04-05T15:09:36Z</time></trkpt><trkpt lat="39.30313373269395" lon="9.610130287062088"><ele>32.33333333333333</ele><time>2026-04-05T15:09:37Z</time></trkpt><trkpt lat="39.3032933250514" lon="9.610079774767373"><ele>35.666666666666664</ele><time>2026-04-05T15:09:38Z</time></trkpt><trkpt lat="39.30343591351792" lon="9.61002053880648"><ele>39.0</ele><time>2026-04-05T15:09:39Z</time></trkpt><trkpt lat="39.30356132030423" lon="9.609910358374345"><ele>39.0</ele><time>2026-04-05T15:09:40Z</time></trkpt><trkpt lat="39.30366486490522" lon="9.609750988950918"><ele>39.0</ele><time>2026-04-05T15:09:41Z</time></trkpt><trkpt lat="39.30376234982286" lon="9.609583399425052"><ele>39.0</ele><time>2026-04-05T15:09:42Z</time></trkpt><trkpt lat="39.30388804217047" lon="9.609458422466544"><ele>44.0</ele><time>2026-04-05T15:09:43Z</time></trkpt><trkpt lat="39.304049710004286" lon="9.609392132535678"><ele>49.0</ele><time>2026-04-05T15:09:44Z</time></trkpt><trkpt lat="39.30422976366372" lon="9.609350744029774"><ele>54.0</ele><time>2026-04-05T15:09:45Z</time></trkpt><trkpt lat="39.30441169792954" lon="9.609311617790544"><ele>54.0</ele><time>2026-04-05T15:09:46Z</time></trkpt><trkpt lat="39.30459353904417" lon="9.609267053771468"><ele>54.0</ele><time>2026-04-05T15:09:47Z</time></trkpt><trkpt lat="39.30477690803321" lon="9.609221574816827"><ele>54.0</ele><time>2026-04-05T15:09:48Z</time></trkpt><trkpt lat="39.30495206780429" lon="9.60917277374629"><ele>55.0</ele><time>2026-04-05T15:09:49Z</time></trkpt><trkpt lat="39.30511273391426" lon="9.609096335061292"><ele>56.0</ele><time>2026-04-05T15:09:50Z</time></trkpt><trkpt lat="39.30524656523458" lon="9.608973576421194"><ele>57.0</ele><time>2026-04-05T15:09:51Z</time></trkpt><trkpt lat="39.30536950400498" lon="9.608855549712516"><ele>57.0</ele><time>2026-04-05T15:09:52Z</time></trkpt><trkpt lat="39.30550827900162" lon="9.608784331139569"><ele>57.0</ele><time>2026-04-05T15:09:53Z</time></trkpt><trkpt lat="39.30566004164237" lon="9.608783287034033"><ele>57.0</ele><time>2026-04-05T15:09:54Z</time></trkpt><trkpt lat="39.30582402557417" lon="9.608806544519457"><ele>60.0</ele><time>2026-04-05T15:09:55Z</time></trkpt><trkpt lat="39.305999243283125" lon="9.608831956965163"><ele>63.0</ele><time>2026-04-05T15:09:56Z</time></trkpt><trkpt lat="39.306172718549874" lon="9.608856151185666"><ele>66.0</ele><time>2026-04-05T15:09:57Z</time></trkpt><trkpt lat="39.30634984418735" lon="9.608881148564217"><ele>68.66666666666667</ele><time>2026-04-05T15:09:58Z</time></trkpt><trkpt lat="39.30652155973295" lon="9.608906453262739"><ele>71.33333333333334</ele><time>2026-04-05T15:09:59Z</time></trkpt><trkpt lat="39.30668376669637" lon="9.608930390124854"><ele>74.0</ele><time>2026-04-05T15:10:00Z</time></trkpt><trkpt lat="39.30682935216121" lon="9.60894681303511"><ele>74.0</ele><time>2026-04-05T15:10:01Z</time></trkpt><trkpt lat="39.306966398276565" lon="9.608952309512635"><ele>74.0</ele><time>2026-04-05T15:10:02Z</time></trkpt><trkpt lat="39.30710686336204" lon="9.60894802994754"><ele>74.0</ele><time>2026-04-05T15:10:03Z</time></trkpt><trkpt lat="39.30725285707077" lon="9.608952934741128"><ele>74.0</ele><time>2026-04-05T15:10:04Z</time></trkpt><trkpt lat="39.30739034673946" lon="9.608912141706712"><ele>73.5</ele><time>2026-04-05T15:10:05Z</time></trkpt><trkpt lat="39.30751909586447" lon="9.608854441006642"><ele>73.0</ele><time>2026-04-05T15:10:06Z</time></trkpt><trkpt lat="39.307639396990574" lon="9.608796579492832"><ele>72.5</ele><time>2026-04-05T15:10:07Z</time></trkpt><trkpt lat="39.307738135334354" lon="9.608756633215295"><ele>72.0</ele><time>2026-04-05T15:10:08Z</time></trkpt><trkpt lat="39.307836952785095" lon="9.608726756190617"><ele>72.0</ele><time>2026-04-05T15:10:09Z</time></trkpt><trkpt lat="39.30792494996974" lon="9.608707420632559"><ele>72.0</ele><time>2026-04-05T15:10:10Z</time></trkpt><trkpt lat="39.30800967488138" lon="9.60868563853036"><ele>72.0</ele><time>2026-04-05T15:10:11Z</time></trkpt><trkpt lat="39.30809502763956" lon="9.608659766818658"><ele>72.0</ele><time>2026-04-05T15:10:12Z</time></trkpt><trkpt lat="39.30817823072052" lon="9.608643061700581"><ele>72.0</ele><time>2026-04-05T15:10:13Z</time></trkpt><trkpt lat="39.30826338377066" lon="9.608645794860823"><ele>72.0</ele><time>2026-04-05T15:10:14Z</time></trkpt><trkpt lat="39.30834382566199" lon="9.608638427878468"><ele>73.16666666666667</ele><time>2026-04-05T15:10:15Z</time></trkpt><trkpt lat="39.30842284197896" lon="9.6086415100716"><ele>74.33333333333333</ele><time>2026-04-05T15:10:16Z</time></trkpt><trkpt lat="39.3085052882531" lon="9.608628608081451"><ele>75.5</ele><time>2026-04-05T15:10:17Z</time></trkpt><trkpt lat="39.30858906009409" lon="9.608627713840272"><ele>76.66666666666666</ele><time>2026-04-05T15:10:18Z</time></trkpt><trkpt lat="39.308668259075915" lon="9.608609676666998"><ele>77.83333333333333</ele><time>2026-04-05T15:10:19Z</time></trkpt><trkpt lat="39.30873416764195" lon="9.608573446989006"><ele>79.0</ele><time>2026-04-05T15:10:20Z</time></trkpt><trkpt lat="39.30879460007456" lon="9.60852240644439"><ele>79.0</ele><time>2026-04-05T15:10:21Z</time></trkpt><trkpt lat="39.30884715753409" lon="9.6084614856482"><ele>79.0</ele><time>2026-04-05T15:10:22Z</time></trkpt><trkpt lat="39.308890838256204" lon="9.608382288111603"><ele>79.0</ele><time>2026-04-05T15:10:23Z</time></trkpt><trkpt lat="39.30892528967424" lon="9.608290712240645"><ele>79.0</ele><time>2026-04-05T15:10:24Z</time></trkpt><trkpt lat="39.308943188414126" lon="9.608194342417187"><ele>79.0</ele><time>2026-04-05T15:10:25Z</time></trkpt><trkpt lat="39.308906754201324" lon="9.608101842522316"><ele>79.0</ele><time>2026-04-05T15:10:26Z</time></trkpt><trkpt lat="39.308858797226364" lon="9.608032238140668"><ele>79.0</ele><time>2026-04-05T15:10:27Z</time></trkpt><trkpt lat="39.30878860926079" lon="9.607978506886267"><ele>79.0</ele><time>2026-04-05T15:10:28Z</time></trkpt><trkpt lat="39.308707764653775" lon="9.607932949599189"><ele>79.0</ele><time>2026-04-05T15:10:29Z</time></trkpt><trkpt lat="39.308638512222615" lon="9.60784864731252"><ele>79.0</ele><time>2026-04-05T15:10:30Z</time></trkpt><trkpt lat="39.30856882816148" lon="9.607771793501449"><ele>79.0</ele><time>2026-04-05T15:10:31Z</time></trkpt><trkpt lat="39.308505523561294" lon="9.6076865474366"><ele>79.0</ele><time>2026-04-05T15:10:32Z</time></trkpt><trkpt lat="39.30843506140415" lon="9.607615006411317"><ele>80.4</ele><time>2026-04-05T15:10:33Z</time></trkpt><trkpt lat="39.30837225139118" lon="9.60755115331825"><ele>81.80000000000001</ele><time>2026-04-05T15:10:34Z</time></trkpt><trkpt lat="39.30830506568632" lon="9.607500593182387"><ele>83.19999999999999</ele><time>2026-04-05T15:10:35Z</time></trkpt><trkpt lat="39.308221207562994" lon="9.607533074704405"><ele>84.6</ele><time>2026-04-05T15:10:36Z</time></trkpt><trkpt lat="39.30811753744558" lon="9.607524325356149"><ele>86.0</ele><time>2026-04-05T15:10:38Z</time></trkpt><trkpt lat="39.30806329954645" lon="9.60741092873566"><ele>83.5</ele><time>2026-04-05T15:10:40Z</time></trkpt><trkpt lat="39.30809460106687" lon="9.607330458241822"><ele>81.0</ele><time>2026-04-05T15:10:41Z</time></trkpt><trkpt lat="39.30810768868919" lon="9.607245153588131"><ele>78.5</ele><time>2026-04-05T15:10:42Z</time></trkpt><trkpt lat="39.30814779892973" lon="9.607139077158106"><ele>76.0</ele><time>2026-04-05T15:10:43Z</time></trkpt><trkpt lat="39.30817509391726" lon="9.607020694044175"><ele>73.5</ele><time>2026-04-05T15:10:44Z</time></trkpt><trkpt lat="39.308204939104755" lon="9.606895031131078"><ele>71.0</ele><time>2026-04-05T15:10:45Z</time></trkpt><trkpt lat="39.30820277327575" lon="9.606773075701698"><ele>70.0</ele><time>2026-04-05T15:10:46Z</time></trkpt><trkpt lat="39.30819457864931" lon="9.606666058657401"><ele>69.0</ele><time>2026-04-05T15:10:47Z</time></trkpt><trkpt lat="39.30819017799291" lon="9.606579554650652"><ele>68.0</ele><time>2026-04-05T15:10:48Z</time></trkpt><trkpt lat="39.3082418993721" lon="9.606474357171317"><ele>67.0</ele><time>2026-04-05T15:10:50Z</time></trkpt><trkpt lat="39.30833368806751" lon="9.606466239639705"><ele>66.0</ele><time>2026-04-05T15:10:52Z</time></trkpt><trkpt lat="39.30839691743423" lon="9.606469679659183"><ele>65.0</ele><time>2026-04-05T15:10:53Z</time></trkpt><trkpt lat="39.30847189887661" lon="9.60647596122794"><ele>65.0</ele><time>2026-04-05T15:10:54Z</time></trkpt><trkpt lat="39.30854465409203" lon="9.606474968567072"><ele>65.0</ele><time>2026-04-05T15:10:55Z</time></trkpt><trkpt lat="39.308644190191664" lon="9.60646271035985"><ele>65.0</ele><time>2026-04-05T15:10:57Z</time></trkpt><trkpt lat="39.30870470151798" lon="9.606538607536653"><ele>65.0</ele><time>2026-04-05T15:10:59Z</time></trkpt><trkpt lat="39.30868680097783" lon="9.606647801327364"><ele>65.0</ele><time>2026-04-05T15:11:01Z</time></trkpt><trkpt lat="39.30858853983742" lon="9.606696221259874"><ele>65.0</ele><time>2026-04-05T15:11:03Z</time></trkpt><trkpt lat="39.308512909595194" lon="9.606791905270413"><ele>65.0</ele><time>2026-04-05T15:11:05Z</time></trkpt><trkpt lat="39.308567758120546" lon="9.606939922472574"><ele>65.0</ele><time>2026-04-05T15:11:07Z</time></trkpt><trkpt lat="39.30862482421096" lon="9.606981513723078"><ele>65.0</ele><time>2026-04-05T15:11:08Z</time></trkpt><trkpt lat="39.30870170596032" lon="9.607001420738944"><ele>65.0</ele><time>2026-04-05T15:11:09Z</time></trkpt><trkpt lat="39.30879530753575" lon="9.606995583886093"><ele>65.0</ele><time>2026-04-05T15:11:10Z</time></trkpt><trkpt lat="39.3088967828562" lon="9.606982252693113"><ele>63.8</ele><time>2026-04-05T15:11:11Z</time></trkpt><trkpt lat="39.30900458833471" lon="9.606969814535363"><ele>62.6</ele><time>2026-04-05T15:11:12Z</time></trkpt><trkpt lat="39.309105219268005" lon="9.606968091202575"><ele>61.400000000000006</ele><time>2026-04-05T15:11:13Z</time></trkpt><trkpt lat="39.30919574155787" lon="9.606965293457609"><ele>60.2</ele><time>2026-04-05T15:11:14Z</time></trkpt><trkpt lat="39.3092788222468" lon="9.606976887151932"><ele>59.0</ele><time>2026-04-05T15:11:15Z</time></trkpt><trkpt lat="39.3093601639607" lon="9.60701904831664"><ele>59.0</ele><time>2026-04-05T15:11:16Z</time></trkpt><trkpt lat="39.30942790782811" lon="9.607099588131229"><ele>59.00000000000001</ele><time>2026-04-05T15:11:17Z</time></trkpt><trkpt lat="39.30949935176941" lon="9.607214747090714"><ele>59.00000000000001</ele><time>2026-04-05T15:11:18Z</time></trkpt><trkpt lat="39.30956610789419" lon="9.607338673422873"><ele>59.0</ele><time>2026-04-05T15:11:19Z</time></trkpt><trkpt lat="39.30962580634355" lon="9.607452054362605"><ele>59.0</ele><time>2026-04-05T15:11:20Z</time></trkpt><trkpt lat="39.3096840110879" lon="9.607537624813798"><ele>57.6</ele><time>2026-04-05T15:11:21Z</time></trkpt><trkpt lat="39.30974731073217" lon="9.607592244658665"><ele>56.2</ele><time>2026-04-05T15:11:22Z</time></trkpt><trkpt lat="39.30981542405261" lon="9.6076125998807"><ele>54.800000000000004</ele><time>2026-04-05T15:11:23Z</time></trkpt><trkpt lat="39.30993139517957" lon="9.60754606466525"><ele>53.400000000000006</ele><time>2026-04-05T15:11:25Z</time></trkpt><trkpt lat="39.309989977056034" lon="9.60745936344881"><ele>52.0</ele><time>2026-04-05T15:11:26Z</time></trkpt><trkpt lat="39.31006013219777" lon="9.607364730597967"><ele>52.0</ele><time>2026-04-05T15:11:27Z</time></trkpt><trkpt lat="39.31015258130096" lon="9.607288816774492"><ele>52.0</ele><time>2026-04-05T15:11:28Z</time></trkpt><trkpt lat="39.31024759278329" lon="9.607245220929306"><ele>52.0</ele><time>2026-04-05T15:11:29Z</time></trkpt><trkpt lat="39.31034714583977" lon="9.607224636547045"><ele>52.0</ele><time>2026-04-05T15:11:30Z</time></trkpt><trkpt lat="39.3104446692979" lon="9.60722804890523"><ele>52.0</ele><time>2026-04-05T15:11:31Z</time></trkpt><trkpt lat="39.310521436165295" lon="9.607219748325232"><ele>51.0</ele><time>2026-04-05T15:11:32Z</time></trkpt><trkpt lat="39.31058834695495" lon="9.607167920569704"><ele>50.0</ele><time>2026-04-05T15:11:33Z</time></trkpt><trkpt lat="39.31063513260241" lon="9.607079423475708"><ele>49.0</ele><time>2026-04-05T15:11:34Z</time></trkpt><trkpt lat="39.31067259871564" lon="9.606952896604163"><ele>48.0</ele><time>2026-04-05T15:11:35Z</time></trkpt><trkpt lat="39.31072382567572" lon="9.606814671455467"><ele>47.0</ele><time>2026-04-05T15:11:36Z</time></trkpt><trkpt lat="39.310793305016325" lon="9.606689478109256"><ele>47.0</ele><time>2026-04-05T15:11:37Z</time></trkpt><trkpt lat="39.31087213247491" lon="9.606577480724411"><ele>47.0</ele><time>2026-04-05T15:11:38Z</time></trkpt><trkpt lat="39.31094515416981" lon="9.606472855861512"><ele>47.0</ele><time>2026-04-05T15:11:39Z</time></trkpt><trkpt lat="39.3110216960757" lon="9.606390479508304"><ele>47.0</ele><time>2026-04-05T15:11:40Z</time></trkpt><trkpt lat="39.31110640035344" lon="9.606338477069743"><ele>47.0</ele><time>2026-04-05T15:11:41Z</time></trkpt><trkpt lat="39.311204535458856" lon="9.606311053019624"><ele>47.0</ele><time>2026-04-05T15:11:42Z</time></trkpt><trkpt lat="39.31131940232039" lon="9.606303876658973"><ele>47.0</ele><time>2026-04-05T15:11:43Z</time></trkpt><trkpt lat="39.3114260825653" lon="9.606300963466756"><ele>47.0</ele><time>2026-04-05T15:11:44Z</time></trkpt><trkpt lat="39.31151795270828" lon="9.60628874069916"><ele>47.0</ele><time>2026-04-05T15:11:45Z</time></trkpt><trkpt lat="39.31160128827726" lon="9.606287280197861"><ele>47.0</ele><time>2026-04-05T15:11:46Z</time></trkpt><trkpt lat="39.311676608896576" lon="9.606316748171018"><ele>47.400000000000006</ele><time>2026-04-05T15:11:47Z</time></trkpt><trkpt lat="39.31175713364116" lon="9.606370031559539"><ele>47.800000000000004</ele><time>2026-04-05T15:11:48Z</time></trkpt><trkpt lat="39.311845223065795" lon="9.606439106072187"><ele>48.2</ele><time>2026-04-05T15:11:49Z</time></trkpt><trkpt lat="39.311933028899006" lon="9.606506020660255"><ele>48.6</ele><time>2026-04-05T15:11:50Z</time></trkpt><trkpt lat="39.31203308611208" lon="9.606562565633274"><ele>49.0</ele><time>2026-04-05T15:11:51Z</time></trkpt><trkpt lat="39.31213651992431" lon="9.6065916970661"><ele>48.99999999999999</ele><time>2026-04-05T15:11:52Z</time></trkpt><trkpt lat="39.31223752676192" lon="9.606595470603017"><ele>49.0</ele><time>2026-04-05T15:11:53Z</time></trkpt><trkpt lat="39.31231657214687" lon="9.60657776980653"><ele>49.0</ele><time>2026-04-05T15:11:54Z</time></trkpt><trkpt lat="39.31237893372919" lon="9.60655437625231"><ele>49.0</ele><time>2026-04-05T15:11:55Z</time></trkpt><trkpt lat="39.312485395849315" lon="9.606580133955308"><ele>48.99999999999999</ele><time>2026-04-05T15:11:57Z</time></trkpt><trkpt lat="39.31252866604609" lon="9.60664546258795"><ele>49.0</ele><time>2026-04-05T15:11:58Z</time></trkpt><trkpt lat="39.31253560537714" lon="9.60674928788848"><ele>47.666666666666664</ele><time>2026-04-05T15:11:59Z</time></trkpt><trkpt lat="39.3125916258347" lon="9.606821813274703"><ele>46.33333333333333</ele><time>2026-04-05T15:12:00Z</time></trkpt><trkpt lat="39.31264582768974" lon="9.606928898649468"><ele>45.0</ele><time>2026-04-05T15:12:01Z</time></trkpt><trkpt lat="39.31270822215915" lon="9.607027760943637"><ele>43.666666666666664</ele><time>2026-04-05T15:12:02Z</time></trkpt><trkpt lat="39.31277413192231" lon="9.607103192202505"><ele>42.33333333333333</ele><time>2026-04-05T15:12:03Z</time></trkpt><trkpt lat="39.31282408261676" lon="9.6071907022312"><ele>41.0</ele><time>2026-04-05T15:12:04Z</time></trkpt><trkpt lat="39.312881302125724" lon="9.607257800371812"><ele>41.0</ele><time>2026-04-05T15:12:05Z</time></trkpt><trkpt lat="39.312924142545825" lon="9.60732462531725"><ele>41.0</ele><time>2026-04-05T15:12:06Z</time></trkpt><trkpt lat="39.31288937102489" lon="9.60741452846373"><ele>41.0</ele><time>2026-04-05T15:12:07Z</time></trkpt><trkpt lat="39.31285526234311" lon="9.607487297056839"><ele>41.0</ele><time>2026-04-05T15:12:08Z</time></trkpt><trkpt lat="39.31284241984721" lon="9.607643241160286"><ele>41.0</ele><time>2026-04-05T15:12:10Z</time></trkpt><trkpt lat="39.31287165092198" lon="9.60771580769245"><ele>41.0</ele><time>2026-04-05T15:12:11Z</time></trkpt><trkpt lat="39.312944746082316" lon="9.607750379487696"><ele>41.0</ele><time>2026-04-05T15:12:12Z</time></trkpt><trkpt lat="39.31300947305953" lon="9.607767627249563"><ele>41.0</ele><time>2026-04-05T15:12:13Z</time></trkpt><trkpt lat="39.31308159270455" lon="9.607755477586588"><ele>41.0</ele><time>2026-04-05T15:12:14Z</time></trkpt><trkpt lat="39.31315582344171" lon="9.607714524257107"><ele>41.0</ele><time>2026-04-05T15:12:15Z</time></trkpt><trkpt lat="39.31323417416932" lon="9.60765446639483"><ele>41.0</ele><time>2026-04-05T15:12:16Z</time></trkpt><trkpt lat="39.31331783495214" lon="9.607581591568913"><ele>41.0</ele><time>2026-04-05T15:12:17Z</time></trkpt><trkpt lat="39.313417238690214" lon="9.607528290095397"><ele>39.0</ele><time>2026-04-05T15:12:18Z</time></trkpt><trkpt lat="39.31349289403085" lon="9.60745241134832"><ele>37.0</ele><time>2026-04-05T15:12:19Z</time></trkpt><trkpt lat="39.31356143092891" lon="9.607411956749733"><ele>35.0</ele><time>2026-04-05T15:12:20Z</time></trkpt><trkpt lat="39.31363483643709" lon="9.607412023326114"><ele>33.0</ele><time>2026-04-05T15:12:21Z</time></trkpt><trkpt lat="39.31371517498475" lon="9.607307497238114"><ele>30.999999999999996</ele><time>2026-04-05T15:12:23Z</time></trkpt><trkpt lat="39.31376513129268" lon="9.607252986878645"><ele>29.0</ele><time>2026-04-05T15:12:24Z</time></trkpt><trkpt lat="39.31379612475735" lon="9.607170416858407"><ele>29.0</ele><time>2026-04-05T15:12:25Z</time></trkpt><trkpt lat="39.313811171587204" lon="9.607059008207756"><ele>29.0</ele><time>2026-04-05T15:12:26Z</time></trkpt><trkpt lat="39.313813113340416" lon="9.60692790941414"><ele>29.0</ele><time>2026-04-05T15:12:27Z</time></trkpt><trkpt lat="39.31381809264803" lon="9.60677990818616"><ele>29.0</ele><time>2026-04-05T15:12:28Z</time></trkpt><trkpt lat="39.31383381297422" lon="9.606629292273377"><ele>29.0</ele><time>2026-04-05T15:12:29Z</time></trkpt><trkpt lat="39.31385795404623" lon="9.606471852930463"><ele>28.6</ele><time>2026-04-05T15:12:30Z</time></trkpt><trkpt lat="39.31388995309986" lon="9.606316675659079"><ele>28.2</ele><time>2026-04-05T15:12:31Z</time></trkpt><trkpt lat="39.3139199976833" lon="9.60617465643242"><ele>27.800000000000004</ele><time>2026-04-05T15:12:32Z</time></trkpt><trkpt lat="39.31395906000893" lon="9.60604350882624"><ele>27.400000000000002</ele><time>2026-04-05T15:12:33Z</time></trkpt><trkpt lat="39.314003448649586" lon="9.60592658471373"><ele>27.0</ele><time>2026-04-05T15:12:34Z</time></trkpt><trkpt lat="39.31407996037186" lon="9.605846426101749"><ele>26.5</ele><time>2026-04-05T15:12:35Z</time></trkpt><trkpt lat="39.31415379279411" lon="9.605755221460369"><ele>26.0</ele><time>2026-04-05T15:12:36Z</time></trkpt><trkpt lat="39.314212669280614" lon="9.605655566989242"><ele>25.5</ele><time>2026-04-05T15:12:37Z</time></trkpt><trkpt lat="39.3142770205019" lon="9.605585020427998"><ele>25.0</ele><time>2026-04-05T15:12:38Z</time></trkpt><trkpt lat="39.31432616591573" lon="9.60553411638458"><ele>24.5</ele><time>2026-04-05T15:12:39Z</time></trkpt><trkpt lat="39.31437356706572" lon="9.605424168138862"><ele>24.0</ele><time>2026-04-05T15:12:41Z</time></trkpt><trkpt lat="39.3143410419323" lon="9.605296935735987"><ele>23.5</ele><time>2026-04-05T15:12:43Z</time></trkpt><trkpt lat="39.31428909393833" lon="9.605244454033949"><ele>23.0</ele><time>2026-04-05T15:12:44Z</time></trkpt><trkpt lat="39.31422336781791" lon="9.60518706852695"><ele>22.5</ele><time>2026-04-05T15:12:45Z</time></trkpt><trkpt lat="39.31416645155848" lon="9.60512303447349"><ele>22.0</ele><time>2026-04-05T15:12:46Z</time></trkpt><trkpt lat="39.314147429030925" lon="9.605024807510151"><ele>21.5</ele><time>2026-04-05T15:12:47Z</time></trkpt><trkpt lat="39.314116275317176" lon="9.60491160222868"><ele>21.0</ele><time>2026-04-05T15:12:48Z</time></trkpt><trkpt lat="39.31411098097278" lon="9.604771220397335"><ele>21.0</ele><time>2026-04-05T15:12:49Z</time></trkpt><trkpt lat="39.31410688167143" lon="9.604623341667406"><ele>21.0</ele><time>2026-04-05T15:12:50Z</time></trkpt><trkpt lat="39.31410803186219" lon="9.604480381737531"><ele>21.0</ele><time>2026-04-05T15:12:51Z</time></trkpt><trkpt lat="39.314132875104534" lon="9.60434934031682"><ele>21.0</ele><time>2026-04-05T15:12:52Z</time></trkpt><trkpt lat="39.3141876255943" lon="9.604237187685793"><ele>21.0</ele><time>2026-04-05T15:12:53Z</time></trkpt><trkpt lat="39.314244103366676" lon="9.604123330122354"><ele>19.75</ele><time>2026-04-05T15:12:54Z</time></trkpt><trkpt lat="39.31431489510164" lon="9.603996693938065"><ele>18.5</ele><time>2026-04-05T15:12:55Z</time></trkpt><trkpt lat="39.31438759862846" lon="9.603852793434648"><ele>17.25</ele><time>2026-04-05T15:12:56Z</time></trkpt><trkpt lat="39.314467602584585" lon="9.603723783307913"><ele>16.0</ele><time>2026-04-05T15:12:57Z</time></trkpt><trkpt lat="39.31454214329525" lon="9.603600010791917"><ele>15.200000000000001</ele><time>2026-04-05T15:12:58Z</time></trkpt><trkpt lat="39.3146238662803" lon="9.603486227337257"><ele>14.400000000000002</ele><time>2026-04-05T15:12:59Z</time></trkpt><trkpt lat="39.31471269441141" lon="9.603396492407313"><ele>13.6</ele><time>2026-04-05T15:13:00Z</time></trkpt><trkpt lat="39.314791952267285" lon="9.603333152814482"><ele>12.8</ele><time>2026-04-05T15:13:01Z</time></trkpt><trkpt lat="39.3148639775717" lon="9.603297743068563"><ele>12.0</ele><time>2026-04-05T15:13:02Z</time></trkpt><trkpt lat="39.31493077950557" lon="9.603278527447888"><ele>12.0</ele><time>2026-04-05T15:13:03Z</time></trkpt><trkpt lat="39.314994512477654" lon="9.603316801134504"><ele>12.0</ele><time>2026-04-05T15:13:04Z</time></trkpt><trkpt lat="39.315063867258935" lon="9.603361993117709"><ele>12.0</ele><time>2026-04-05T15:13:05Z</time></trkpt><trkpt lat="39.3151388345701" lon="9.603411400424097"><ele>12.0</ele><time>2026-04-05T15:13:06Z</time></trkpt><trkpt lat="39.31523753926692" lon="9.603467634237196"><ele>12.0</ele><time>2026-04-05T15:13:07Z</time></trkpt><trkpt lat="39.3153269570664" lon="9.603558879176042"><ele>12.0</ele><time>2026-04-05T15:13:08Z</time></trkpt><trkpt lat="39.31540921816356" lon="9.603634880580117"><ele>12.0</ele><time>2026-04-05T15:13:09Z</time></trkpt><trkpt lat="39.31547811497308" lon="9.60371234803103"><ele>12.0</ele><time>2026-04-05T15:13:10Z</time></trkpt><trkpt lat="39.31554464872971" lon="9.60381027548082"><ele>12.0</ele><time>2026-04-05T15:13:11Z</time></trkpt><trkpt lat="39.31560187713374" lon="9.603926659896706"><ele>12.0</ele><time>2026-04-05T15:13:12Z</time></trkpt><trkpt lat="39.31565323113506" lon="9.604036341549032"><ele>11.8</ele><time>2026-04-05T15:13:13Z</time></trkpt><trkpt lat="39.31571009694663" lon="9.604104211163369"><ele>11.6</ele><time>2026-04-05T15:13:14Z</time></trkpt><trkpt lat="39.3158257799748" lon="9.604166853475242"><ele>11.4</ele><time>2026-04-05T15:13:16Z</time></trkpt><trkpt lat="39.31589513797282" lon="9.604165951661413"><ele>11.200000000000001</ele><time>2026-04-05T15:13:17Z</time></trkpt><trkpt lat="39.31595884560459" lon="9.6040771725694"><ele>11.0</ele><time>2026-04-05T15:13:18Z</time></trkpt><trkpt lat="39.316013062755424" lon="9.603983965101113"><ele>11.0</ele><time>2026-04-05T15:13:19Z</time></trkpt><trkpt lat="39.31606425116661" lon="9.60386271772554"><ele>11.0</ele><time>2026-04-05T15:13:20Z</time></trkpt><trkpt lat="39.31611788620722" lon="9.603728500841964"><ele>11.0</ele><time>2026-04-05T15:13:21Z</time></trkpt><trkpt lat="39.316179370958444" lon="9.603600843260647"><ele>11.0</ele><time>2026-04-05T15:13:22Z</time></trkpt><trkpt lat="39.31623553819773" lon="9.603487088123478"><ele>11.0</ele><time>2026-04-05T15:13:23Z</time></trkpt><trkpt lat="39.316282474398136" lon="9.60340746451599"><ele>10.333333333333332</ele><time>2026-04-05T15:13:24Z</time></trkpt><trkpt lat="39.316338580614385" lon="9.603361521962256"><ele>9.666666666666666</ele><time>2026-04-05T15:13:25Z</time></trkpt><trkpt lat="39.31641794387167" lon="9.60327713315958"><ele>9.0</ele><time>2026-04-05T15:13:27Z</time></trkpt><trkpt lat="39.316533439315855" lon="9.603278818281487"><ele>8.333333333333334</ele><time>2026-04-05T15:13:29Z</time></trkpt><trkpt lat="39.31659670904766" lon="9.603309987698163"><ele>7.666666666666667</ele><time>2026-04-05T15:13:30Z</time></trkpt><trkpt lat="39.31665748867085" lon="9.603352250137949"><ele>7.0</ele><time>2026-04-05T15:13:31Z</time></trkpt><trkpt lat="39.31671667819786" lon="9.60340951629108"><ele>6.833333333333334</ele><time>2026-04-05T15:13:32Z</time></trkpt><trkpt lat="39.31679229147108" lon="9.60346164957198"><ele>6.666666666666667</ele><time>2026-04-05T15:13:33Z</time></trkpt><trkpt lat="39.316864445888974" lon="9.603525402227964"><ele>6.5</ele><time>2026-04-05T15:13:34Z</time></trkpt><trkpt lat="39.31694881720274" lon="9.603565792296143"><ele>6.333333333333334</ele><time>2026-04-05T15:13:35Z</time></trkpt><trkpt lat="39.31703740046638" lon="9.603575428064088"><ele>6.166666666666667</ele><time>2026-04-05T15:13:36Z</time></trkpt><trkpt lat="39.31712046598048" lon="9.60355378242145"><ele>6.0</ele><time>2026-04-05T15:13:37Z</time></trkpt><trkpt lat="39.31719726075969" lon="9.603502795830352"><ele>5.8</ele><time>2026-04-05T15:13:38Z</time></trkpt><trkpt lat="39.317266856372555" lon="9.60342368201742"><ele>5.6</ele><time>2026-04-05T15:13:39Z</time></trkpt><trkpt lat="39.317334902777" lon="9.603316117318421"><ele>5.4</ele><time>2026-04-05T15:13:40Z</time></trkpt><trkpt lat="39.31740406363516" lon="9.603206168014829"><ele>5.2</ele><time>2026-04-05T15:13:41Z</time></trkpt><trkpt lat="39.31747143864288" lon="9.603109863899638"><ele>5.0</ele><time>2026-04-05T15:13:42Z</time></trkpt><trkpt lat="39.31754590137389" lon="9.60300828307775"><ele>5.0</ele><time>2026-04-05T15:13:43Z</time></trkpt><trkpt lat="39.317622043780815" lon="9.6028986006906"><ele>5.0</ele><time>2026-04-05T15:13:44Z</time></trkpt><trkpt lat="39.3177007141467" lon="9.602788535645306"><ele>5.0</ele><time>2026-04-05T15:13:45Z</time></trkpt><trkpt lat="39.31778090237432" lon="9.602678056916906"><ele>5.0</ele><time>2026-04-05T15:13:46Z</time></trkpt><trkpt lat="39.31786403989219" lon="9.602570604508978"><ele>4.75</ele><time>2026-04-05T15:13:47Z</time></trkpt><trkpt lat="39.31794803115459" lon="9.60246591501767"><ele>4.5</ele><time>2026-04-05T15:13:48Z</time></trkpt><trkpt lat="39.31803477495026" lon="9.602354446280977"><ele>4.25</ele><time>2026-04-05T15:13:49Z</time></trkpt><trkpt lat="39.31812261843637" lon="9.602238966767171"><ele>4.0</ele><time>2026-04-05T15:13:50Z</time></trkpt><trkpt lat="39.31820950693107" lon="9.602126939191052"><ele>4.0</ele><time>2026-04-05T15:13:51Z</time></trkpt><trkpt lat="39.31829487995972" lon="9.602018284747974"><ele>4.0</ele><time>2026-04-05T15:13:52Z</time></trkpt><trkpt lat="39.318380197456136" lon="9.601904852336402"><ele>4.0</ele><time>2026-04-05T15:13:53Z</time></trkpt><trkpt lat="39.31846782410374" lon="9.601785526584399"><ele>4.0</ele><time>2026-04-05T15:13:54Z</time></trkpt><trkpt lat="39.318555269638786" lon="9.601668836750527"><ele>4.5</ele><time>2026-04-05T15:13:55Z</time></trkpt><trkpt lat="39.31863929806649" lon="9.601552076429341"><ele>5.0</ele><time>2026-04-05T15:13:56Z</time></trkpt><trkpt lat="39.318723592886" lon="9.601446940863262"><ele>5.5</ele><time>2026-04-05T15:13:57Z</time></trkpt><trkpt lat="39.31881819431224" lon="9.601348977040852"><ele>6.0</ele><time>2026-04-05T15:13:58Z</time></trkpt><trkpt lat="39.31888943816256" lon="9.601225576955203"><ele>6.0</ele><time>2026-04-05T15:13:59Z</time></trkpt><trkpt lat="39.31897545703729" lon="9.601112137557662"><ele>6.0</ele><time>2026-04-05T15:14:00Z</time></trkpt><trkpt lat="39.31905208365218" lon="9.60100280157759"><ele>6.0</ele><time>2026-04-05T15:14:01Z</time></trkpt><trkpt lat="39.319121285396925" lon="9.600879208127408"><ele>6.0</ele><time>2026-04-05T15:14:02Z</time></trkpt><trkpt lat="39.31919070421888" lon="9.600749240332407"><ele>6.0</ele><time>2026-04-05T15:14:03Z</time></trkpt><trkpt lat="39.31926464774232" lon="9.600616191945987"><ele>6.0</ele><time>2026-04-05T15:14:04Z</time></trkpt><trkpt lat="39.31930698077224" lon="9.600464305616255"><ele>6.0</ele><time>2026-04-05T15:14:05Z</time></trkpt><trkpt lat="39.31937328137902" lon="9.600316097523756"><ele>6.0</ele><time>2026-04-05T15:14:06Z</time></trkpt><trkpt lat="39.319419477587196" lon="9.600149289012641"><ele>6.25</ele><time>2026-04-05T15:14:07Z</time></trkpt><trkpt lat="39.31946525971821" lon="9.599977309945805"><ele>6.5</ele><time>2026-04-05T15:14:08Z</time></trkpt><trkpt lat="39.31949896429705" lon="9.599805409124137"><ele>6.75</ele><time>2026-04-05T15:14:09Z</time></trkpt><trkpt lat="39.319542254964524" lon="9.599628246588725"><ele>7.0</ele><time>2026-04-05T15:14:10Z</time></trkpt><trkpt lat="39.31959738281713" lon="9.599468863343386"><ele>7.0</ele><time>2026-04-05T15:14:11Z</time></trkpt><trkpt lat="39.319644206141376" lon="9.599285809314985"><ele>7.0</ele><time>2026-04-05T15:14:12Z</time></trkpt><trkpt lat="39.31968193651456" lon="9.599077297116908"><ele>7.0</ele><time>2026-04-05T15:14:13Z</time></trkpt><trkpt lat="39.31974948715878" lon="9.598852371119158"><ele>6.0</ele><time>2026-04-05T15:14:14Z</time></trkpt><trkpt lat="39.31981117903244" lon="9.598613780502227"><ele>5.0</ele><time>2026-04-05T15:14:15Z</time></trkpt><trkpt lat="39.31987418039228" lon="9.598384758566317"><ele>4.0</ele><time>2026-04-05T15:14:16Z</time></trkpt><trkpt lat="39.3199293280878" lon="9.59817020817281"><ele>4.0</ele><time>2026-04-05T15:14:17Z</time></trkpt><trkpt lat="39.31998220941717" lon="9.597970099371462"><ele>4.0</ele><time>2026-04-05T15:14:18Z</time></trkpt><trkpt lat="39.32003209819092" lon="9.597776311617737"><ele>4.0</ele><time>2026-04-05T15:14:19Z</time></trkpt><trkpt lat="39.32006672894867" lon="9.597585959166157"><ele>4.25</ele><time>2026-04-05T15:14:20Z</time></trkpt><trkpt lat="39.320085777326845" lon="9.597412196944287"><ele>4.5</ele><time>2026-04-05T15:14:21Z</time></trkpt><trkpt lat="39.32011146387742" lon="9.59725748236513"><ele>4.75</ele><time>2026-04-05T15:14:22Z</time></trkpt><trkpt lat="39.32012117662611" lon="9.59710189254757"><ele>5.0</ele><time>2026-04-05T15:14:23Z</time></trkpt><trkpt lat="39.32012496341046" lon="9.596927533707946"><ele>6.0</ele><time>2026-04-05T15:14:24Z</time></trkpt><trkpt lat="39.32011884702831" lon="9.596720134934422"><ele>7.0</ele><time>2026-04-05T15:14:25Z</time></trkpt><trkpt lat="39.320110981428556" lon="9.59649674206065"><ele>8.0</ele><time>2026-04-05T15:14:26Z</time></trkpt><trkpt lat="39.320126315463874" lon="9.59627167960485"><ele>8.0</ele><time>2026-04-05T15:14:27Z</time></trkpt><trkpt lat="39.32015716009978" lon="9.596049162942272"><ele>8.0</ele><time>2026-04-05T15:14:28Z</time></trkpt><trkpt lat="39.320216664866955" lon="9.595817220838839"><ele>8.0</ele><time>2026-04-05T15:14:29Z</time></trkpt><trkpt lat="39.32028605647155" lon="9.595595719553678"><ele>8.0</ele><time>2026-04-05T15:14:30Z</time></trkpt><trkpt lat="39.32037700291987" lon="9.595384890007448"><ele>8.0</ele><time>2026-04-05T15:14:31Z</time></trkpt><trkpt lat="39.320494598985874" lon="9.595182434781778"><ele>8.0</ele><time>2026-04-05T15:14:32Z</time></trkpt><trkpt lat="39.32063841566264" lon="9.594990722982516"><ele>8.0</ele><time>2026-04-05T15:14:33Z</time></trkpt><trkpt lat="39.32080539327001" lon="9.594799200195933"><ele>8.0</ele><time>2026-04-05T15:14:34Z</time></trkpt><trkpt lat="39.32097122490989" lon="9.594615384846412"><ele>8.0</ele><time>2026-04-05T15:14:35Z</time></trkpt><trkpt lat="39.321143634492046" lon="9.594420731730146"><ele>8.5</ele><time>2026-04-05T15:14:36Z</time></trkpt><trkpt lat="39.3213267031928" lon="9.594216348077241"><ele>9.0</ele><time>2026-04-05T15:14:37Z</time></trkpt><trkpt lat="39.321512377333136" lon="9.59400745853695"><ele>8.0</ele><time>2026-04-05T15:14:38Z</time></trkpt><trkpt lat="39.32170331739861" lon="9.59379452645059"><ele>7.0</ele><time>2026-04-05T15:14:39Z</time></trkpt><trkpt lat="39.321895568833234" lon="9.593579594241186"><ele>7.0</ele><time>2026-04-05T15:14:40Z</time></trkpt><trkpt lat="39.32208723048865" lon="9.593363317955456"><ele>7.0</ele><time>2026-04-05T15:14:41Z</time></trkpt><trkpt lat="39.32227981400521" lon="9.593153717173712"><ele>6.0</ele><time>2026-04-05T15:14:42Z</time></trkpt><trkpt lat="39.32246977552681" lon="9.592947843632546"><ele>5.0</ele><time>2026-04-05T15:14:43Z</time></trkpt><trkpt lat="39.32265860040705" lon="9.592737219466889"><ele>5.0</ele><time>2026-04-05T15:14:44Z</time></trkpt><trkpt lat="39.32284198115006" lon="9.592545562627269"><ele>5.0</ele><time>2026-04-05T15:14:45Z</time></trkpt><trkpt lat="39.323018259713855" lon="9.59236361670854"><ele>5.0</ele><time>2026-04-05T15:14:46Z</time></trkpt><trkpt lat="39.32318810042055" lon="9.592200524541086"><ele>5.0</ele><time>2026-04-05T15:14:47Z</time></trkpt><trkpt lat="39.32337165523689" lon="9.592066310908097"><ele>5.0</ele><time>2026-04-05T15:14:48Z</time></trkpt><trkpt lat="39.323582143489126" lon="9.591935602868586"><ele>5.5</ele><time>2026-04-05T15:14:49Z</time></trkpt><trkpt lat="39.323800422674715" lon="9.591810255389525"><ele>6.0</ele><time>2026-04-05T15:14:50Z</time></trkpt><trkpt lat="39.32401139309778" lon="9.591684239759104"><ele>6.0</ele><time>2026-04-05T15:14:51Z</time></trkpt><trkpt lat="39.324216971186246" lon="9.591565049872752"><ele>6.0</ele><time>2026-04-05T15:14:52Z</time></trkpt><trkpt lat="39.32442371817186" lon="9.591448953206141"><ele>6.0</ele><time>2026-04-05T15:14:53Z</time></trkpt><trkpt lat="39.32461857775189" lon="9.591329952073025"><ele>6.0</ele><time>2026-04-05T15:14:54Z</time></trkpt><trkpt lat="39.32480413913031" lon="9.591189100435594"><ele>6.0</ele><time>2026-04-05T15:14:55Z</time></trkpt><trkpt lat="39.324971093564066" lon="9.591011081224432"><ele>6.5</ele><time>2026-04-05T15:14:56Z</time></trkpt><trkpt lat="39.32512284639375" lon="9.590796348099396"><ele>7.0</ele><time>2026-04-05T15:14:57Z</time></trkpt><trkpt lat="39.325259917843965" lon="9.590548827703277"><ele>7.333333333333334</ele><time>2026-04-05T15:14:58Z</time></trkpt><trkpt lat="39.325393631393545" lon="9.590306909048083"><ele>7.666666666666666</ele><time>2026-04-05T15:14:59Z</time></trkpt><trkpt lat="39.325525525738776" lon="9.590092291339595"><ele>8.0</ele><time>2026-04-05T15:15:00Z</time></trkpt><trkpt lat="39.32565532541875" lon="9.589916683576634"><ele>7.333333333333333</ele><time>2026-04-05T15:15:01Z</time></trkpt><trkpt lat="39.32579114833047" lon="9.589788161564869"><ele>6.666666666666666</ele><time>2026-04-05T15:15:02Z</time></trkpt><trkpt lat="39.32593457646986" lon="9.589709334140096"><ele>6.0</ele><time>2026-04-05T15:15:03Z</time></trkpt><trkpt lat="39.326092276846" lon="9.589693404657025"><ele>6.0</ele><time>2026-04-05T15:15:04Z</time></trkpt><trkpt lat="39.32626274232459" lon="9.58972643109094"><ele>6.0</ele><time>2026-04-05T15:15:05Z</time></trkpt><trkpt lat="39.32645736226681" lon="9.589780990154702"><ele>6.0</ele><time>2026-04-05T15:15:06Z</time></trkpt><trkpt lat="39.32666936839922" lon="9.589823057530696"><ele>6.0</ele><time>2026-04-05T15:15:07Z</time></trkpt><trkpt lat="39.32689299555155" lon="9.589885920224889"><ele>6.0</ele><time>2026-04-05T15:15:08Z</time></trkpt><trkpt lat="39.327121954779734" lon="9.589951209921955"><ele>5.5</ele><time>2026-04-05T15:15:09Z</time></trkpt><trkpt lat="39.327354388279076" lon="9.590018084558078"><ele>5.0</ele><time>2026-04-05T15:15:10Z</time></trkpt><trkpt lat="39.32757664065779" lon="9.59008312476111"><ele>5.0</ele><time>2026-04-05T15:15:11Z</time></trkpt><trkpt lat="39.32778966109975" lon="9.590142518513602"><ele>5.0</ele><time>2026-04-05T15:15:12Z</time></trkpt><trkpt lat="39.327994858494954" lon="9.590198063198278"><ele>5.0</ele><time>2026-04-05T15:15:13Z</time></trkpt><trkpt lat="39.3281873561322" lon="9.590251952636876"><ele>6.0</ele><time>2026-04-05T15:15:14Z</time></trkpt><trkpt lat="39.328362455375434" lon="9.590298331724501"><ele>7.0</ele><time>2026-04-05T15:15:15Z</time></trkpt><trkpt lat="39.32853209696834" lon="9.590330497461071"><ele>8.0</ele><time>2026-04-05T15:15:16Z</time></trkpt><trkpt lat="39.328692731402306" lon="9.59033973760199"><ele>8.0</ele><time>2026-04-05T15:15:17Z</time></trkpt><trkpt lat="39.32885598133227" lon="9.590328897487142"><ele>8.0</ele><time>2026-04-05T15:15:18Z</time></trkpt><trkpt lat="39.32903955593593" lon="9.590293795629968"><ele>8.0</ele><time>2026-04-05T15:15:19Z</time></trkpt><trkpt lat="39.329244044135145" lon="9.590273130307825"><ele>7.5</ele><time>2026-04-05T15:15:20Z</time></trkpt><trkpt lat="39.32946693711755" lon="9.59023248057644"><ele>7.0</ele><time>2026-04-05T15:15:21Z</time></trkpt><trkpt lat="39.32970086277787" lon="9.59017423706399"><ele>7.0</ele><time>2026-04-05T15:15:22Z</time></trkpt><trkpt lat="39.32995034454319" lon="9.590135456993064"><ele>7.0</ele><time>2026-04-05T15:15:23Z</time></trkpt><trkpt lat="39.33019827919143" lon="9.590090254751447"><ele>7.0</ele><time>2026-04-05T15:15:24Z</time></trkpt><trkpt lat="39.33043651662361" lon="9.590046997776257"><ele>7.0</ele><time>2026-04-05T15:15:25Z</time></trkpt><trkpt lat="39.330662749407054" lon="9.590005608604862"><ele>6.333333333333334</ele><time>2026-04-05T15:15:26Z</time></trkpt><trkpt lat="39.330872862177124" lon="9.589956063445607"><ele>5.666666666666667</ele><time>2026-04-05T15:15:27Z</time></trkpt><trkpt lat="39.33107425829504" lon="9.58987564784831"><ele>5.0</ele><time>2026-04-05T15:15:28Z</time></trkpt><trkpt lat="39.331275425059374" lon="9.58975497403537"><ele>4.666666666666667</ele><time>2026-04-05T15:15:29Z</time></trkpt><trkpt lat="39.3314649171527" lon="9.589602088983359"><ele>4.333333333333333</ele><time>2026-04-05T15:15:30Z</time></trkpt><trkpt lat="39.331629187307925" lon="9.589441848716893"><ele>4.0</ele><time>2026-04-05T15:15:31Z</time></trkpt><trkpt lat="39.33176303477059" lon="9.58926803688295"><ele>4.0</ele><time>2026-04-05T15:15:32Z</time></trkpt><trkpt lat="39.33186454904859" lon="9.589062469924905"><ele>4.0</ele><time>2026-04-05T15:15:33Z</time></trkpt><trkpt lat="39.33194413011684" lon="9.588814722158414"><ele>4.0</ele><time>2026-04-05T15:15:34Z</time></trkpt><trkpt lat="39.332006600811624" lon="9.588531447016273"><ele>9.0</ele><time>2026-04-05T15:15:35Z</time></trkpt><trkpt lat="39.33206539479227" lon="9.588224497225086"><ele>14.0</ele><time>2026-04-05T15:15:36Z</time></trkpt><trkpt lat="39.33213889102209" lon="9.587912863205474"><ele>8.5</ele><time>2026-04-05T15:15:37Z</time></trkpt><trkpt lat="39.332218627458175" lon="9.587588623976107"><ele>3.0</ele><time>2026-04-05T15:15:38Z</time></trkpt><trkpt lat="39.33230100394617" lon="9.587255179927514"><ele>6.0</ele><time>2026-04-05T15:15:39Z</time></trkpt><trkpt lat="39.33238035904049" lon="9.58693105368085"><ele>9.0</ele><time>2026-04-05T15:15:40Z</time></trkpt><trkpt lat="39.3324563400849" lon="9.586633219883929"><ele>9.0</ele><time>2026-04-05T15:15:41Z</time></trkpt><trkpt lat="39.33253934215691" lon="9.586359525995492"><ele>9.0</ele><time>2026-04-05T15:15:42Z</time></trkpt><trkpt lat="39.33261657170332" lon="9.586114311503072"><ele>9.0</ele><time>2026-04-05T15:15:43Z</time></trkpt><trkpt lat="39.3326714707603" lon="9.585876978045315"><ele>9.0</ele><time>2026-04-05T15:15:44Z</time></trkpt><trkpt lat="39.33269298333572" lon="9.585635603625681"><ele>9.0</ele><time>2026-04-05T15:15:45Z</time></trkpt><trkpt lat="39.33268141394748" lon="9.585394373055816"><ele>9.0</ele><time>2026-04-05T15:15:46Z</time></trkpt><trkpt lat="39.33263293761807" lon="9.58516203784427"><ele>9.0</ele><time>2026-04-05T15:15:47Z</time></trkpt><trkpt lat="39.33254953980079" lon="9.58491961016521"><ele>9.0</ele><time>2026-04-05T15:15:48Z</time></trkpt><trkpt lat="39.33244557610856" lon="9.58466987366853"><ele>9.0</ele><time>2026-04-05T15:15:49Z</time></trkpt><trkpt lat="39.332354534604484" lon="9.584425522657856"><ele>7.333333333333333</ele><time>2026-04-05T15:15:50Z</time></trkpt><trkpt lat="39.33227857853066" lon="9.584197358360052"><ele>5.666666666666666</ele><time>2026-04-05T15:15:51Z</time></trkpt><trkpt lat="39.33221409480933" lon="9.583981560861625"><ele>4.0</ele><time>2026-04-05T15:15:52Z</time></trkpt><trkpt lat="39.3321761894276" lon="9.583783222439036"><ele>4.25</ele><time>2026-04-05T15:15:53Z</time></trkpt><trkpt lat="39.33218995134287" lon="9.583599453560227"><ele>4.5</ele><time>2026-04-05T15:15:54Z</time></trkpt><trkpt lat="39.33220063455606" lon="9.583426358219759"><ele>4.75</ele><time>2026-04-05T15:15:55Z</time></trkpt><trkpt lat="39.33222885846338" lon="9.58323309226129"><ele>5.0</ele><time>2026-04-05T15:15:56Z</time></trkpt><trkpt lat="39.33227302368097" lon="9.583021468962194"><ele>4.666666666666667</ele><time>2026-04-05T15:15:57Z</time></trkpt><trkpt lat="39.332352584360564" lon="9.582806766874748"><ele>4.333333333333333</ele><time>2026-04-05T15:15:58Z</time></trkpt><trkpt lat="39.33243232033636" lon="9.582568283350975"><ele>4.0</ele><time>2026-04-05T15:15:59Z</time></trkpt><trkpt lat="39.3325200082286" lon="9.582313690466652"><ele>4.0</ele><time>2026-04-05T15:16:00Z</time></trkpt><trkpt lat="39.332613719693455" lon="9.582049924162085"><ele>4.0</ele><time>2026-04-05T15:16:01Z</time></trkpt><trkpt lat="39.33271799617127" lon="9.581800534117624"><ele>4.0</ele><time>2026-04-05T15:16:02Z</time></trkpt><trkpt lat="39.332860905848634" lon="9.581596707956015"><ele>4.5</ele><time>2026-04-05T15:16:03Z</time></trkpt><trkpt lat="39.333024716913165" lon="9.581393885110199"><ele>5.0</ele><time>2026-04-05T15:16:04Z</time></trkpt><trkpt lat="39.333202210148556" lon="9.581181862787988"><ele>5.5</ele><time>2026-04-05T15:16:05Z</time></trkpt><trkpt lat="39.333385731809436" lon="9.580962639284921"><ele>6.0</ele><time>2026-04-05T15:16:06Z</time></trkpt><trkpt lat="39.33357137180681" lon="9.580738459575622"><ele>6.0</ele><time>2026-04-05T15:16:07Z</time></trkpt><trkpt lat="39.333758771665124" lon="9.58051665250209"><ele>6.0</ele><time>2026-04-05T15:16:08Z</time></trkpt><trkpt lat="39.33398010256777" lon="9.580357533552894"><ele>7.0</ele><time>2026-04-05T15:16:09Z</time></trkpt><trkpt lat="39.33422027129229" lon="9.580227098269273"><ele>8.0</ele><time>2026-04-05T15:16:10Z</time></trkpt><trkpt lat="39.33446646819921" lon="9.580102804316187"><ele>8.0</ele><time>2026-04-05T15:16:11Z</time></trkpt><trkpt lat="39.33469797689827" lon="9.579972177496733"><ele>8.0</ele><time>2026-04-05T15:16:12Z</time></trkpt><trkpt lat="39.33492760608226" lon="9.57983899612028"><ele>6.5</ele><time>2026-04-05T15:16:13Z</time></trkpt><trkpt lat="39.33514863876584" lon="9.5796981622657"><ele>5.0</ele><time>2026-04-05T15:16:14Z</time></trkpt><trkpt lat="39.33535715493756" lon="9.579538250254153"><ele>5.5</ele><time>2026-04-05T15:16:15Z</time></trkpt><trkpt lat="39.33555088879375" lon="9.579344271683949"><ele>6.0</ele><time>2026-04-05T15:16:16Z</time></trkpt><trkpt lat="39.335736487457815" lon="9.579110994094654"><ele>6.0</ele><time>2026-04-05T15:16:17Z</time></trkpt><trkpt lat="39.335923503820844" lon="9.578868995356515"><ele>6.0</ele><time>2026-04-05T15:16:18Z</time></trkpt><trkpt lat="39.33611634997726" lon="9.578626796795785"><ele>6.5</ele><time>2026-04-05T15:16:19Z</time></trkpt><trkpt lat="39.3363150686637" lon="9.578380426747712"><ele>7.0</ele><time>2026-04-05T15:16:20Z</time></trkpt><trkpt lat="39.33650513410897" lon="9.578144347531683"><ele>5.5</ele><time>2026-04-05T15:16:21Z</time></trkpt><trkpt lat="39.33668539012679" lon="9.57791489133202"><ele>4.0</ele><time>2026-04-05T15:16:22Z</time></trkpt><trkpt lat="39.33685423393135" lon="9.577689922149935"><ele>4.0</ele><time>2026-04-05T15:16:23Z</time></trkpt><trkpt lat="39.33698867936043" lon="9.577467252931847"><ele>4.0</ele><time>2026-04-05T15:16:24Z</time></trkpt><trkpt lat="39.33707040346311" lon="9.57725873403398"><ele>4.0</ele><time>2026-04-05T15:16:25Z</time></trkpt><trkpt lat="39.33711592946576" lon="9.577018356735227"><ele>8.0</ele><time>2026-04-05T15:16:26Z</time></trkpt><trkpt lat="39.33715171678715" lon="9.576737444467344"><ele>12.0</ele><time>2026-04-05T15:16:27Z</time></trkpt><trkpt lat="39.33720062142748" lon="9.5764449250645"><ele>9.0</ele><time>2026-04-05T15:16:28Z</time></trkpt><trkpt lat="39.33725704318366" lon="9.576151696689124"><ele>6.0</ele><time>2026-04-05T15:16:29Z</time></trkpt><trkpt lat="39.33731187497009" lon="9.575867700636433"><ele>6.0</ele><time>2026-04-05T15:16:30Z</time></trkpt><trkpt lat="39.33736394285845" lon="9.575599983842213"><ele>6.0</ele><time>2026-04-05T15:16:31Z</time></trkpt><trkpt lat="39.33741000749416" lon="9.575345683642352"><ele>6.0</ele><time>2026-04-05T15:16:32Z</time></trkpt><trkpt lat="39.337436457977404" lon="9.57512035514948"><ele>6.0</ele><time>2026-04-05T15:16:33Z</time></trkpt><trkpt lat="39.337429582976775" lon="9.574905525283313"><ele>6.0</ele><time>2026-04-05T15:16:34Z</time></trkpt><trkpt lat="39.33738163092057" lon="9.574712031238805"><ele>6.0</ele><time>2026-04-05T15:16:35Z</time></trkpt><trkpt lat="39.33729866973512" lon="9.57454572926041"><ele>7.333333333333334</ele><time>2026-04-05T15:16:36Z</time></trkpt><trkpt lat="39.33717607357039" lon="9.574382785530457"><ele>8.666666666666668</ele><time>2026-04-05T15:16:37Z</time></trkpt><trkpt lat="39.33705817908161" lon="9.574205545409594"><ele>10.0</ele><time>2026-04-05T15:16:38Z</time></trkpt><trkpt lat="39.336931835377605" lon="9.573995839407859"><ele>10.0</ele><time>2026-04-05T15:16:39Z</time></trkpt><trkpt lat="39.336805165256685" lon="9.573770306797906"><ele>10.0</ele><time>2026-04-05T15:16:40Z</time></trkpt><trkpt lat="39.33669906854438" lon="9.57354365745425"><ele>10.0</ele><time>2026-04-05T15:16:41Z</time></trkpt><trkpt lat="39.33660780966872" lon="9.57330476252813"><ele>9.333333333333334</ele><time>2026-04-05T15:16:42Z</time></trkpt><trkpt lat="39.33654515676229" lon="9.573052517671083"><ele>8.666666666666666</ele><time>2026-04-05T15:16:43Z</time></trkpt><trkpt lat="39.33651759098566" lon="9.572810132086385"><ele>8.0</ele><time>2026-04-05T15:16:44Z</time></trkpt><trkpt lat="39.33651689554079" lon="9.572578714928547"><ele>8.0</ele><time>2026-04-05T15:16:45Z</time></trkpt><trkpt lat="39.33653724254451" lon="9.572355637612805"><ele>8.0</ele><time>2026-04-05T15:16:46Z</time></trkpt><trkpt lat="39.33657715335848" lon="9.572139751532019"><ele>8.0</ele><time>2026-04-05T15:16:47Z</time></trkpt><trkpt lat="39.33662917300059" lon="9.57193645417581"><ele>8.666666666666666</ele><time>2026-04-05T15:16:48Z</time></trkpt><trkpt lat="39.33670812718273" lon="9.571733511541359"><ele>9.333333333333334</ele><time>2026-04-05T15:16:49Z</time></trkpt><trkpt lat="39.336818178650766" lon="9.571536897820035"><ele>10.0</ele><time>2026-04-05T15:16:50Z</time></trkpt><trkpt lat="39.33694591203823" lon="9.571333257150089"><ele>10.333333333333334</ele><time>2026-04-05T15:16:51Z</time></trkpt><trkpt lat="39.33707395625486" lon="9.571113571190626"><ele>10.666666666666666</ele><time>2026-04-05T15:16:52Z</time></trkpt><trkpt lat="39.33719905299972" lon="9.570883729893096"><ele>11.0</ele><time>2026-04-05T15:16:53Z</time></trkpt><trkpt lat="39.337321955495646" lon="9.570651789124684"><ele>10.333333333333332</ele><time>2026-04-05T15:16:54Z</time></trkpt><trkpt lat="39.33743981191608" lon="9.570423732159755"><ele>9.666666666666666</ele><time>2026-04-05T15:16:55Z</time></trkpt><trkpt lat="39.337553207891744" lon="9.570194717107878"><ele>9.0</ele><time>2026-04-05T15:16:56Z</time></trkpt><trkpt lat="39.33766321854203" lon="9.569959828788596"><ele>9.0</ele><time>2026-04-05T15:16:57Z</time></trkpt><trkpt lat="39.337774337712425" lon="9.569726660020276"><ele>9.0</ele><time>2026-04-05T15:16:58Z</time></trkpt><trkpt lat="39.33788347103255" lon="9.569497010828618"><ele>9.0</ele><time>2026-04-05T15:16:59Z</time></trkpt><trkpt lat="39.338015838817384" lon="9.569306317091469"><ele>8.666666666666666</ele><time>2026-04-05T15:17:00Z</time></trkpt><trkpt lat="39.33809313670847" lon="9.569078738714628"><ele>8.333333333333332</ele><time>2026-04-05T15:17:01Z</time></trkpt><trkpt lat="39.33816014309426" lon="9.568860548185194"><ele>8.0</ele><time>2026-04-05T15:17:02Z</time></trkpt><trkpt lat="39.33824023647437" lon="9.568664068513462"><ele>7.0</ele><time>2026-04-05T15:17:03Z</time></trkpt><trkpt lat="39.33833352246746" lon="9.56848652977941"><ele>6.0</ele><time>2026-04-05T15:17:04Z</time></trkpt><trkpt lat="39.33844363378117" lon="9.568327306524697"><ele>5.0</ele><time>2026-04-05T15:17:05Z</time></trkpt><trkpt lat="39.338560488935414" lon="9.568192739509515"><ele>5.0</ele><time>2026-04-05T15:17:06Z</time></trkpt><trkpt lat="39.33867946060624" lon="9.56809450052479"><ele>5.0</ele><time>2026-04-05T15:17:07Z</time></trkpt><trkpt lat="39.338788491193704" lon="9.56803555057906"><ele>5.0</ele><time>2026-04-05T15:17:08Z</time></trkpt><trkpt lat="39.338878852650815" lon="9.567996866621218"><ele>5.0</ele><time>2026-04-05T15:17:09Z</time></trkpt><trkpt lat="39.338977808921626" lon="9.567960977698625"><ele>4.75</ele><time>2026-04-05T15:17:10Z</time></trkpt><trkpt lat="39.3391000043641" lon="9.567936886228567"><ele>4.5</ele><time>2026-04-05T15:17:11Z</time></trkpt><trkpt lat="39.33923933964068" lon="9.567936156539753"><ele>4.25</ele><time>2026-04-05T15:17:12Z</time></trkpt><trkpt lat="39.339389058118414" lon="9.567989558457"><ele>4.0</ele><time>2026-04-05T15:17:13Z</time></trkpt><trkpt lat="39.33951599627969" lon="9.568011118996086"><ele>4.0</ele><time>2026-04-05T15:17:14Z</time></trkpt><trkpt lat="39.339627220108426" lon="9.568020715045725"><ele>4.0</ele><time>2026-04-05T15:17:15Z</time></trkpt><trkpt lat="39.33974242125976" lon="9.568071828057864"><ele>4.0</ele><time>2026-04-05T15:17:16Z</time></trkpt><trkpt lat="39.339877292068465" lon="9.568118847084099"><ele>4.0</ele><time>2026-04-05T15:17:17Z</time></trkpt><trkpt lat="39.34003748121314" lon="9.568162097435051"><ele>3.333333333333333</ele><time>2026-04-05T15:17:18Z</time></trkpt><trkpt lat="39.34021250187363" lon="9.568239325773298"><ele>2.6666666666666665</ele><time>2026-04-05T15:17:19Z</time></trkpt><trkpt lat="39.34038358663588" lon="9.568346612156986"><ele>2.0</ele><time>2026-04-05T15:17:20Z</time></trkpt><trkpt lat="39.34055206177214" lon="9.568430265735639"><ele>2.0</ele><time>2026-04-05T15:17:21Z</time></trkpt><trkpt lat="39.340716874848205" lon="9.568498833166103"><ele>2.0</ele><time>2026-04-05T15:17:22Z</time></trkpt><trkpt lat="39.34085494068101" lon="9.568571933914594"><ele>2.0</ele><time>2026-04-05T15:17:23Z</time></trkpt><trkpt lat="39.340987486637964" lon="9.568629366714202"><ele>2.0</ele><time>2026-04-05T15:17:24Z</time></trkpt><trkpt lat="39.341109160124205" lon="9.568692620010705"><ele>2.0</ele><time>2026-04-05T15:17:25Z</time></trkpt><trkpt lat="39.341236939606596" lon="9.568757419947758"><ele>2.0</ele><time>2026-04-05T15:17:26Z</time></trkpt><trkpt lat="39.34136413178117" lon="9.568818471721404"><ele>2.0</ele><time>2026-04-05T15:17:27Z</time></trkpt><trkpt lat="39.34149689113355" lon="9.568886116228882"><ele>2.6</ele><time>2026-04-05T15:17:28Z</time></trkpt><trkpt lat="39.34161664274944" lon="9.568933687463295"><ele>3.2</ele><time>2026-04-05T15:17:29Z</time></trkpt><trkpt lat="39.34171849855234" lon="9.568970793195264"><ele>3.8</ele><time>2026-04-05T15:17:30Z</time></trkpt><trkpt lat="39.34181259362703" lon="9.568966663231514"><ele>4.4</ele><time>2026-04-05T15:17:31Z</time></trkpt><trkpt lat="39.341896396806916" lon="9.568920252718032"><ele>5.0</ele><time>2026-04-05T15:17:32Z</time></trkpt><trkpt lat="39.341970551362806" lon="9.568818052812913"><ele>5.25</ele><time>2026-04-05T15:17:33Z</time></trkpt><trkpt lat="39.342037133436236" lon="9.568666522827513"><ele>5.5</ele><time>2026-04-05T15:17:34Z</time></trkpt><trkpt lat="39.34210686709611" lon="9.568486601319458"><ele>5.75</ele><time>2026-04-05T15:17:35Z</time></trkpt><trkpt lat="39.34218218246845" lon="9.568332829102278"><ele>6.0</ele><time>2026-04-05T15:17:36Z</time></trkpt><trkpt lat="39.34225280500717" lon="9.568216651185974"><ele>6.0</ele><time>2026-04-05T15:17:37Z</time></trkpt><trkpt lat="39.34232356715794" lon="9.568147053707246"><ele>6.0</ele><time>2026-04-05T15:17:38Z</time></trkpt><trkpt lat="39.34239631127444" lon="9.568127667893163"><ele>6.0</ele><time>2026-04-05T15:17:39Z</time></trkpt><trkpt lat="39.34246199549414" lon="9.568159979214828"><ele>6.0</ele><time>2026-04-05T15:17:40Z</time></trkpt><trkpt lat="39.34252747277149" lon="9.568225969006548"><ele>6.0</ele><time>2026-04-05T15:17:41Z</time></trkpt><trkpt lat="39.34258995782648" lon="9.568329750716448"><ele>6.0</ele><time>2026-04-05T15:17:42Z</time></trkpt><trkpt lat="39.34267402500782" lon="9.568385248073369"><ele>6.0</ele><time>2026-04-05T15:17:43Z</time></trkpt><trkpt lat="39.34276246770306" lon="9.56839748590312"><ele>6.0</ele><time>2026-04-05T15:17:44Z</time></trkpt><trkpt lat="39.34286323822379" lon="9.568388288097985"><ele>6.0</ele><time>2026-04-05T15:17:45Z</time></trkpt><trkpt lat="39.34296030667351" lon="9.568216597774573"><ele>6.0</ele><time>2026-04-05T15:17:46Z</time></trkpt><trkpt lat="39.343057996612245" lon="9.568048620128668"><ele>6.0</ele><time>2026-04-05T15:17:47Z</time></trkpt><trkpt lat="39.34315783392048" lon="9.567844081493119"><ele>6.0</ele><time>2026-04-05T15:17:48Z</time></trkpt><trkpt lat="39.34327452104831" lon="9.567637599431482"><ele>6.0</ele><time>2026-04-05T15:17:49Z</time></trkpt><trkpt lat="39.34339551997879" lon="9.567421372695932"><ele>6.0</ele><time>2026-04-05T15:17:50Z</time></trkpt><trkpt lat="39.34352431463804" lon="9.567189010890965"><ele>6.0</ele><time>2026-04-05T15:17:51Z</time></trkpt><trkpt lat="39.34364724156161" lon="9.56695451025671"><ele>6.0</ele><time>2026-04-05T15:17:52Z</time></trkpt><trkpt lat="39.34376421839317" lon="9.566703679332697"><ele>6.0</ele><time>2026-04-05T15:17:53Z</time></trkpt><trkpt lat="39.343876881653486" lon="9.56643461168541"><ele>6.0</ele><time>2026-04-05T15:17:54Z</time></trkpt><trkpt lat="39.343986945430466" lon="9.566164023951133"><ele>5.5</ele><time>2026-04-05T15:17:55Z</time></trkpt><trkpt lat="39.34409638431531" lon="9.565893735348412"><ele>5.0</ele><time>2026-04-05T15:17:56Z</time></trkpt><trkpt lat="39.34421040675743" lon="9.565620217280088"><ele>5.0</ele><time>2026-04-05T15:17:57Z</time></trkpt><trkpt lat="39.34432588790751" lon="9.565343451015924"><ele>5.0</ele><time>2026-04-05T15:17:58Z</time></trkpt><trkpt lat="39.34443989520378" lon="9.565063271966368"><ele>5.0</ele><time>2026-04-05T15:17:59Z</time></trkpt><trkpt lat="39.34455023731749" lon="9.564784413037755"><ele>5.0</ele><time>2026-04-05T15:18:00Z</time></trkpt><trkpt lat="39.34467400242814" lon="9.564520109177309"><ele>6.5</ele><time>2026-04-05T15:18:01Z</time></trkpt><trkpt lat="39.34478210882079" lon="9.564245851026216"><ele>8.0</ele><time>2026-04-05T15:18:02Z</time></trkpt><trkpt lat="39.34486695488176" lon="9.563957363847079"><ele>8.5</ele><time>2026-04-05T15:18:03Z</time></trkpt><trkpt lat="39.34495479850059" lon="9.563670638063945"><ele>9.0</ele><time>2026-04-05T15:18:04Z</time></trkpt><trkpt lat="39.34503969648312" lon="9.563381812171414"><ele>9.0</ele><time>2026-04-05T15:18:05Z</time></trkpt><trkpt lat="39.34513047876186" lon="9.563095698563666"><ele>9.0</ele><time>2026-04-05T15:18:06Z</time></trkpt><trkpt lat="39.3452178643799" lon="9.562806466995754"><ele>8.5</ele><time>2026-04-05T15:18:07Z</time></trkpt><trkpt lat="39.345301721650046" lon="9.562505145015454"><ele>8.0</ele><time>2026-04-05T15:18:08Z</time></trkpt><trkpt lat="39.345384885588025" lon="9.562192877418791"><ele>6.5</ele><time>2026-04-05T15:18:09Z</time></trkpt><trkpt lat="39.345471102560005" lon="9.56187198823109"><ele>5.0</ele><time>2026-04-05T15:18:10Z</time></trkpt><trkpt lat="39.34555937554442" lon="9.56155277159244"><ele>4.5</ele><time>2026-04-05T15:18:11Z</time></trkpt><trkpt lat="39.34564743673993" lon="9.561244597289939"><ele>4.0</ele><time>2026-04-05T15:18:12Z</time></trkpt><trkpt lat="39.34573252336544" lon="9.560937862870079"><ele>4.0</ele><time>2026-04-05T15:18:13Z</time></trkpt><trkpt lat="39.345815176750925" lon="9.560639564777201"><ele>4.0</ele><time>2026-04-05T15:18:14Z</time></trkpt><trkpt lat="39.345896874066575" lon="9.560347564790115"><ele>4.0</ele><time>2026-04-05T15:18:15Z</time></trkpt><trkpt lat="39.345975822606746" lon="9.560043512878023"><ele>4.0</ele><time>2026-04-05T15:18:16Z</time></trkpt><trkpt lat="39.34605695328224" lon="9.559742367683425"><ele>5.0</ele><time>2026-04-05T15:18:17Z</time></trkpt><trkpt lat="39.34614004957136" lon="9.55943262165737"><ele>6.0</ele><time>2026-04-05T15:18:18Z</time></trkpt><trkpt lat="39.34622409781438" lon="9.559124862406472"><ele>6.0</ele><time>2026-04-05T15:18:19Z</time></trkpt><trkpt lat="39.34630920540216" lon="9.558822263592797"><ele>6.0</ele><time>2026-04-05T15:18:20Z</time></trkpt><trkpt lat="39.3463933584962" lon="9.558506010599448"><ele>6.0</ele><time>2026-04-05T15:18:21Z</time></trkpt><trkpt lat="39.346494604221334" lon="9.558198010624961"><ele>6.0</ele><time>2026-04-05T15:18:22Z</time></trkpt><trkpt lat="39.34657845085722" lon="9.557895340648829"><ele>6.0</ele><time>2026-04-05T15:18:23Z</time></trkpt><trkpt lat="39.34665955372319" lon="9.557599629342313"><ele>6.0</ele><time>2026-04-05T15:18:24Z</time></trkpt><trkpt lat="39.34671969877341" lon="9.557313307023659"><ele>6.0</ele><time>2026-04-05T15:18:25Z</time></trkpt><trkpt lat="39.346790082489704" lon="9.55704781317262"><ele>6.0</ele><time>2026-04-05T15:18:26Z</time></trkpt><trkpt lat="39.34685692448797" lon="9.55679223571567"><ele>6.0</ele><time>2026-04-05T15:18:27Z</time></trkpt><trkpt lat="39.346921889777505" lon="9.556542982869281"><ele>6.333333333333334</ele><time>2026-04-05T15:18:28Z</time></trkpt><trkpt lat="39.34698724432093" lon="9.556309528012195"><ele>6.666666666666667</ele><time>2026-04-05T15:18:29Z</time></trkpt><trkpt lat="39.34705256782366" lon="9.556089273608366"><ele>7.0</ele><time>2026-04-05T15:18:30Z</time></trkpt><trkpt lat="39.3471158721682" lon="9.555879913201634"><ele>7.0</ele><time>2026-04-05T15:18:31Z</time></trkpt><trkpt lat="39.34718387578792" lon="9.555685773927692"><ele>7.0</ele><time>2026-04-05T15:18:32Z</time></trkpt><trkpt lat="39.34729823266901" lon="9.5555063141077"><ele>7.0</ele><time>2026-04-05T15:18:33Z</time></trkpt><trkpt lat="39.34742313045013" lon="9.55532000561082"><ele>6.666666666666667</ele><time>2026-04-05T15:18:34Z</time></trkpt><trkpt lat="39.34754533226163" lon="9.555127436792095"><ele>6.333333333333334</ele><time>2026-04-05T15:18:35Z</time></trkpt><trkpt lat="39.347701074407105" lon="9.554946312333026"><ele>6.0</ele><time>2026-04-05T15:18:36Z</time></trkpt><trkpt lat="39.34786036508159" lon="9.55475150751072"><ele>6.0</ele><time>2026-04-05T15:18:37Z</time></trkpt><trkpt lat="39.34801749517652" lon="9.554547121940455"><ele>6.0</ele><time>2026-04-05T15:18:38Z</time></trkpt><trkpt lat="39.34819082752954" lon="9.554354931520853"><ele>6.5</ele><time>2026-04-05T15:18:39Z</time></trkpt><trkpt lat="39.348361512698794" lon="9.554145317430905"><ele>7.0</ele><time>2026-04-05T15:18:40Z</time></trkpt><trkpt lat="39.34853391598187" lon="9.553933593366287"><ele>7.0</ele><time>2026-04-05T15:18:41Z</time></trkpt><trkpt lat="39.348691039599935" lon="9.553707669988794"><ele>7.0</ele><time>2026-04-05T15:18:42Z</time></trkpt><trkpt lat="39.348858775451326" lon="9.553500393030522"><ele>6.0</ele><time>2026-04-05T15:18:43Z</time></trkpt><trkpt lat="39.34902585351691" lon="9.553291669604864"><ele>5.0</ele><time>2026-04-05T15:18:44Z</time></trkpt><trkpt lat="39.34919580298011" lon="9.553083390486606"><ele>5.0</ele><time>2026-04-05T15:18:45Z</time></trkpt><trkpt lat="39.34936373953322" lon="9.552876219620128"><ele>5.0</ele><time>2026-04-05T15:18:46Z</time></trkpt><trkpt lat="39.3495211484211" lon="9.552678945725598"><ele>5.666666666666667</ele><time>2026-04-05T15:18:47Z</time></trkpt><trkpt lat="39.34967996790202" lon="9.55248281851002"><ele>6.333333333333334</ele><time>2026-04-05T15:18:48Z</time></trkpt><trkpt lat="39.349839462601466" lon="9.552287164104941"><ele>7.0</ele><time>2026-04-05T15:18:49Z</time></trkpt><trkpt lat="39.34999315446298" lon="9.552096641232344"><ele>7.0</ele><time>2026-04-05T15:18:50Z</time></trkpt><trkpt lat="39.35014198189095" lon="9.551908188714334"><ele>7.0</ele><time>2026-04-05T15:18:51Z</time></trkpt><trkpt lat="39.35028469126568" lon="9.551728374189818"><ele>7.0</ele><time>2026-04-05T15:18:52Z</time></trkpt><trkpt lat="39.35042488158036" lon="9.551551979728059"><ele>7.333333333333334</ele><time>2026-04-05T15:18:53Z</time></trkpt><trkpt lat="39.35055851603295" lon="9.551390664262302"><ele>7.666666666666666</ele><time>2026-04-05T15:18:54Z</time></trkpt><trkpt lat="39.35068428500459" lon="9.551241976948727"><ele>8.0</ele><time>2026-04-05T15:18:55Z</time></trkpt><trkpt lat="39.350813482635395" lon="9.55111036777919"><ele>8.0</ele><time>2026-04-05T15:18:56Z</time></trkpt><trkpt lat="39.350951245603916" lon="9.550993433297094"><ele>8.0</ele><time>2026-04-05T15:18:57Z</time></trkpt><trkpt lat="39.35111775545738" lon="9.550914103042706"><ele>8.0</ele><time>2026-04-05T15:18:58Z</time></trkpt><trkpt lat="39.351294256357654" lon="9.55081159554306"><ele>8.0</ele><time>2026-04-05T15:18:59Z</time></trkpt><trkpt lat="39.351500426714864" lon="9.550748561774162"><ele>8.0</ele><time>2026-04-05T15:19:00Z</time></trkpt><trkpt lat="39.3517192629646" lon="9.550691247818865"><ele>8.0</ele><time>2026-04-05T15:19:01Z</time></trkpt><trkpt lat="39.351939676140375" lon="9.550623614919711"><ele>8.0</ele><time>2026-04-05T15:19:02Z</time></trkpt><trkpt lat="39.352148630459936" lon="9.550560501144504"><ele>8.0</ele><time>2026-04-05T15:19:03Z</time></trkpt><trkpt lat="39.352339932701035" lon="9.550507911812838"><ele>8.0</ele><time>2026-04-05T15:19:04Z</time></trkpt><trkpt lat="39.35252110507655" lon="9.550455937224019"><ele>8.333333333333332</ele><time>2026-04-05T15:19:05Z</time></trkpt><trkpt lat="39.3526870798797" lon="9.550407917564995"><ele>8.666666666666666</ele><time>2026-04-05T15:19:06Z</time></trkpt><trkpt lat="39.35284369503323" lon="9.550365123187456"><ele>9.0</ele><time>2026-04-05T15:19:07Z</time></trkpt><trkpt lat="39.35299264240015" lon="9.550328882759437"><ele>9.25</ele><time>2026-04-05T15:19:08Z</time></trkpt><trkpt lat="39.353130812008956" lon="9.550312116086655"><ele>9.5</ele><time>2026-04-05T15:19:09Z</time></trkpt><trkpt lat="39.35323996798692" lon="9.550332505042238"><ele>9.75</ele><time>2026-04-05T15:19:10Z</time></trkpt><trkpt lat="39.353234922997785" lon="9.550564684103536"><ele>10.0</ele><time>2026-04-05T15:19:11Z</time></trkpt><trkpt lat="39.35329294701528" lon="9.550733959456487"><ele>10.333333333333334</ele><time>2026-04-05T15:19:14Z</time></trkpt><trkpt lat="39.35335671814477" lon="9.550882541525558"><ele>10.666666666666666</ele><time>2026-04-05T15:19:15Z</time></trkpt><trkpt lat="39.35343078340448" lon="9.551063728857901"><ele>11.0</ele><time>2026-04-05T15:19:16Z</time></trkpt><trkpt lat="39.353515953637476" lon="9.551260452590443"><ele>10.333333333333332</ele><time>2026-04-05T15:19:17Z</time></trkpt><trkpt lat="39.35359427988174" lon="9.551493797250206"><ele>9.666666666666666</ele><time>2026-04-05T15:19:18Z</time></trkpt><trkpt lat="39.35369142295535" lon="9.551706242271816"><ele>9.0</ele><time>2026-04-05T15:19:19Z</time></trkpt><trkpt lat="39.35375810675702" lon="9.551941106171457"><ele>9.666666666666666</ele><time>2026-04-05T15:19:20Z</time></trkpt><trkpt lat="39.353776727976474" lon="9.552168502199438"><ele>10.333333333333332</ele><time>2026-04-05T15:19:21Z</time></trkpt><trkpt lat="39.35381006874227" lon="9.552408940325313"><ele>11.0</ele><time>2026-04-05T15:19:22Z</time></trkpt><trkpt lat="39.35418784514638" lon="9.552551245936064"><ele>11.0</ele><time>2026-04-05T15:19:23Z</time></trkpt><trkpt lat="39.3542693879517" lon="9.552750212299987"><ele>11.0</ele><time>2026-04-05T15:19:24Z</time></trkpt><trkpt lat="39.354346353810044" lon="9.552939035581698"><ele>11.0</ele><time>2026-04-05T15:19:25Z</time></trkpt><trkpt lat="39.3544196834919" lon="9.553120097912554"><ele>10.5</ele><time>2026-04-05T15:19:26Z</time></trkpt><trkpt lat="39.35448905800139" lon="9.553286620583359"><ele>10.0</ele><time>2026-04-05T15:19:27Z</time></trkpt><trkpt lat="39.354551949315855" lon="9.55343901448777"><ele>9.5</ele><time>2026-04-05T15:19:28Z</time></trkpt><trkpt lat="39.35460879972679" lon="9.553569901283824"><ele>9.0</ele><time>2026-04-05T15:19:29Z</time></trkpt><trkpt lat="39.35464343826175" lon="9.553696608857624"><ele>8.25</ele><time>2026-04-05T15:19:30Z</time></trkpt><trkpt lat="39.354687137358816" lon="9.553804173151923"><ele>7.5</ele><time>2026-04-05T15:19:31Z</time></trkpt><trkpt lat="39.35474483149524" lon="9.553946185911284"><ele>6.75</ele><time>2026-04-05T15:19:32Z</time></trkpt><trkpt lat="39.354819270282434" lon="9.55412941521842"><ele>6.0</ele><time>2026-04-05T15:19:33Z</time></trkpt><trkpt lat="39.35490936937221" lon="9.554349317258456"><ele>7.0</ele><time>2026-04-05T15:19:34Z</time></trkpt><trkpt lat="39.355005637022494" lon="9.554552658820525"><ele>8.0</ele><time>2026-04-05T15:19:35Z</time></trkpt><trkpt lat="39.35508154308437" lon="9.55474526955169"><ele>9.0</ele><time>2026-04-05T15:19:36Z</time></trkpt><trkpt lat="39.35514205564529" lon="9.554913200214958"><ele>9.0</ele><time>2026-04-05T15:19:37Z</time></trkpt><trkpt lat="39.355207198303276" lon="9.555069776769876"><ele>9.0</ele><time>2026-04-05T15:19:38Z</time></trkpt><trkpt lat="39.355269924621844" lon="9.555220545423827"><ele>9.0</ele><time>2026-04-05T15:19:39Z</time></trkpt><trkpt lat="39.35534088961203" lon="9.555394094655348"><ele>9.0</ele><time>2026-04-05T15:19:40Z</time></trkpt><trkpt lat="39.355429302693544" lon="9.555612042089432"><ele>9.0</ele><time>2026-04-05T15:19:41Z</time></trkpt><trkpt lat="39.35553302799636" lon="9.555827850763444"><ele>9.0</ele><time>2026-04-05T15:19:42Z</time></trkpt><trkpt lat="39.35563218686014" lon="9.556074090635962"><ele>9.0</ele><time>2026-04-05T15:19:43Z</time></trkpt><trkpt lat="39.355731427540796" lon="9.556318350792962"><ele>9.0</ele><time>2026-04-05T15:19:44Z</time></trkpt><trkpt lat="39.35583187090468" lon="9.556570466977513"><ele>9.0</ele><time>2026-04-05T15:19:45Z</time></trkpt><trkpt lat="39.355938116517066" lon="9.556833557460003"><ele>9.0</ele><time>2026-04-05T15:19:46Z</time></trkpt><trkpt lat="39.35604657838415" lon="9.55709681018508"><ele>9.0</ele><time>2026-04-05T15:19:47Z</time></trkpt><trkpt lat="39.35615474222016" lon="9.557362363338006"><ele>9.0</ele><time>2026-04-05T15:19:48Z</time></trkpt><trkpt lat="39.35626365557763" lon="9.557628425820354"><ele>10.0</ele><time>2026-04-05T15:19:49Z</time></trkpt><trkpt lat="39.35637353727809" lon="9.557892440458675"><ele>11.0</ele><time>2026-04-05T15:19:50Z</time></trkpt><trkpt lat="39.356482551929496" lon="9.558152397989202"><ele>11.0</ele><time>2026-04-05T15:19:51Z</time></trkpt><trkpt lat="39.356590389733135" lon="9.558413982553423"><ele>11.0</ele><time>2026-04-05T15:19:52Z</time></trkpt><trkpt lat="39.35669888277942" lon="9.558678477179484"><ele>10.0</ele><time>2026-04-05T15:19:53Z</time></trkpt><trkpt lat="39.35680532969426" lon="9.558939928694459"><ele>9.0</ele><time>2026-04-05T15:19:54Z</time></trkpt><trkpt lat="39.35689911966085" lon="9.559219417325993"><ele>9.0</ele><time>2026-04-05T15:19:55Z</time></trkpt><trkpt lat="39.35701457116301" lon="9.559490441611173"><ele>9.0</ele><time>2026-04-05T15:19:56Z</time></trkpt><trkpt lat="39.357146780003895" lon="9.559756403416042"><ele>10.0</ele><time>2026-04-05T15:19:57Z</time></trkpt><trkpt lat="39.35725549753868" lon="9.56002542232351"><ele>11.0</ele><time>2026-04-05T15:19:58Z</time></trkpt><trkpt lat="39.357359979060575" lon="9.560285914601765"><ele>11.0</ele><time>2026-04-05T15:19:59Z</time></trkpt><trkpt lat="39.35746482668563" lon="9.560543411311004"><ele>11.0</ele><time>2026-04-05T15:20:00Z</time></trkpt><trkpt lat="39.357571733380155" lon="9.560804889474127"><ele>11.0</ele><time>2026-04-05T15:20:01Z</time></trkpt><trkpt lat="39.35768051883866" lon="9.561068287434104"><ele>11.0</ele><time>2026-04-05T15:20:02Z</time></trkpt><trkpt lat="39.35777889977697" lon="9.561315404544384"><ele>11.0</ele><time>2026-04-05T15:20:03Z</time></trkpt><trkpt lat="39.35786545088157" lon="9.561542855032183"><ele>11.333333333333332</ele><time>2026-04-05T15:20:04Z</time></trkpt><trkpt lat="39.357948031483765" lon="9.561745002097132"><ele>11.666666666666666</ele><time>2026-04-05T15:20:05Z</time></trkpt><trkpt lat="39.35802695650557" lon="9.561935326812407"><ele>12.0</ele><time>2026-04-05T15:20:06Z</time></trkpt><trkpt lat="39.358111183358446" lon="9.562128873553846"><ele>12.0</ele><time>2026-04-05T15:20:07Z</time></trkpt><trkpt lat="39.358206324174425" lon="9.56235067857161"><ele>12.0</ele><time>2026-04-05T15:20:08Z</time></trkpt><trkpt lat="39.35830351274906" lon="9.562597846559353"><ele>12.0</ele><time>2026-04-05T15:20:09Z</time></trkpt><trkpt lat="39.358408376979575" lon="9.562855618749772"><ele>12.0</ele><time>2026-04-05T15:20:10Z</time></trkpt><trkpt lat="39.35851642715987" lon="9.563124096495287"><ele>12.0</ele><time>2026-04-05T15:20:11Z</time></trkpt><trkpt lat="39.35862734666336" lon="9.56340047691591"><ele>12.0</ele><time>2026-04-05T15:20:12Z</time></trkpt><trkpt lat="39.35873985797122" lon="9.563670179714352"><ele>12.0</ele><time>2026-04-05T15:20:13Z</time></trkpt><trkpt lat="39.35885923127618" lon="9.563932554216592"><ele>12.5</ele><time>2026-04-05T15:20:14Z</time></trkpt><trkpt lat="39.35899496501836" lon="9.564171410127004"><ele>13.0</ele><time>2026-04-05T15:20:15Z</time></trkpt><trkpt lat="39.35913543456474" lon="9.564411776525986"><ele>12.5</ele><time>2026-04-05T15:20:16Z</time></trkpt><trkpt lat="39.35927884133798" lon="9.564653205343392"><ele>12.0</ele><time>2026-04-05T15:20:17Z</time></trkpt><trkpt lat="39.35941930194307" lon="9.564871533285825"><ele>12.0</ele><time>2026-04-05T15:20:18Z</time></trkpt><trkpt lat="39.359564581441475" lon="9.565049313016075"><ele>12.0</ele><time>2026-04-05T15:20:19Z</time></trkpt><trkpt lat="39.35970427173453" lon="9.565183070390512"><ele>12.0</ele><time>2026-04-05T15:20:20Z</time></trkpt><trkpt lat="39.35982526263163" lon="9.565316010131731"><ele>10.5</ele><time>2026-04-05T15:20:21Z</time></trkpt><trkpt lat="39.359910017938645" lon="9.565468213438109"><ele>9.0</ele><time>2026-04-05T15:20:22Z</time></trkpt><trkpt lat="39.35995084537229" lon="9.565625152377676"><ele>7.5</ele><time>2026-04-05T15:20:23Z</time></trkpt><trkpt lat="39.35997340229547" lon="9.565801996247211"><ele>6.0</ele><time>2026-04-05T15:20:24Z</time></trkpt><trkpt lat="39.35999309897355" lon="9.56600529891232"><ele>6.333333333333334</ele><time>2026-04-05T15:20:25Z</time></trkpt><trkpt lat="39.36000587836512" lon="9.566234965725265"><ele>6.666666666666667</ele><time>2026-04-05T15:20:26Z</time></trkpt><trkpt lat="39.36002389121548" lon="9.566476653890653"><ele>7.0</ele><time>2026-04-05T15:20:27Z</time></trkpt><trkpt lat="39.36004220051178" lon="9.56674205734998"><ele>7.0</ele><time>2026-04-05T15:20:28Z</time></trkpt><trkpt lat="39.36006261820574" lon="9.56703342994786"><ele>7.0</ele><time>2026-04-05T15:20:29Z</time></trkpt><trkpt lat="39.36008159008349" lon="9.567339888880458"><ele>7.0</ele><time>2026-04-05T15:20:30Z</time></trkpt><trkpt lat="39.360098204855504" lon="9.567655181893354"><ele>7.0</ele><time>2026-04-05T15:20:31Z</time></trkpt><trkpt lat="39.36011970142193" lon="9.567972143702033"><ele>7.5</ele><time>2026-04-05T15:20:32Z</time></trkpt><trkpt lat="39.36014123946374" lon="9.568275217483018"><ele>8.0</ele><time>2026-04-05T15:20:33Z</time></trkpt><trkpt lat="39.360158579133646" lon="9.568555066731"><ele>7.666666666666666</ele><time>2026-04-05T15:20:34Z</time></trkpt><trkpt lat="39.360175078591254" lon="9.568819736350045"><ele>7.333333333333334</ele><time>2026-04-05T15:20:35Z</time></trkpt><trkpt lat="39.360194589186364" lon="9.569060799333984"><ele>7.0</ele><time>2026-04-05T15:20:36Z</time></trkpt><trkpt lat="39.3602191225254" lon="9.569272156793115"><ele>7.0</ele><time>2026-04-05T15:20:37Z</time></trkpt><trkpt lat="39.36021820061212" lon="9.569466001163509"><ele>7.0</ele><time>2026-04-05T15:20:38Z</time></trkpt><trkpt lat="39.360367966092305" lon="9.56962634226398"><ele>7.0</ele><time>2026-04-05T15:20:39Z</time></trkpt><trkpt lat="39.36051234322524" lon="9.569747635899523"><ele>8.333333333333334</ele><time>2026-04-05T15:20:40Z</time></trkpt><trkpt lat="39.360685567513855" lon="9.569838303303493"><ele>9.666666666666666</ele><time>2026-04-05T15:20:41Z</time></trkpt><trkpt lat="39.36084129650811" lon="9.569947029509931"><ele>11.0</ele><time>2026-04-05T15:20:42Z</time></trkpt><trkpt lat="39.360961167193516" lon="9.570122432220648"><ele>11.0</ele><time>2026-04-05T15:20:43Z</time></trkpt><trkpt lat="39.36105798560776" lon="9.570353599644374"><ele>11.0</ele><time>2026-04-05T15:20:44Z</time></trkpt><trkpt lat="39.36114509246365" lon="9.570615239709813"><ele>11.0</ele><time>2026-04-05T15:20:45Z</time></trkpt><trkpt lat="39.36122054927807" lon="9.57089982698529"><ele>13.5</ele><time>2026-04-05T15:20:46Z</time></trkpt><trkpt lat="39.36128812289757" lon="9.5711909825753"><ele>16.0</ele><time>2026-04-05T15:20:47Z</time></trkpt><trkpt lat="39.36137660607434" lon="9.571468549737489"><ele>16.0</ele><time>2026-04-05T15:20:48Z</time></trkpt><trkpt lat="39.361505010547056" lon="9.571742768882986"><ele>16.0</ele><time>2026-04-05T15:20:49Z</time></trkpt><trkpt lat="39.36165531048782" lon="9.57201772276034"><ele>16.5</ele><time>2026-04-05T15:20:50Z</time></trkpt><trkpt lat="39.361804554963165" lon="9.572296987764393"><ele>17.0</ele><time>2026-04-05T15:20:51Z</time></trkpt><trkpt lat="39.36195145123965" lon="9.572586624784556"><ele>17.0</ele><time>2026-04-05T15:20:52Z</time></trkpt><trkpt lat="39.362099082746425" lon="9.572876080209234"><ele>17.0</ele><time>2026-04-05T15:20:53Z</time></trkpt><trkpt lat="39.362251867369174" lon="9.57316692929083"><ele>17.0</ele><time>2026-04-05T15:20:54Z</time></trkpt><trkpt lat="39.362407030186574" lon="9.573463736385417"><ele>17.0</ele><time>2026-04-05T15:20:55Z</time></trkpt><trkpt lat="39.3625607812577" lon="9.573764534122315"><ele>17.5</ele><time>2026-04-05T15:20:56Z</time></trkpt><trkpt lat="39.36271383033613" lon="9.574063424203699"><ele>18.0</ele><time>2026-04-05T15:20:57Z</time></trkpt><trkpt lat="39.362864448280106" lon="9.574357513264593"><ele>17.5</ele><time>2026-04-05T15:20:58Z</time></trkpt><trkpt lat="39.36301556401183" lon="9.574649920465061"><ele>17.0</ele><time>2026-04-05T15:20:59Z</time></trkpt><trkpt lat="39.36316477309791" lon="9.5749423514776"><ele>17.0</ele><time>2026-04-05T15:21:00Z</time></trkpt><trkpt lat="39.36331350747129" lon="9.575233426198352"><ele>17.0</ele><time>2026-04-05T15:21:01Z</time></trkpt><trkpt lat="39.36346229030879" lon="9.575521746388874"><ele>17.5</ele><time>2026-04-05T15:21:02Z</time></trkpt><trkpt lat="39.36361311180709" lon="9.575811781982177"><ele>18.0</ele><time>2026-04-05T15:21:03Z</time></trkpt><trkpt lat="39.36376224693917" lon="9.576104122595588"><ele>18.5</ele><time>2026-04-05T15:21:04Z</time></trkpt><trkpt lat="39.363911438513476" lon="9.57639909067799"><ele>19.0</ele><time>2026-04-05T15:21:05Z</time></trkpt><trkpt lat="39.36406377054906" lon="9.576698458968753"><ele>19.0</ele><time>2026-04-05T15:21:06Z</time></trkpt><trkpt lat="39.364220112591475" lon="9.576998749503355"><ele>19.0</ele><time>2026-04-05T15:21:07Z</time></trkpt><trkpt lat="39.36437072142868" lon="9.577288389263403"><ele>19.0</ele><time>2026-04-05T15:21:08Z</time></trkpt><trkpt lat="39.36452032346575" lon="9.577579247706629"><ele>19.0</ele><time>2026-04-05T15:21:09Z</time></trkpt><trkpt lat="39.364669568141366" lon="9.577878695747383"><ele>18.5</ele><time>2026-04-05T15:21:10Z</time></trkpt><trkpt lat="39.36481999787221" lon="9.578182116365543"><ele>18.0</ele><time>2026-04-05T15:21:11Z</time></trkpt><trkpt lat="39.36497587362735" lon="9.578490566581866"><ele>17.0</ele><time>2026-04-05T15:21:12Z</time></trkpt><trkpt lat="39.36513554154275" lon="9.578798020522154"><ele>16.0</ele><time>2026-04-05T15:21:13Z</time></trkpt><trkpt lat="39.36529548609321" lon="9.579101124390464"><ele>16.0</ele><time>2026-04-05T15:21:14Z</time></trkpt><trkpt lat="39.36545056673334" lon="9.57939871732812"><ele>16.0</ele><time>2026-04-05T15:21:15Z</time></trkpt><trkpt lat="39.36560378281291" lon="9.579694156755155"><ele>15.0</ele><time>2026-04-05T15:21:16Z</time></trkpt><trkpt lat="39.36575560179774" lon="9.579991872469385"><ele>14.0</ele><time>2026-04-05T15:21:17Z</time></trkpt><trkpt lat="39.36590952871007" lon="9.580292268782157"><ele>13.0</ele><time>2026-04-05T15:21:18Z</time></trkpt><trkpt lat="39.36606372799894" lon="9.580594478097758"><ele>12.0</ele><time>2026-04-05T15:21:19Z</time></trkpt><trkpt lat="39.366214402929785" lon="9.580887407216158"><ele>12.0</ele><time>2026-04-05T15:21:20Z</time></trkpt><trkpt lat="39.36635897341199" lon="9.58117195894234"><ele>12.0</ele><time>2026-04-05T15:21:21Z</time></trkpt><trkpt lat="39.36649784240534" lon="9.581446261577847"><ele>14.0</ele><time>2026-04-05T15:21:22Z</time></trkpt><trkpt lat="39.366629922718325" lon="9.581708717123407"><ele>16.0</ele><time>2026-04-05T15:21:23Z</time></trkpt><trkpt lat="39.36675391859516" lon="9.581948809148548"><ele>15.0</ele><time>2026-04-05T15:21:24Z</time></trkpt><trkpt lat="39.36687445456406" lon="9.58217629649288"><ele>14.0</ele><time>2026-04-05T15:21:25Z</time></trkpt><trkpt lat="39.36699639486229" lon="9.582384566482736"><ele>13.0</ele><time>2026-04-05T15:21:26Z</time></trkpt><trkpt lat="39.367117002747676" lon="9.58263539347699"><ele>14.5</ele><time>2026-04-05T15:21:27Z</time></trkpt><trkpt lat="39.367270755642046" lon="9.582881037138263"><ele>16.0</ele><time>2026-04-05T15:21:28Z</time></trkpt><trkpt lat="39.367418298012666" lon="9.583156285323613"><ele>16.0</ele><time>2026-04-05T15:21:29Z</time></trkpt><trkpt lat="39.3675848501007" lon="9.583426456195053"><ele>16.0</ele><time>2026-04-05T15:21:30Z</time></trkpt><trkpt lat="39.36775855047944" lon="9.583690583083085"><ele>16.0</ele><time>2026-04-05T15:21:31Z</time></trkpt><trkpt lat="39.367942092987015" lon="9.583953953629717"><ele>16.0</ele><time>2026-04-05T15:21:32Z</time></trkpt><trkpt lat="39.36813227609902" lon="9.58421470661698"><ele>16.0</ele><time>2026-04-05T15:21:33Z</time></trkpt><trkpt lat="39.36833938795349" lon="9.584474116122845"><ele>16.0</ele><time>2026-04-05T15:21:34Z</time></trkpt><trkpt lat="39.36855435863246" lon="9.584723315920705"><ele>17.0</ele><time>2026-04-05T15:21:35Z</time></trkpt><trkpt lat="39.368757680891456" lon="9.5849578852388"><ele>18.0</ele><time>2026-04-05T15:21:36Z</time></trkpt><trkpt lat="39.368967359853606" lon="9.585173367904314"><ele>15.0</ele><time>2026-04-05T15:21:37Z</time></trkpt><trkpt lat="39.36917220365324" lon="9.585371975701564"><ele>12.0</ele><time>2026-04-05T15:21:38Z</time></trkpt><trkpt lat="39.36937254981267" lon="9.585559862577792"><ele>12.0</ele><time>2026-04-05T15:21:39Z</time></trkpt><trkpt lat="39.36957868630069" lon="9.585729768729204"><ele>12.0</ele><time>2026-04-05T15:21:40Z</time></trkpt><trkpt lat="39.36980369628144" lon="9.585895934865238"><ele>12.0</ele><time>2026-04-05T15:21:41Z</time></trkpt><trkpt lat="39.37003572194953" lon="9.58608796994077"><ele>12.0</ele><time>2026-04-05T15:21:42Z</time></trkpt><trkpt lat="39.370291401525414" lon="9.58625191686044"><ele>11.5</ele><time>2026-04-05T15:21:43Z</time></trkpt><trkpt lat="39.370550503302645" lon="9.586414666775266"><ele>11.0</ele><time>2026-04-05T15:21:44Z</time></trkpt><trkpt lat="39.370820884619135" lon="9.586564251119528"><ele>11.0</ele><time>2026-04-05T15:21:45Z</time></trkpt><trkpt lat="39.37108024614554" lon="9.586728473103994"><ele>11.0</ele><time>2026-04-05T15:21:46Z</time></trkpt><trkpt lat="39.37133913731911" lon="9.58689141168457"><ele>9.0</ele><time>2026-04-05T15:21:47Z</time></trkpt><trkpt lat="39.37159811759351" lon="9.587050885254378"><ele>7.0</ele><time>2026-04-05T15:21:48Z</time></trkpt><trkpt lat="39.37185471519419" lon="9.587211942274228"><ele>7.0</ele><time>2026-04-05T15:21:49Z</time></trkpt><trkpt lat="39.37211816304418" lon="9.587370601511124"><ele>7.0</ele><time>2026-04-05T15:21:50Z</time></trkpt><trkpt lat="39.37238596392458" lon="9.587539263369438"><ele>7.0</ele><time>2026-04-05T15:21:51Z</time></trkpt><trkpt lat="39.37265335740071" lon="9.587732859127984"><ele>7.0</ele><time>2026-04-05T15:21:52Z</time></trkpt><trkpt lat="39.37293421823758" lon="9.58788373481278"><ele>7.0</ele><time>2026-04-05T15:21:53Z</time></trkpt><trkpt lat="39.373204996714264" lon="9.58807791268324"><ele>7.0</ele><time>2026-04-05T15:21:54Z</time></trkpt><trkpt lat="39.373485399825064" lon="9.588253543412122"><ele>7.0</ele><time>2026-04-05T15:21:55Z</time></trkpt><trkpt lat="39.3737724554348" lon="9.588408048494303"><ele>7.0</ele><time>2026-04-05T15:21:56Z</time></trkpt><trkpt lat="39.374044487971204" lon="9.588602234837621"><ele>9.0</ele><time>2026-04-05T15:21:57Z</time></trkpt><trkpt lat="39.37432638034802" lon="9.588781073228546"><ele>11.0</ele><time>2026-04-05T15:21:58Z</time></trkpt><trkpt lat="39.374608670024" lon="9.588960163683758"><ele>11.0</ele><time>2026-04-05T15:21:59Z</time></trkpt><trkpt lat="39.374902130048476" lon="9.58911346884856"><ele>11.0</ele><time>2026-04-05T15:22:00Z</time></trkpt><trkpt lat="39.37518127429891" lon="9.589292268984003"><ele>11.0</ele><time>2026-04-05T15:22:01Z</time></trkpt><trkpt lat="39.375462688848884" lon="9.589470482719747"><ele>11.0</ele><time>2026-04-05T15:22:02Z</time></trkpt><trkpt lat="39.375748464015444" lon="9.589646615833866"><ele>12.5</ele><time>2026-04-05T15:22:03Z</time></trkpt><trkpt lat="39.3760273587034" lon="9.589849920958983"><ele>14.0</ele><time>2026-04-05T15:22:04Z</time></trkpt><trkpt lat="39.3763126821328" lon="9.590028870987526"><ele>14.0</ele><time>2026-04-05T15:22:05Z</time></trkpt><trkpt lat="39.37660067570538" lon="9.590207865848702"><ele>14.0</ele><time>2026-04-05T15:22:06Z</time></trkpt><trkpt lat="39.37689239006247" lon="9.59036270007642"><ele>14.0</ele><time>2026-04-05T15:22:07Z</time></trkpt><trkpt lat="39.37717052669841" lon="9.590537319582147"><ele>14.0</ele><time>2026-04-05T15:22:08Z</time></trkpt><trkpt lat="39.37744824225445" lon="9.590711082660102"><ele>15.5</ele><time>2026-04-05T15:22:09Z</time></trkpt><trkpt lat="39.377728434953994" lon="9.59088869520513"><ele>17.0</ele><time>2026-04-05T15:22:10Z</time></trkpt><trkpt lat="39.37800657115639" lon="9.591067574921967"><ele>17.0</ele><time>2026-04-05T15:22:11Z</time></trkpt><trkpt lat="39.37828751822023" lon="9.591245524569588"><ele>17.0</ele><time>2026-04-05T15:22:12Z</time></trkpt><trkpt lat="39.378573016446204" lon="9.591417402156127"><ele>17.0</ele><time>2026-04-05T15:22:13Z</time></trkpt><trkpt lat="39.37884675031555" lon="9.591587426065429"><ele>17.0</ele><time>2026-04-05T15:22:14Z</time></trkpt><trkpt lat="39.37912864553037" lon="9.59176131217302"><ele>17.5</ele><time>2026-04-05T15:22:15Z</time></trkpt><trkpt lat="39.379402599167726" lon="9.591926782733047"><ele>18.0</ele><time>2026-04-05T15:22:16Z</time></trkpt><trkpt lat="39.37967500439556" lon="9.592106702237968"><ele>18.0</ele><time>2026-04-05T15:22:17Z</time></trkpt><trkpt lat="39.379943612383286" lon="9.59227760889648"><ele>18.0</ele><time>2026-04-05T15:22:18Z</time></trkpt><trkpt lat="39.38021714773358" lon="9.592448881559783"><ele>18.0</ele><time>2026-04-05T15:22:19Z</time></trkpt><trkpt lat="39.38049270167449" lon="9.59262195182474"><ele>18.0</ele><time>2026-04-05T15:22:20Z</time></trkpt><trkpt lat="39.3807729473658" lon="9.592797976469848"><ele>19.0</ele><time>2026-04-05T15:22:21Z</time></trkpt><trkpt lat="39.381052456121104" lon="9.592974720643275"><ele>20.0</ele><time>2026-04-05T15:22:22Z</time></trkpt><trkpt lat="39.38133092019794" lon="9.593149053075912"><ele>20.5</ele><time>2026-04-05T15:22:23Z</time></trkpt><trkpt lat="39.38160531508617" lon="9.593321462272648"><ele>21.0</ele><time>2026-04-05T15:22:24Z</time></trkpt><trkpt lat="39.38187383669193" lon="9.593490740504631"><ele>21.0</ele><time>2026-04-05T15:22:25Z</time></trkpt><trkpt lat="39.382144924913085" lon="9.593660361216811"><ele>21.0</ele><time>2026-04-05T15:22:26Z</time></trkpt><trkpt lat="39.38241533291871" lon="9.593829057444436"><ele>22.0</ele><time>2026-04-05T15:22:27Z</time></trkpt><trkpt lat="39.38269185294243" lon="9.594000074040464"><ele>23.0</ele><time>2026-04-05T15:22:28Z</time></trkpt><trkpt lat="39.38296776345972" lon="9.594170739286433"><ele>23.5</ele><time>2026-04-05T15:22:29Z</time></trkpt><trkpt lat="39.383240151237835" lon="9.59434066987002"><ele>24.0</ele><time>2026-04-05T15:22:30Z</time></trkpt><trkpt lat="39.38350682956875" lon="9.594507361984265"><ele>23.5</ele><time>2026-04-05T15:22:31Z</time></trkpt><trkpt lat="39.38376866570425" lon="9.59467379096538"><ele>23.0</ele><time>2026-04-05T15:22:32Z</time></trkpt><trkpt lat="39.38402695785565" lon="9.594835973594266"><ele>23.0</ele><time>2026-04-05T15:22:33Z</time></trkpt><trkpt lat="39.38427889204711" lon="9.594999398006252"><ele>23.0</ele><time>2026-04-05T15:22:34Z</time></trkpt><trkpt lat="39.38452789854483" lon="9.595154596207585"><ele>23.5</ele><time>2026-04-05T15:22:35Z</time></trkpt><trkpt lat="39.384765020865665" lon="9.595301514297168"><ele>24.0</ele><time>2026-04-05T15:22:36Z</time></trkpt><trkpt lat="39.384992000331536" lon="9.595442406601885"><ele>22.5</ele><time>2026-04-05T15:22:37Z</time></trkpt><trkpt lat="39.385209642748215" lon="9.595587156718647"><ele>21.0</ele><time>2026-04-05T15:22:38Z</time></trkpt><trkpt lat="39.38542044219992" lon="9.595744846853222"><ele>21.5</ele><time>2026-04-05T15:22:39Z</time></trkpt><trkpt lat="39.38562150832509" lon="9.595936908491339"><ele>22.0</ele><time>2026-04-05T15:22:40Z</time></trkpt><trkpt lat="39.38581677391462" lon="9.596163396071963"><ele>20.0</ele><time>2026-04-05T15:22:41Z</time></trkpt><trkpt lat="39.38601623907761" lon="9.59641391185923"><ele>18.0</ele><time>2026-04-05T15:22:42Z</time></trkpt><trkpt lat="39.386221236594906" lon="9.596669932440745"><ele>18.0</ele><time>2026-04-05T15:22:43Z</time></trkpt><trkpt lat="39.386431136342296" lon="9.596932230958583"><ele>18.0</ele><time>2026-04-05T15:22:44Z</time></trkpt><trkpt lat="39.38664353530682" lon="9.597198608279008"><ele>16.5</ele><time>2026-04-05T15:22:45Z</time></trkpt><trkpt lat="39.38685809056647" lon="9.597470996088127"><ele>15.0</ele><time>2026-04-05T15:22:46Z</time></trkpt><trkpt lat="39.3870757112824" lon="9.597747579705041"><ele>15.0</ele><time>2026-04-05T15:22:47Z</time></trkpt><trkpt lat="39.387295053027394" lon="9.598025868368303"><ele>15.0</ele><time>2026-04-05T15:22:48Z</time></trkpt><trkpt lat="39.38751568762549" lon="9.598307054958727"><ele>15.0</ele><time>2026-04-05T15:22:49Z</time></trkpt><trkpt lat="39.38773824175625" lon="9.598594480861415"><ele>15.0</ele><time>2026-04-05T15:22:50Z</time></trkpt><trkpt lat="39.38795873147596" lon="9.598880831378661"><ele>15.0</ele><time>2026-04-05T15:22:51Z</time></trkpt><trkpt lat="39.388178732821494" lon="9.599165665898067"><ele>15.0</ele><time>2026-04-05T15:22:52Z</time></trkpt><trkpt lat="39.38839934038452" lon="9.599447326846219"><ele>14.5</ele><time>2026-04-05T15:22:53Z</time></trkpt><trkpt lat="39.38862049597933" lon="9.599730664884113"><ele>14.0</ele><time>2026-04-05T15:22:54Z</time></trkpt><trkpt lat="39.38883773622314" lon="9.600008561539852"><ele>14.0</ele><time>2026-04-05T15:22:55Z</time></trkpt><trkpt lat="39.38905488878113" lon="9.600286837221422"><ele>14.0</ele><time>2026-04-05T15:22:56Z</time></trkpt><trkpt lat="39.38927738090897" lon="9.600568837746028"><ele>14.0</ele><time>2026-04-05T15:22:57Z</time></trkpt><trkpt lat="39.38950112327686" lon="9.600853106607909"><ele>14.0</ele><time>2026-04-05T15:22:58Z</time></trkpt><trkpt lat="39.38971921473621" lon="9.601130357834395"><ele>14.0</ele><time>2026-04-05T15:22:59Z</time></trkpt><trkpt lat="39.38993870603725" lon="9.601412021367265"><ele>14.0</ele><time>2026-04-05T15:23:00Z</time></trkpt><trkpt lat="39.39016151959575" lon="9.601698856080928"><ele>14.0</ele><time>2026-04-05T15:23:01Z</time></trkpt><trkpt lat="39.39038722108081" lon="9.601990612125347"><ele>14.0</ele><time>2026-04-05T15:23:02Z</time></trkpt><trkpt lat="39.390614978782104" lon="9.60229036073185"><ele>14.5</ele><time>2026-04-05T15:23:03Z</time></trkpt><trkpt lat="39.39084523330192" lon="9.60259431559321"><ele>15.0</ele><time>2026-04-05T15:23:04Z</time></trkpt><trkpt lat="39.391073403228724" lon="9.602889583518074"><ele>15.0</ele><time>2026-04-05T15:23:05Z</time></trkpt><trkpt lat="39.39129842906165" lon="9.603181305591328"><ele>15.0</ele><time>2026-04-05T15:23:06Z</time></trkpt><trkpt lat="39.391521241249414" lon="9.60347430606514"><ele>13.5</ele><time>2026-04-05T15:23:07Z</time></trkpt><trkpt lat="39.3917511227606" lon="9.60377340776831"><ele>12.0</ele><time>2026-04-05T15:23:08Z</time></trkpt><trkpt lat="39.391979106703275" lon="9.604066830031567"><ele>13.0</ele><time>2026-04-05T15:23:09Z</time></trkpt><trkpt lat="39.39219289531242" lon="9.604344392688684"><ele>14.0</ele><time>2026-04-05T15:23:10Z</time></trkpt><trkpt lat="39.39239135714756" lon="9.604600123894144"><ele>12.0</ele><time>2026-04-05T15:23:11Z</time></trkpt><trkpt lat="39.39257833466996" lon="9.604836109664234"><ele>10.0</ele><time>2026-04-05T15:23:12Z</time></trkpt><trkpt lat="39.39276250764492" lon="9.605048603892714"><ele>10.0</ele><time>2026-04-05T15:23:13Z</time></trkpt><trkpt lat="39.3929558879428" lon="9.605221814076643"><ele>10.0</ele><time>2026-04-05T15:23:14Z</time></trkpt><trkpt lat="39.39317309240563" lon="9.60535487672224"><ele>9.5</ele><time>2026-04-05T15:23:15Z</time></trkpt><trkpt lat="39.393413765972994" lon="9.605443240187084"><ele>9.0</ele><time>2026-04-05T15:23:16Z</time></trkpt><trkpt lat="39.39368255163023" lon="9.60549173096006"><ele>9.5</ele><time>2026-04-05T15:23:17Z</time></trkpt><trkpt lat="39.39397128428631" lon="9.605505325835217"><ele>10.0</ele><time>2026-04-05T15:23:18Z</time></trkpt><trkpt lat="39.394267422542626" lon="9.605545700227538"><ele>10.0</ele><time>2026-04-05T15:23:19Z</time></trkpt><trkpt lat="39.39457120756734" lon="9.60558746521861"><ele>10.0</ele><time>2026-04-05T15:23:20Z</time></trkpt><trkpt lat="39.39487400880823" lon="9.605630040712612"><ele>10.0</ele><time>2026-04-05T15:23:21Z</time></trkpt><trkpt lat="39.39517004159767" lon="9.605653137364417"><ele>10.0</ele><time>2026-04-05T15:23:22Z</time></trkpt><trkpt lat="39.39546082780132" lon="9.605696073523934"><ele>10.5</ele><time>2026-04-05T15:23:23Z</time></trkpt><trkpt lat="39.395745758206886" lon="9.605740778460534"><ele>11.0</ele><time>2026-04-05T15:23:24Z</time></trkpt><trkpt lat="39.396037036824566" lon="9.605785180545752"><ele>10.0</ele><time>2026-04-05T15:23:25Z</time></trkpt><trkpt lat="39.39633917890617" lon="9.605832173585705"><ele>9.0</ele><time>2026-04-05T15:23:26Z</time></trkpt><trkpt lat="39.39663833391194" lon="9.60587728637731"><ele>9.0</ele><time>2026-04-05T15:23:27Z</time></trkpt><trkpt lat="39.39692040673627" lon="9.60591381807048"><ele>9.0</ele><time>2026-04-05T15:23:28Z</time></trkpt><trkpt lat="39.397193263280876" lon="9.605934572876155"><ele>8.0</ele><time>2026-04-05T15:23:29Z</time></trkpt><trkpt lat="39.39745261183821" lon="9.605927105472228"><ele>7.0</ele><time>2026-04-05T15:23:30Z</time></trkpt><trkpt lat="39.3976966764744" lon="9.605884094599137"><ele>7.0</ele><time>2026-04-05T15:23:31Z</time></trkpt><trkpt lat="39.397943859182355" lon="9.60580221203934"><ele>7.0</ele><time>2026-04-05T15:23:32Z</time></trkpt><trkpt lat="39.39820859079104" lon="9.605689531109725"><ele>6.5</ele><time>2026-04-05T15:23:33Z</time></trkpt><trkpt lat="39.39848618057472" lon="9.605572623846562"><ele>6.0</ele><time>2026-04-05T15:23:34Z</time></trkpt><trkpt lat="39.398771906656" lon="9.605458998103359"><ele>6.0</ele><time>2026-04-05T15:23:35Z</time></trkpt><trkpt lat="39.399066119575636" lon="9.60534909204242"><ele>6.0</ele><time>2026-04-05T15:23:36Z</time></trkpt><trkpt lat="39.399369376843076" lon="9.605233987776161"><ele>5.5</ele><time>2026-04-05T15:23:37Z</time></trkpt><trkpt lat="39.39967825024838" lon="9.605102612923288"><ele>5.0</ele><time>2026-04-05T15:23:38Z</time></trkpt><trkpt lat="39.39998918251488" lon="9.604951974827639"><ele>5.0</ele><time>2026-04-05T15:23:39Z</time></trkpt><trkpt lat="39.40029230371398" lon="9.60479057500141"><ele>5.0</ele><time>2026-04-05T15:23:40Z</time></trkpt><trkpt lat="39.400596601320956" lon="9.604647207301921"><ele>6.0</ele><time>2026-04-05T15:23:41Z</time></trkpt><trkpt lat="39.400884129685394" lon="9.60447186445843"><ele>7.0</ele><time>2026-04-05T15:23:42Z</time></trkpt><trkpt lat="39.40116940542292" lon="9.604315513865792"><ele>6.0</ele><time>2026-04-05T15:23:43Z</time></trkpt><trkpt lat="39.40144193146483" lon="9.604153652411437"><ele>5.0</ele><time>2026-04-05T15:23:44Z</time></trkpt><trkpt lat="39.40169658374993" lon="9.603992651256014"><ele>5.0</ele><time>2026-04-05T15:23:45Z</time></trkpt><trkpt lat="39.401953992068286" lon="9.6038220009612"><ele>5.0</ele><time>2026-04-05T15:23:46Z</time></trkpt><trkpt lat="39.40223468094357" lon="9.603663049209773"><ele>6.5</ele><time>2026-04-05T15:23:47Z</time></trkpt><trkpt lat="39.402508570864235" lon="9.603472311899361"><ele>8.0</ele><time>2026-04-05T15:23:48Z</time></trkpt><trkpt lat="39.40279374443136" lon="9.603295741664564"><ele>7.5</ele><time>2026-04-05T15:23:49Z</time></trkpt><trkpt lat="39.403085205798526" lon="9.60311667126159"><ele>7.0</ele><time>2026-04-05T15:23:50Z</time></trkpt><trkpt lat="39.40337263133689" lon="9.60293032119732"><ele>8.0</ele><time>2026-04-05T15:23:51Z</time></trkpt><trkpt lat="39.40364981120844" lon="9.602754369822312"><ele>9.0</ele><time>2026-04-05T15:23:52Z</time></trkpt><trkpt lat="39.403931775504645" lon="9.602577645906017"><ele>9.0</ele><time>2026-04-05T15:23:53Z</time></trkpt><trkpt lat="39.404221069694195" lon="9.602395181326244"><ele>9.0</ele><time>2026-04-05T15:23:54Z</time></trkpt><trkpt lat="39.40451037637709" lon="9.60221046378872"><ele>9.5</ele><time>2026-04-05T15:23:55Z</time></trkpt><trkpt lat="39.40480033690445" lon="9.602028245789135"><ele>10.0</ele><time>2026-04-05T15:23:56Z</time></trkpt><trkpt lat="39.40508476538109" lon="9.60185249373517"><ele>10.0</ele><time>2026-04-05T15:23:57Z</time></trkpt><trkpt lat="39.40536087185283" lon="9.601672419192049"><ele>10.0</ele><time>2026-04-05T15:23:58Z</time></trkpt><trkpt lat="39.40564086378879" lon="9.6014935816308"><ele>9.5</ele><time>2026-04-05T15:23:59Z</time></trkpt><trkpt lat="39.40592055711786" lon="9.601323512660674"><ele>9.0</ele><time>2026-04-05T15:24:00Z</time></trkpt><trkpt lat="39.40619558221981" lon="9.60115537369005"><ele>8.5</ele><time>2026-04-05T15:24:01Z</time></trkpt><trkpt lat="39.40646241323943" lon="9.600988483384434"><ele>8.0</ele><time>2026-04-05T15:24:02Z</time></trkpt><trkpt lat="39.40671009036561" lon="9.600830580630248"><ele>8.0</ele><time>2026-04-05T15:24:03Z</time></trkpt><trkpt lat="39.40696093925339" lon="9.600675460463181"><ele>8.0</ele><time>2026-04-05T15:24:04Z</time></trkpt><trkpt lat="39.407219233481" lon="9.600512024455165"><ele>8.0</ele><time>2026-04-05T15:24:05Z</time></trkpt><trkpt lat="39.40748419398002" lon="9.600342285875596"><ele>8.0</ele><time>2026-04-05T15:24:06Z</time></trkpt><trkpt lat="39.407749565047894" lon="9.60017489242642"><ele>7.0</ele><time>2026-04-05T15:24:07Z</time></trkpt><trkpt lat="39.40802015656809" lon="9.600008616362638"><ele>6.0</ele><time>2026-04-05T15:24:08Z</time></trkpt><trkpt lat="39.40829903533974" lon="9.599833346199839"><ele>6.0</ele><time>2026-04-05T15:24:09Z</time></trkpt><trkpt lat="39.408574577878255" lon="9.59965693601476"><ele>6.0</ele><time>2026-04-05T15:24:10Z</time></trkpt><trkpt lat="39.408847168463915" lon="9.599485371691152"><ele>5.5</ele><time>2026-04-05T15:24:11Z</time></trkpt><trkpt lat="39.409119951799795" lon="9.599316492505686"><ele>5.0</ele><time>2026-04-05T15:24:12Z</time></trkpt><trkpt lat="39.40939224960528" lon="9.599147595522668"><ele>4.5</ele><time>2026-04-05T15:24:13Z</time></trkpt><trkpt lat="39.409663193310664" lon="9.598982764924525"><ele>4.0</ele><time>2026-04-05T15:24:14Z</time></trkpt><trkpt lat="39.40993086956063" lon="9.598814716458332"><ele>5.0</ele><time>2026-04-05T15:24:15Z</time></trkpt><trkpt lat="39.410197969622494" lon="9.598646452791163"><ele>6.0</ele><time>2026-04-05T15:24:16Z</time></trkpt><trkpt lat="39.410464690745236" lon="9.598480616302652"><ele>5.5</ele><time>2026-04-05T15:24:17Z</time></trkpt><trkpt lat="39.41072770432691" lon="9.59831909264658"><ele>5.0</ele><time>2026-04-05T15:24:18Z</time></trkpt><trkpt lat="39.41098230645025" lon="9.59815789675538"><ele>5.0</ele><time>2026-04-05T15:24:19Z</time></trkpt><trkpt lat="39.41122976738098" lon="9.598002294638167"><ele>5.0</ele><time>2026-04-05T15:24:20Z</time></trkpt><trkpt lat="39.411472559797815" lon="9.597849208837173"><ele>5.0</ele><time>2026-04-05T15:24:21Z</time></trkpt><trkpt lat="39.41170466630202" lon="9.597703246768733"><ele>5.0</ele><time>2026-04-05T15:24:22Z</time></trkpt><trkpt lat="39.41193147000196" lon="9.59756005497219"><ele>4.0</ele><time>2026-04-05T15:24:23Z</time></trkpt><trkpt lat="39.41215673420375" lon="9.59741990333376"><ele>3.0</ele><time>2026-04-05T15:24:24Z</time></trkpt><trkpt lat="39.41237432061991" lon="9.597283613237547"><ele>3.0</ele><time>2026-04-05T15:24:25Z</time></trkpt><trkpt lat="39.41258619200769" lon="9.597147680882781"><ele>3.0</ele><time>2026-04-05T15:24:26Z</time></trkpt><trkpt lat="39.41279305164976" lon="9.596995296984915"><ele>4.5</ele><time>2026-04-05T15:24:27Z</time></trkpt><trkpt lat="39.41299915365683" lon="9.596815620883966"><ele>6.0</ele><time>2026-04-05T15:24:28Z</time></trkpt><trkpt lat="39.413192133260836" lon="9.596601153121956"><ele>6.0</ele><time>2026-04-05T15:24:29Z</time></trkpt><trkpt lat="39.41336084850492" lon="9.596359836066172"><ele>6.0</ele><time>2026-04-05T15:24:30Z</time></trkpt><trkpt lat="39.413505823806894" lon="9.596087660483397"><ele>7.0</ele><time>2026-04-05T15:24:31Z</time></trkpt><trkpt lat="39.41363083984695" lon="9.595784584738556"><ele>8.0</ele><time>2026-04-05T15:24:32Z</time></trkpt><trkpt lat="39.413738003963644" lon="9.595447216038378"><ele>7.5</ele><time>2026-04-05T15:24:33Z</time></trkpt><trkpt lat="39.41383489753224" lon="9.595093738952507"><ele>7.0</ele><time>2026-04-05T15:24:34Z</time></trkpt><trkpt lat="39.41393379486237" lon="9.59473272715724"><ele>9.0</ele><time>2026-04-05T15:24:35Z</time></trkpt><trkpt lat="39.414039452925756" lon="9.594366545063126"><ele>11.0</ele><time>2026-04-05T15:24:36Z</time></trkpt><trkpt lat="39.41414500151413" lon="9.593999064707054"><ele>12.5</ele><time>2026-04-05T15:24:37Z</time></trkpt><trkpt lat="39.41424711484283" lon="9.593640468669888"><ele>14.0</ele><time>2026-04-05T15:24:38Z</time></trkpt><trkpt lat="39.41434721220213" lon="9.593292047349864"><ele>14.0</ele><time>2026-04-05T15:24:39Z</time></trkpt><trkpt lat="39.414444371529406" lon="9.592958135704814"><ele>14.0</ele><time>2026-04-05T15:24:40Z</time></trkpt><trkpt lat="39.414536896993134" lon="9.592645453438713"><ele>15.0</ele><time>2026-04-05T15:24:41Z</time></trkpt><trkpt lat="39.41462301522726" lon="9.592354448124143"><ele>16.0</ele><time>2026-04-05T15:24:42Z</time></trkpt><trkpt lat="39.41470479776824" lon="9.592063962206884"><ele>14.0</ele><time>2026-04-05T15:24:43Z</time></trkpt><trkpt lat="39.414779911330115" lon="9.591770935211663"><ele>12.0</ele><time>2026-04-05T15:24:44Z</time></trkpt><trkpt lat="39.41485536638944" lon="9.591473628049192"><ele>12.0</ele><time>2026-04-05T15:24:45Z</time></trkpt><trkpt lat="39.4149390480937" lon="9.591170812420753"><ele>12.0</ele><time>2026-04-05T15:24:46Z</time></trkpt><trkpt lat="39.41503193309678" lon="9.59085373369595"><ele>12.0</ele><time>2026-04-05T15:24:47Z</time></trkpt><trkpt lat="39.41512487459714" lon="9.590537869053387"><ele>12.0</ele><time>2026-04-05T15:24:48Z</time></trkpt><trkpt lat="39.415213169530915" lon="9.590220722150294"><ele>12.0</ele><time>2026-04-05T15:24:49Z</time></trkpt><trkpt lat="39.41529742951908" lon="9.589899579980726"><ele>12.0</ele><time>2026-04-05T15:24:50Z</time></trkpt><trkpt lat="39.41537967766013" lon="9.58959528528234"><ele>12.0</ele><time>2026-04-05T15:24:51Z</time></trkpt><trkpt lat="39.41546061298465" lon="9.589294500845142"><ele>12.0</ele><time>2026-04-05T15:24:52Z</time></trkpt><trkpt lat="39.415542216359874" lon="9.58899448320501"><ele>9.5</ele><time>2026-04-05T15:24:53Z</time></trkpt><trkpt lat="39.41562154181365" lon="9.588703296150207"><ele>7.0</ele><time>2026-04-05T15:24:54Z</time></trkpt><trkpt lat="39.415698517420275" lon="9.588421949401628"><ele>7.0</ele><time>2026-04-05T15:24:55Z</time></trkpt><trkpt lat="39.415766904163604" lon="9.588159156830566"><ele>7.0</ele><time>2026-04-05T15:24:56Z</time></trkpt><trkpt lat="39.41582823604879" lon="9.587917621173615"><ele>7.0</ele><time>2026-04-05T15:24:57Z</time></trkpt><trkpt lat="39.41588295825331" lon="9.587712795051011"><ele>7.3999999999999995</ele><time>2026-04-05T15:24:58Z</time></trkpt><trkpt lat="39.415935154507366" lon="9.587549281984835"><ele>7.799999999999999</ele><time>2026-04-05T15:24:59Z</time></trkpt><trkpt lat="39.41598187107562" lon="9.5874242438688"><ele>8.2</ele><time>2026-04-05T15:25:00Z</time></trkpt><trkpt lat="39.416028980998924" lon="9.5873454483638"><ele>8.6</ele><time>2026-04-05T15:25:01Z</time></trkpt><trkpt lat="39.41610208424893" lon="9.587312042663525"><ele>9.0</ele><time>2026-04-05T15:25:03Z</time></trkpt><trkpt lat="39.416174841032685" lon="9.587417719092157"><ele>9.0</ele><time>2026-04-05T15:25:04Z</time></trkpt><trkpt lat="39.41625892180414" lon="9.587484196283677"><ele>9.0</ele><time>2026-04-05T15:25:05Z</time></trkpt><trkpt lat="39.41632621547529" lon="9.587549885603133"><ele>9.0</ele><time>2026-04-05T15:25:06Z</time></trkpt><trkpt lat="39.41637632217332" lon="9.587604358585551"><ele>9.0</ele><time>2026-04-05T15:25:07Z</time></trkpt><trkpt lat="39.41648310792833" lon="9.587425503517547"><ele>9.0</ele><time>2026-04-05T15:25:09Z</time></trkpt><trkpt lat="39.41654580400123" lon="9.587315063669344"><ele>8.75</ele><time>2026-04-05T15:25:10Z</time></trkpt><trkpt lat="39.41662208018783" lon="9.58719759767243"><ele>8.5</ele><time>2026-04-05T15:25:11Z</time></trkpt><trkpt lat="39.41674336220596" lon="9.587098569281979"><ele>8.25</ele><time>2026-04-05T15:25:12Z</time></trkpt><trkpt lat="39.416893465279564" lon="9.587000565074838"><ele>8.0</ele><time>2026-04-05T15:25:13Z</time></trkpt><trkpt lat="39.41705766885842" lon="9.58689582309429"><ele>7.666666666666666</ele><time>2026-04-05T15:25:14Z</time></trkpt><trkpt lat="39.417236418623624" lon="9.586774849176741"><ele>7.333333333333334</ele><time>2026-04-05T15:25:15Z</time></trkpt><trkpt lat="39.41741261611542" lon="9.586655585457219"><ele>7.0</ele><time>2026-04-05T15:25:16Z</time></trkpt><trkpt lat="39.41760005433895" lon="9.586530922699223"><ele>7.0</ele><time>2026-04-05T15:25:17Z</time></trkpt><trkpt lat="39.41779394695873" lon="9.586403964724505"><ele>7.0</ele><time>2026-04-05T15:25:18Z</time></trkpt><trkpt lat="39.41798735427618" lon="9.586276464878834"><ele>7.0</ele><time>2026-04-05T15:25:19Z</time></trkpt><trkpt lat="39.4181748877963" lon="9.586156124932158"><ele>7.0</ele><time>2026-04-05T15:25:20Z</time></trkpt><trkpt lat="39.4183496170365" lon="9.586040505454323"><ele>7.0</ele><time>2026-04-05T15:25:21Z</time></trkpt><trkpt lat="39.41850931457348" lon="9.58591628880357"><ele>7.0</ele><time>2026-04-05T15:25:22Z</time></trkpt><trkpt lat="39.418648644724115" lon="9.585773608682684"><ele>7.0</ele><time>2026-04-05T15:25:23Z</time></trkpt><trkpt lat="39.41877445933439" lon="9.585589883737361"><ele>7.0</ele><time>2026-04-05T15:25:24Z</time></trkpt><trkpt lat="39.41888524425239" lon="9.58534979102495"><ele>7.0</ele><time>2026-04-05T15:25:25Z</time></trkpt><trkpt lat="39.418993362122556" lon="9.585086040767413"><ele>7.333333333333334</ele><time>2026-04-05T15:25:26Z</time></trkpt><trkpt lat="39.419101201043766" lon="9.584839054045865"><ele>7.666666666666666</ele><time>2026-04-05T15:25:27Z</time></trkpt><trkpt lat="39.41920814003294" lon="9.584609648227682"><ele>8.0</ele><time>2026-04-05T15:25:28Z</time></trkpt><trkpt lat="39.41930533101278" lon="9.584388998430875"><ele>8.666666666666666</ele><time>2026-04-05T15:25:29Z</time></trkpt><trkpt lat="39.41939354523437" lon="9.584186482825741"><ele>9.333333333333334</ele><time>2026-04-05T15:25:30Z</time></trkpt><trkpt lat="39.419482110134744" lon="9.584011062213314"><ele>10.0</ele><time>2026-04-05T15:25:31Z</time></trkpt><trkpt lat="39.419579898835906" lon="9.583865292131858"><ele>9.0</ele><time>2026-04-05T15:25:32Z</time></trkpt><trkpt lat="39.41968178612246" lon="9.58376151182245"><ele>8.0</ele><time>2026-04-05T15:25:33Z</time></trkpt><trkpt lat="39.41980675004074" lon="9.583726523812583"><ele>7.0</ele><time>2026-04-05T15:25:34Z</time></trkpt><trkpt lat="39.41991783651506" lon="9.583708718559553"><ele>6.0</ele><time>2026-04-05T15:25:35Z</time></trkpt><trkpt lat="39.42001386441474" lon="9.583699393772722"><ele>6.5</ele><time>2026-04-05T15:25:36Z</time></trkpt><trkpt lat="39.42011548171477" lon="9.583671411934354"><ele>7.0</ele><time>2026-04-05T15:25:37Z</time></trkpt><trkpt lat="39.420254720630375" lon="9.583660553139078"><ele>7.5</ele><time>2026-04-05T15:25:38Z</time></trkpt><trkpt lat="39.42041786423271" lon="9.583619097761078"><ele>8.0</ele><time>2026-04-05T15:25:39Z</time></trkpt><trkpt lat="39.42058143740104" lon="9.583567894519026"><ele>8.333333333333332</ele><time>2026-04-05T15:25:40Z</time></trkpt><trkpt lat="39.42071921739913" lon="9.583482630570703"><ele>8.666666666666666</ele><time>2026-04-05T15:25:41Z</time></trkpt><trkpt lat="39.42080398862371" lon="9.583319327310543"><ele>9.0</ele><time>2026-04-05T15:25:42Z</time></trkpt><trkpt lat="39.42090228014758" lon="9.583136536032828"><ele>9.0</ele><time>2026-04-05T15:25:43Z</time></trkpt><trkpt lat="39.42100437464782" lon="9.58291922734371"><ele>9.0</ele><time>2026-04-05T15:25:44Z</time></trkpt><trkpt lat="39.4211208489087" lon="9.582689759421207"><ele>9.0</ele><time>2026-04-05T15:25:45Z</time></trkpt><trkpt lat="39.42121970285446" lon="9.58244841011236"><ele>8.0</ele><time>2026-04-05T15:25:46Z</time></trkpt><trkpt lat="39.421321805734614" lon="9.582198646021858"><ele>7.0</ele><time>2026-04-05T15:25:47Z</time></trkpt><trkpt lat="39.421410044343354" lon="9.581963962486835"><ele>6.0</ele><time>2026-04-05T15:25:48Z</time></trkpt><trkpt lat="39.42148462337317" lon="9.581736620288957"><ele>6.0</ele><time>2026-04-05T15:25:49Z</time></trkpt><trkpt lat="39.4215515261823" lon="9.581527986562683"><ele>6.0</ele><time>2026-04-05T15:25:50Z</time></trkpt><trkpt lat="39.42160352888318" lon="9.58136542627943"><ele>6.0</ele><time>2026-04-05T15:25:51Z</time></trkpt><trkpt lat="39.42163671321084" lon="9.581246395442498"><ele>6.0</ele><time>2026-04-05T15:25:52Z</time></trkpt><trkpt lat="39.42167711760743" lon="9.581108646317066"><ele>6.25</ele><time>2026-04-05T15:25:53Z</time></trkpt><trkpt lat="39.4217271975124" lon="9.580941951886352"><ele>6.5</ele><time>2026-04-05T15:25:54Z</time></trkpt><trkpt lat="39.42177975990413" lon="9.58075889237359"><ele>6.75</ele><time>2026-04-05T15:25:55Z</time></trkpt><trkpt lat="39.42183164678383" lon="9.580576489168095"><ele>7.0</ele><time>2026-04-05T15:25:56Z</time></trkpt><trkpt lat="39.4218759805714" lon="9.580412586430484"><ele>7.000000000000001</ele><time>2026-04-05T15:25:57Z</time></trkpt><trkpt lat="39.421901067628085" lon="9.580290152477065"><ele>7.0</ele><time>2026-04-05T15:25:58Z</time></trkpt><trkpt lat="39.421917150910616" lon="9.580187574339618"><ele>7.0</ele><time>2026-04-05T15:25:59Z</time></trkpt><trkpt lat="39.42193055726427" lon="9.580089333768832"><ele>7.0</ele><time>2026-04-05T15:26:00Z</time></trkpt><trkpt lat="39.42194528706393" lon="9.579974061415589"><ele>7.000000000000001</ele><time>2026-04-05T15:26:01Z</time></trkpt><trkpt lat="39.42196378124072" lon="9.579851876852361"><ele>7.0</ele><time>2026-04-05T15:26:02Z</time></trkpt><trkpt lat="39.421983446802365" lon="9.579728150243762"><ele>7.0</ele><time>2026-04-05T15:26:03Z</time></trkpt><trkpt lat="39.422002978383695" lon="9.579609128886712"><ele>6.999999999999999</ele><time>2026-04-05T15:26:04Z</time></trkpt><trkpt lat="39.42202479892109" lon="9.579482401717476"><ele>6.999999999999999</ele><time>2026-04-05T15:26:05Z</time></trkpt><trkpt lat="39.42204678807682" lon="9.579353772084696"><ele>7.0</ele><time>2026-04-05T15:26:06Z</time></trkpt><trkpt lat="39.42206228088888" lon="9.57921304667095"><ele>7.0</ele><time>2026-04-05T15:26:07Z</time></trkpt><trkpt lat="39.422086391749" lon="9.579051898072592"><ele>7.0</ele><time>2026-04-05T15:26:08Z</time></trkpt><trkpt lat="39.42212286587271" lon="9.578855073186539"><ele>7.0</ele><time>2026-04-05T15:26:09Z</time></trkpt><trkpt lat="39.42215330392294" lon="9.578675004324001"><ele>7.0</ele><time>2026-04-05T15:26:10Z</time></trkpt><trkpt lat="39.42217696156508" lon="9.578522852145545"><ele>7.0</ele><time>2026-04-05T15:26:11Z</time></trkpt><trkpt lat="39.42219658186869" lon="9.578394154355973"><ele>7.0</ele><time>2026-04-05T15:26:12Z</time></trkpt><trkpt lat="39.422213850415574" lon="9.578294012354707"><ele>6.999999999999999</ele><time>2026-04-05T15:26:13Z</time></trkpt><trkpt lat="39.422228543157445" lon="9.57820781529"><ele>6.999999999999999</ele><time>2026-04-05T15:26:14Z</time></trkpt><trkpt lat="39.422253708264954" lon="9.578055261065321"><ele>7.0</ele><time>2026-04-05T15:26:16Z</time></trkpt><trkpt lat="39.4222711531988" lon="9.577939306161673"><ele>7.0</ele><time>2026-04-05T15:26:17Z</time></trkpt><trkpt lat="39.42229532311623" lon="9.577773604127957"><ele>7.333333333333334</ele><time>2026-04-05T15:26:18Z</time></trkpt><trkpt lat="39.42233538903621" lon="9.577580640204337"><ele>7.666666666666666</ele><time>2026-04-05T15:26:19Z</time></trkpt><trkpt lat="39.42237253702133" lon="9.577364548035156"><ele>8.0</ele><time>2026-04-05T15:26:20Z</time></trkpt><trkpt lat="39.422409131911216" lon="9.57713919246402"><ele>7.5</ele><time>2026-04-05T15:26:21Z</time></trkpt><trkpt lat="39.42244341778145" lon="9.576943406254646"><ele>7.0</ele><time>2026-04-05T15:26:22Z</time></trkpt><trkpt lat="39.422479184908944" lon="9.576761782496828"><ele>6.5</ele><time>2026-04-05T15:26:23Z</time></trkpt><trkpt lat="39.422515867100806" lon="9.576632158571195"><ele>6.0</ele><time>2026-04-05T15:26:24Z</time></trkpt><trkpt lat="39.42254719765597" lon="9.576477949615581"><ele>6.0</ele><time>2026-04-05T15:26:26Z</time></trkpt><trkpt lat="39.422549939661316" lon="9.57638665048609"><ele>6.0</ele><time>2026-04-05T15:26:27Z</time></trkpt><trkpt lat="39.42255704740808" lon="9.57628239517521"><ele>6.0</ele><time>2026-04-05T15:26:28Z</time></trkpt><trkpt lat="39.422580520120064" lon="9.576162155047884"><ele>6.0</ele><time>2026-04-05T15:26:29Z</time></trkpt><trkpt lat="39.42264011365772" lon="9.575984748696106"><ele>6.0</ele><time>2026-04-05T15:26:30Z</time></trkpt><trkpt lat="39.42271214127151" lon="9.575779015564166"><ele>6.333333333333334</ele><time>2026-04-05T15:26:31Z</time></trkpt><trkpt lat="39.42278429129654" lon="9.575533924744215"><ele>6.666666666666667</ele><time>2026-04-05T15:26:32Z</time></trkpt><trkpt lat="39.422854517522644" lon="9.575269913056644"><ele>7.0</ele><time>2026-04-05T15:26:33Z</time></trkpt><trkpt lat="39.422917574133436" lon="9.57502577189468"><ele>7.0</ele><time>2026-04-05T15:26:34Z</time></trkpt><trkpt lat="39.42296315678705" lon="9.5748030206752"><ele>7.0</ele><time>2026-04-05T15:26:35Z</time></trkpt><trkpt lat="39.42298483935157" lon="9.574581766362702"><ele>7.0</ele><time>2026-04-05T15:26:36Z</time></trkpt><trkpt lat="39.422965915727445" lon="9.574366422660736"><ele>7.0</ele><time>2026-04-05T15:26:37Z</time></trkpt><trkpt lat="39.4229060660056" lon="9.574143126660665"><ele>7.0</ele><time>2026-04-05T15:26:38Z</time></trkpt><trkpt lat="39.422817744115456" lon="9.573919506756882"><ele>7.0</ele><time>2026-04-05T15:26:39Z</time></trkpt><trkpt lat="39.42270222729602" lon="9.57368370052336"><ele>7.0</ele><time>2026-04-05T15:26:40Z</time></trkpt><trkpt lat="39.42258826375595" lon="9.573441611605364"><ele>7.0</ele><time>2026-04-05T15:26:41Z</time></trkpt><trkpt lat="39.422476874668156" lon="9.573189994027556"><ele>7.0</ele><time>2026-04-05T15:26:42Z</time></trkpt><trkpt lat="39.42236925463113" lon="9.57293671655812"><ele>7.0</ele><time>2026-04-05T15:26:43Z</time></trkpt><trkpt lat="39.42226470336729" lon="9.572688071333753"><ele>7.0</ele><time>2026-04-05T15:26:44Z</time></trkpt><trkpt lat="39.422163384555695" lon="9.57245346178183"><ele>7.0</ele><time>2026-04-05T15:26:45Z</time></trkpt><trkpt lat="39.422067628692886" lon="9.572235344084927"><ele>8.0</ele><time>2026-04-05T15:26:46Z</time></trkpt><trkpt lat="39.42198407212381" lon="9.572035141541754"><ele>9.0</ele><time>2026-04-05T15:26:47Z</time></trkpt><trkpt lat="39.42191608416764" lon="9.571848306267963"><ele>10.0</ele><time>2026-04-05T15:26:48Z</time></trkpt><trkpt lat="39.42187193106678" lon="9.571677330640512"><ele>10.0</ele><time>2026-04-05T15:26:49Z</time></trkpt><trkpt lat="39.421857203508964" lon="9.57152277540463"><ele>10.0</ele><time>2026-04-05T15:26:50Z</time></trkpt><trkpt lat="39.42185764536355" lon="9.571388245300941"><ele>10.0</ele><time>2026-04-05T15:26:51Z</time></trkpt><trkpt lat="39.4218689650688" lon="9.571219308575088"><ele>10.0</ele><time>2026-04-05T15:26:52Z</time></trkpt><trkpt lat="39.421880504771885" lon="9.571001821322866"><ele>10.0</ele><time>2026-04-05T15:26:53Z</time></trkpt><trkpt lat="39.421888470813734" lon="9.570740838591563"><ele>10.0</ele><time>2026-04-05T15:26:54Z</time></trkpt><trkpt lat="39.42189567755361" lon="9.570475566163614"><ele>10.0</ele><time>2026-04-05T15:26:55Z</time></trkpt><trkpt lat="39.421910524067535" lon="9.570195381258268"><ele>10.0</ele><time>2026-04-05T15:26:56Z</time></trkpt><trkpt lat="39.42192710398466" lon="9.569901887338698"><ele>10.0</ele><time>2026-04-05T15:26:57Z</time></trkpt><trkpt lat="39.421939401778104" lon="9.569619484236782"><ele>10.0</ele><time>2026-04-05T15:26:58Z</time></trkpt><trkpt lat="39.421949449555804" lon="9.569337728042791"><ele>10.333333333333334</ele><time>2026-04-05T15:26:59Z</time></trkpt><trkpt lat="39.42196245685381" lon="9.569057359068188"><ele>10.666666666666666</ele><time>2026-04-05T15:27:00Z</time></trkpt><trkpt lat="39.42197611802737" lon="9.568777995954076"><ele>11.0</ele><time>2026-04-05T15:27:01Z</time></trkpt><trkpt lat="39.421993796362585" lon="9.568508054920924"><ele>11.0</ele><time>2026-04-05T15:27:02Z</time></trkpt><trkpt lat="39.42201034606947" lon="9.568256786870121"><ele>11.0</ele><time>2026-04-05T15:27:03Z</time></trkpt><trkpt lat="39.42202031892073" lon="9.568025430112218"><ele>11.0</ele><time>2026-04-05T15:27:04Z</time></trkpt><trkpt lat="39.42202343415209" lon="9.567818157607169"><ele>10.666666666666666</ele><time>2026-04-05T15:27:05Z</time></trkpt><trkpt lat="39.42201972729679" lon="9.567616123175664"><ele>10.333333333333334</ele><time>2026-04-05T15:27:06Z</time></trkpt><trkpt lat="39.421997943153706" lon="9.567410814656467"><ele>10.0</ele><time>2026-04-05T15:27:07Z</time></trkpt><trkpt lat="39.42195154889726" lon="9.567191441091706"><ele>9.666666666666668</ele><time>2026-04-05T15:27:08Z</time></trkpt><trkpt lat="39.421920755514236" lon="9.566972941045332"><ele>9.333333333333334</ele><time>2026-04-05T15:27:09Z</time></trkpt><trkpt lat="39.421921796195285" lon="9.566760775937535"><ele>9.0</ele><time>2026-04-05T15:27:10Z</time></trkpt><trkpt lat="39.421951902701046" lon="9.566564688843435"><ele>9.0</ele><time>2026-04-05T15:27:11Z</time></trkpt><trkpt lat="39.422009657458865" lon="9.566394342016165"><ele>9.0</ele><time>2026-04-05T15:27:12Z</time></trkpt><trkpt lat="39.422085735672596" lon="9.566266060953419"><ele>9.0</ele><time>2026-04-05T15:27:13Z</time></trkpt><trkpt lat="39.4221731627843" lon="9.566175888380576"><ele>9.0</ele><time>2026-04-05T15:27:14Z</time></trkpt><trkpt lat="39.422273603976485" lon="9.566146200818567"><ele>9.25</ele><time>2026-04-05T15:27:15Z</time></trkpt><trkpt lat="39.42238580157078" lon="9.566157623724115"><ele>9.5</ele><time>2026-04-05T15:27:16Z</time></trkpt><trkpt lat="39.422505097622015" lon="9.566235544834242"><ele>9.75</ele><time>2026-04-05T15:27:17Z</time></trkpt><trkpt lat="39.42264810078681" lon="9.566274071887163"><ele>10.0</ele><time>2026-04-05T15:27:18Z</time></trkpt><trkpt lat="39.42279894107098" lon="9.566308094412202"><ele>10.0</ele><time>2026-04-05T15:27:19Z</time></trkpt><trkpt lat="39.422952505007466" lon="9.566295104308628"><ele>10.0</ele><time>2026-04-05T15:27:20Z</time></trkpt><trkpt lat="39.4230811657578" lon="9.566262509667204"><ele>10.0</ele><time>2026-04-05T15:27:21Z</time></trkpt><trkpt lat="39.42320212864409" lon="9.566230981468458"><ele>10.0</ele><time>2026-04-05T15:27:22Z</time></trkpt><trkpt lat="39.423330916005064" lon="9.566201367347617"><ele>10.0</ele><time>2026-04-05T15:27:23Z</time></trkpt><trkpt lat="39.42345637715706" lon="9.566187416651811"><ele>10.0</ele><time>2026-04-05T15:27:24Z</time></trkpt><trkpt lat="39.42357549308837" lon="9.566193879098806"><ele>10.0</ele><time>2026-04-05T15:27:25Z</time></trkpt><trkpt lat="39.42369499244088" lon="9.56620890446653"><ele>10.0</ele><time>2026-04-05T15:27:26Z</time></trkpt><trkpt lat="39.423814021273415" lon="9.566222759246894"><ele>10.0</ele><time>2026-04-05T15:27:27Z</time></trkpt><trkpt lat="39.42392337880644" lon="9.566233359123498"><ele>10.0</ele><time>2026-04-05T15:27:28Z</time></trkpt><trkpt lat="39.42402633087134" lon="9.566241792414548"><ele>10.0</ele><time>2026-04-05T15:27:29Z</time></trkpt><trkpt lat="39.424125259534" lon="9.566247929401042"><ele>10.0</ele><time>2026-04-05T15:27:30Z</time></trkpt><trkpt lat="39.42422731426956" lon="9.566246946220142"><ele>10.0</ele><time>2026-04-05T15:27:31Z</time></trkpt><trkpt lat="39.424335070351546" lon="9.566233407115208"><ele>10.0</ele><time>2026-04-05T15:27:32Z</time></trkpt><trkpt lat="39.42444133902441" lon="9.5661930373158"><ele>10.0</ele><time>2026-04-05T15:27:33Z</time></trkpt><trkpt lat="39.424540960657986" lon="9.566132574444913"><ele>10.0</ele><time>2026-04-05T15:27:34Z</time></trkpt><trkpt lat="39.4246359979672" lon="9.566059927166439"><ele>10.0</ele><time>2026-04-05T15:27:35Z</time></trkpt><trkpt lat="39.42472780251038" lon="9.565978010873229"><ele>10.0</ele><time>2026-04-05T15:27:36Z</time></trkpt><trkpt lat="39.42481834180171" lon="9.565900862272539"><ele>10.0</ele><time>2026-04-05T15:27:37Z</time></trkpt><trkpt lat="39.42491317012533" lon="9.565828804587897"><ele>10.0</ele><time>2026-04-05T15:27:38Z</time></trkpt><trkpt lat="39.424999159567044" lon="9.565764741807898"><ele>10.0</ele><time>2026-04-05T15:27:39Z</time></trkpt><trkpt lat="39.42507742534103" lon="9.565705521033319"><ele>10.0</ele><time>2026-04-05T15:27:40Z</time></trkpt><trkpt lat="39.4251527338455" lon="9.565651862843167"><ele>10.0</ele><time>2026-04-05T15:27:41Z</time></trkpt><trkpt lat="39.425223010228876" lon="9.5655978921685"><ele>10.0</ele><time>2026-04-05T15:27:42Z</time></trkpt><trkpt lat="39.42528468715191" lon="9.56554776987551"><ele>10.0</ele><time>2026-04-05T15:27:43Z</time></trkpt><trkpt lat="39.42533898765277" lon="9.565501571317435"><ele>10.0</ele><time>2026-04-05T15:27:44Z</time></trkpt><trkpt lat="39.42539040610807" lon="9.565450067647545"><ele>10.0</ele><time>2026-04-05T15:27:45Z</time></trkpt><trkpt lat="39.425440828025074" lon="9.565399674419897"><ele>10.0</ele><time>2026-04-05T15:27:46Z</time></trkpt><trkpt lat="39.42552295721024" lon="9.565315997473322"><ele>10.0</ele><time>2026-04-05T15:27:48Z</time></trkpt><trkpt lat="39.4255720807002" lon="9.565244520186907"><ele>10.0</ele><time>2026-04-05T15:27:51Z</time></trkpt><trkpt lat="39.42556789094629" lon="9.565124994278435"><ele>10.4</ele><time>2026-04-05T15:27:54Z</time></trkpt><trkpt lat="39.42547101842773" lon="9.565003693322923"><ele>10.8</ele><time>2026-04-05T15:27:56Z</time></trkpt><trkpt lat="39.42541575402218" lon="9.564929066661227"><ele>11.2</ele><time>2026-04-05T15:27:57Z</time></trkpt><trkpt lat="39.42536020925428" lon="9.564857756143574"><ele>11.6</ele><time>2026-04-05T15:27:58Z</time></trkpt><trkpt lat="39.42531400263704" lon="9.564742213672751"><ele>12.0</ele><time>2026-04-05T15:28:00Z</time></trkpt><trkpt lat="39.425429332021906" lon="9.564617089234032"><ele>12.333333333333334</ele><time>2026-04-05T15:28:03Z</time></trkpt><trkpt lat="39.425536903495406" lon="9.564562387677851"><ele>12.666666666666668</ele><time>2026-04-05T15:28:05Z</time></trkpt><trkpt lat="39.42560055649111" lon="9.564516620963795"><ele>13.0</ele><time>2026-04-05T15:28:06Z</time></trkpt><trkpt lat="39.425684695696084" lon="9.564500941013538"><ele>13.333333333333334</ele><time>2026-04-05T15:28:07Z</time></trkpt><trkpt lat="39.42576115732794" lon="9.56446903520158"><ele>13.666666666666668</ele><time>2026-04-05T15:28:08Z</time></trkpt><trkpt lat="39.42582724954157" lon="9.564421398360466"><ele>14.0</ele><time>2026-04-05T15:28:09Z</time></trkpt><trkpt lat="39.4259103156172" lon="9.564390227956974"><ele>14.000000000000002</ele><time>2026-04-05T15:28:10Z</time></trkpt><trkpt lat="39.42599653238162" lon="9.564352962148801"><ele>14.0</ele><time>2026-04-05T15:28:11Z</time></trkpt><trkpt lat="39.42607723997809" lon="9.564315003114213"><ele>14.0</ele><time>2026-04-05T15:28:12Z</time></trkpt><trkpt lat="39.426150111507276" lon="9.56426866866647"><ele>14.0</ele><time>2026-04-05T15:28:13Z</time></trkpt><trkpt lat="39.42621765859042" lon="9.564207686943483"><ele>14.000000000000002</ele><time>2026-04-05T15:28:14Z</time></trkpt><trkpt lat="39.42625882203972" lon="9.564117356008968"><ele>14.0</ele><time>2026-04-05T15:28:15Z</time></trkpt><trkpt lat="39.426274877287184" lon="9.563997008536074"><ele>14.0</ele><time>2026-04-05T15:28:16Z</time></trkpt><trkpt lat="39.42627192350918" lon="9.563857128814242"><ele>14.0</ele><time>2026-04-05T15:28:17Z</time></trkpt><trkpt lat="39.426267908467615" lon="9.563714748164493"><ele>14.0</ele><time>2026-04-05T15:28:18Z</time></trkpt><trkpt lat="39.4262725283328" lon="9.563563556090095"><ele>14.0</ele><time>2026-04-05T15:28:19Z</time></trkpt><trkpt lat="39.426300317734835" lon="9.56341673121366"><ele>12.75</ele><time>2026-04-05T15:28:20Z</time></trkpt><trkpt lat="39.42636643553328" lon="9.56326973469869"><ele>11.5</ele><time>2026-04-05T15:28:21Z</time></trkpt><trkpt lat="39.42645481873361" lon="9.563135818782444"><ele>10.25</ele><time>2026-04-05T15:28:22Z</time></trkpt><trkpt lat="39.42654695739381" lon="9.562996855191042"><ele>9.0</ele><time>2026-04-05T15:28:23Z</time></trkpt><trkpt lat="39.42664126561625" lon="9.562851929688724"><ele>9.0</ele><time>2026-04-05T15:28:24Z</time></trkpt><trkpt lat="39.42674355540795" lon="9.562692696901586"><ele>9.0</ele><time>2026-04-05T15:28:25Z</time></trkpt><trkpt lat="39.426852184902884" lon="9.562527330902114"><ele>9.0</ele><time>2026-04-05T15:28:26Z</time></trkpt><trkpt lat="39.42696457095162" lon="9.562359529233579"><ele>9.0</ele><time>2026-04-05T15:28:27Z</time></trkpt><trkpt lat="39.427084001483635" lon="9.56218011444927"><ele>9.0</ele><time>2026-04-05T15:28:28Z</time></trkpt><trkpt lat="39.42720641273778" lon="9.561996103153584"><ele>9.0</ele><time>2026-04-05T15:28:29Z</time></trkpt><trkpt lat="39.427333126154565" lon="9.561807725568032"><ele>9.0</ele><time>2026-04-05T15:28:30Z</time></trkpt><trkpt lat="39.42746315390392" lon="9.56160867512144"><ele>9.0</ele><time>2026-04-05T15:28:31Z</time></trkpt><trkpt lat="39.42759994588021" lon="9.56138364278613"><ele>9.0</ele><time>2026-04-05T15:28:32Z</time></trkpt><trkpt lat="39.427773284998985" lon="9.561153372203432"><ele>9.0</ele><time>2026-04-05T15:28:33Z</time></trkpt><trkpt lat="39.42794163064856" lon="9.560898082008988"><ele>9.0</ele><time>2026-04-05T15:28:34Z</time></trkpt><trkpt lat="39.42810006617822" lon="9.56063773399779"><ele>9.0</ele><time>2026-04-05T15:28:35Z</time></trkpt><trkpt lat="39.42827099985149" lon="9.560388678195618"><ele>9.0</ele><time>2026-04-05T15:28:36Z</time></trkpt><trkpt lat="39.428442172729" lon="9.560135539433569"><ele>7.5</ele><time>2026-04-05T15:28:37Z</time></trkpt><trkpt lat="39.428613189582634" lon="9.559881903403891"><ele>6.0</ele><time>2026-04-05T15:28:38Z</time></trkpt><trkpt lat="39.42878580652461" lon="9.559624628381432"><ele>6.5</ele><time>2026-04-05T15:28:39Z</time></trkpt><trkpt lat="39.42896034770252" lon="9.559362756760386"><ele>7.0</ele><time>2026-04-05T15:28:40Z</time></trkpt><trkpt lat="39.42913596283931" lon="9.55909591535071"><ele>7.0</ele><time>2026-04-05T15:28:41Z</time></trkpt><trkpt lat="39.42931512990012" lon="9.558829256507618"><ele>7.0</ele><time>2026-04-05T15:28:42Z</time></trkpt><trkpt lat="39.429489016733314" lon="9.558557538888751"><ele>8.0</ele><time>2026-04-05T15:28:43Z</time></trkpt><trkpt lat="39.42966523827393" lon="9.558277419107505"><ele>9.0</ele><time>2026-04-05T15:28:44Z</time></trkpt><trkpt lat="39.42984330895638" lon="9.557998695780098"><ele>9.5</ele><time>2026-04-05T15:28:45Z</time></trkpt><trkpt lat="39.43002338367396" lon="9.557723907307967"><ele>10.0</ele><time>2026-04-05T15:28:46Z</time></trkpt><trkpt lat="39.430204713624896" lon="9.557450133918573"><ele>10.0</ele><time>2026-04-05T15:28:47Z</time></trkpt><trkpt lat="39.43038883206387" lon="9.5571726067316"><ele>10.0</ele><time>2026-04-05T15:28:48Z</time></trkpt><trkpt lat="39.43056490812835" lon="9.556903462691242"><ele>9.5</ele><time>2026-04-05T15:28:49Z</time></trkpt><trkpt lat="39.43074340560336" lon="9.556628179288824"><ele>9.0</ele><time>2026-04-05T15:28:50Z</time></trkpt><trkpt lat="39.43092320347272" lon="9.55635164823402"><ele>11.0</ele><time>2026-04-05T15:28:51Z</time></trkpt><trkpt lat="39.431101907041146" lon="9.556074436808705"><ele>13.0</ele><time>2026-04-05T15:28:52Z</time></trkpt><trkpt lat="39.431279110245676" lon="9.555805383792746"><ele>12.5</ele><time>2026-04-05T15:28:53Z</time></trkpt><trkpt lat="39.4314538451646" lon="9.555542811891463"><ele>12.0</ele><time>2026-04-05T15:28:54Z</time></trkpt><trkpt lat="39.43162515162862" lon="9.555282673055926"><ele>12.0</ele><time>2026-04-05T15:28:55Z</time></trkpt><trkpt lat="39.43179228044786" lon="9.55502968062128"><ele>12.0</ele><time>2026-04-05T15:28:56Z</time></trkpt><trkpt lat="39.43196016804962" lon="9.554782825729127"><ele>12.0</ele><time>2026-04-05T15:28:57Z</time></trkpt><trkpt lat="39.43213856218445" lon="9.554539750881178"><ele>12.0</ele><time>2026-04-05T15:28:58Z</time></trkpt><trkpt lat="39.4323294504149" lon="9.55429896152039"><ele>12.0</ele><time>2026-04-05T15:28:59Z</time></trkpt><trkpt lat="39.432530985640106" lon="9.554055463550561"><ele>12.0</ele><time>2026-04-05T15:29:00Z</time></trkpt><trkpt lat="39.432731878768934" lon="9.553813471036147"><ele>12.0</ele><time>2026-04-05T15:29:01Z</time></trkpt><trkpt lat="39.43292449517048" lon="9.553575007560404"><ele>12.0</ele><time>2026-04-05T15:29:02Z</time></trkpt><trkpt lat="39.43311050127761" lon="9.553345465337683"><ele>12.0</ele><time>2026-04-05T15:29:03Z</time></trkpt><trkpt lat="39.43328492997248" lon="9.553133208994915"><ele>12.0</ele><time>2026-04-05T15:29:04Z</time></trkpt><trkpt lat="39.433448511889466" lon="9.552934023335427"><ele>12.333333333333332</ele><time>2026-04-05T15:29:05Z</time></trkpt><trkpt lat="39.433602361558115" lon="9.552744072520614"><ele>12.666666666666666</ele><time>2026-04-05T15:29:06Z</time></trkpt><trkpt lat="39.43375864414017" lon="9.55254521179647"><ele>13.0</ele><time>2026-04-05T15:29:07Z</time></trkpt><trkpt lat="39.433925656886885" lon="9.552369407748985"><ele>13.0</ele><time>2026-04-05T15:29:08Z</time></trkpt><trkpt lat="39.43406709055246" lon="9.552195100443132"><ele>13.0</ele><time>2026-04-05T15:29:09Z</time></trkpt><trkpt lat="39.43417472399444" lon="9.552034957938064"><ele>13.0</ele><time>2026-04-05T15:29:10Z</time></trkpt><trkpt lat="39.43427905475371" lon="9.551908911166016"><ele>13.0</ele><time>2026-04-05T15:29:11Z</time></trkpt><trkpt lat="39.43436791009158" lon="9.551797330191867"><ele>13.0</ele><time>2026-04-05T15:29:12Z</time></trkpt><trkpt lat="39.434457526301046" lon="9.551697325600001"><ele>13.0</ele><time>2026-04-05T15:29:13Z</time></trkpt><trkpt lat="39.43454210062696" lon="9.551603942032095"><ele>13.0</ele><time>2026-04-05T15:29:14Z</time></trkpt><trkpt lat="39.43462293857941" lon="9.551511028846694"><ele>12.8</ele><time>2026-04-05T15:29:15Z</time></trkpt><trkpt lat="39.43470256728494" lon="9.551415242298049"><ele>12.600000000000001</ele><time>2026-04-05T15:29:16Z</time></trkpt><trkpt lat="39.434769537060205" lon="9.551342546707234"><ele>12.399999999999999</ele><time>2026-04-05T15:29:17Z</time></trkpt><trkpt lat="39.43483169706281" lon="9.551266819705576"><ele>12.2</ele><time>2026-04-05T15:29:18Z</time></trkpt><trkpt lat="39.434898050617605" lon="9.551189191707305"><ele>12.0</ele><time>2026-04-05T15:29:19Z</time></trkpt><trkpt lat="39.43497349717617" lon="9.551107937737982"><ele>12.0</ele><time>2026-04-05T15:29:20Z</time></trkpt><trkpt lat="39.435053972200464" lon="9.551012206067941"><ele>12.0</ele><time>2026-04-05T15:29:21Z</time></trkpt><trkpt lat="39.43513160080628" lon="9.550901212439696"><ele>12.0</ele><time>2026-04-05T15:29:22Z</time></trkpt><trkpt lat="39.43519711321607" lon="9.550788916691433"><ele>12.0</ele><time>2026-04-05T15:29:23Z</time></trkpt><trkpt lat="39.43525298679356" lon="9.550673994770705"><ele>12.0</ele><time>2026-04-05T15:29:24Z</time></trkpt><trkpt lat="39.435291836339886" lon="9.550560994144975"><ele>12.0</ele><time>2026-04-05T15:29:25Z</time></trkpt><trkpt lat="39.435340585632346" lon="9.550432369211212"><ele>12.0</ele><time>2026-04-05T15:29:26Z</time></trkpt><trkpt lat="39.43538274365813" lon="9.550265436071484"><ele>12.0</ele><time>2026-04-05T15:29:27Z</time></trkpt><trkpt lat="39.4354285131627" lon="9.550063103096821"><ele>12.0</ele><time>2026-04-05T15:29:28Z</time></trkpt><trkpt lat="39.43548239759804" lon="9.549824366588563"><ele>11.5</ele><time>2026-04-05T15:29:29Z</time></trkpt><trkpt lat="39.435542565544054" lon="9.54955734321155"><ele>11.0</ele><time>2026-04-05T15:29:30Z</time></trkpt><trkpt lat="39.43560785138814" lon="9.54926409607907"><ele>11.0</ele><time>2026-04-05T15:29:31Z</time></trkpt><trkpt lat="39.435658347849156" lon="9.54896938411126"><ele>11.0</ele><time>2026-04-05T15:29:32Z</time></trkpt><trkpt lat="39.43573276476294" lon="9.548662524815223"><ele>11.5</ele><time>2026-04-05T15:29:33Z</time></trkpt><trkpt lat="39.43580237285291" lon="9.548350297852696"><ele>12.0</ele><time>2026-04-05T15:29:34Z</time></trkpt><trkpt lat="39.43587331862417" lon="9.548027397699528"><ele>12.0</ele><time>2026-04-05T15:29:35Z</time></trkpt><trkpt lat="39.435945887498555" lon="9.547700422136423"><ele>12.0</ele><time>2026-04-05T15:29:36Z</time></trkpt><trkpt lat="39.43601961583688" lon="9.547374245567937"><ele>12.0</ele><time>2026-04-05T15:29:37Z</time></trkpt><trkpt lat="39.43609124116487" lon="9.547056750022534"><ele>12.0</ele><time>2026-04-05T15:29:38Z</time></trkpt><trkpt lat="39.43616084031974" lon="9.546748643264053"><ele>11.5</ele><time>2026-04-05T15:29:39Z</time></trkpt><trkpt lat="39.43622750130183" lon="9.546450423992386"><ele>11.0</ele><time>2026-04-05T15:29:40Z</time></trkpt><trkpt lat="39.436291522368826" lon="9.546160433566643"><ele>11.333333333333332</ele><time>2026-04-05T15:29:41Z</time></trkpt><trkpt lat="39.43635137374951" lon="9.54588089466201"><ele>11.666666666666666</ele><time>2026-04-05T15:29:42Z</time></trkpt><trkpt lat="39.43640904933243" lon="9.545608737687976"><ele>12.0</ele><time>2026-04-05T15:29:43Z</time></trkpt><trkpt lat="39.43646532775061" lon="9.545350745394806"><ele>12.333333333333332</ele><time>2026-04-05T15:29:44Z</time></trkpt><trkpt lat="39.43651738503272" lon="9.54509398692282"><ele>12.666666666666666</ele><time>2026-04-05T15:29:45Z</time></trkpt><trkpt lat="39.436555436972164" lon="9.54484200098434"><ele>13.0</ele><time>2026-04-05T15:29:46Z</time></trkpt><trkpt lat="39.43657898101615" lon="9.544599413002556"><ele>13.0</ele><time>2026-04-05T15:29:47Z</time></trkpt><trkpt lat="39.43660090389716" lon="9.544373330919381"><ele>13.0</ele><time>2026-04-05T15:29:48Z</time></trkpt><trkpt lat="39.43661753049678" lon="9.544178975302238"><ele>13.0</ele><time>2026-04-05T15:29:49Z</time></trkpt><trkpt lat="39.43663388910539" lon="9.544017022690248"><ele>13.0</ele><time>2026-04-05T15:29:50Z</time></trkpt><trkpt lat="39.43664822121355" lon="9.543903765787514"><ele>13.0</ele><time>2026-04-05T15:29:51Z</time></trkpt><trkpt lat="39.436656071832616" lon="9.543785885859169"><ele>13.0</ele><time>2026-04-05T15:29:53Z</time></trkpt><trkpt lat="39.43647273841831" lon="9.543790984703952"><ele>13.0</ele><time>2026-04-05T15:29:56Z</time></trkpt><trkpt lat="39.43635307616418" lon="9.54378802616852"><ele>13.666666666666666</ele><time>2026-04-05T15:29:57Z</time></trkpt><trkpt lat="39.43621721791238" lon="9.543774983746824"><ele>14.333333333333332</ele><time>2026-04-05T15:29:58Z</time></trkpt><trkpt lat="39.43606980723856" lon="9.543739275406734"><ele>15.0</ele><time>2026-04-05T15:29:59Z</time></trkpt><trkpt lat="39.4359081206381" lon="9.543696234199514"><ele>15.0</ele><time>2026-04-05T15:30:00Z</time></trkpt><trkpt lat="39.43575604118417" lon="9.543661869325526"><ele>15.0</ele><time>2026-04-05T15:30:01Z</time></trkpt><trkpt lat="39.43562658766985" lon="9.54363909710664"><ele>15.0</ele><time>2026-04-05T15:30:02Z</time></trkpt><trkpt lat="39.43554752068457" lon="9.543646261457365"><ele>15.0</ele><time>2026-04-05T15:30:03Z</time></trkpt><trkpt lat="39.435508946592776" lon="9.543797919052443"><ele>15.0</ele><time>2026-04-05T15:30:06Z</time></trkpt><trkpt lat="39.43547848393122" lon="9.543967067556604"><ele>15.0</ele><time>2026-04-05T15:30:08Z</time></trkpt><trkpt lat="39.43547238896742" lon="9.544091676613371"><ele>15.0</ele><time>2026-04-05T15:30:09Z</time></trkpt><trkpt lat="39.43544520374457" lon="9.544220201051715"><ele>15.0</ele><time>2026-04-05T15:30:10Z</time></trkpt><trkpt lat="39.43542118120725" lon="9.544347858608083"><ele>15.0</ele><time>2026-04-05T15:30:11Z</time></trkpt><trkpt lat="39.43540681349877" lon="9.544460580221202"><ele>19.0</ele><time>2026-04-05T15:30:12Z</time></trkpt><trkpt lat="39.43539278325109" lon="9.54454028762764"><ele>19.0</ele><time>2026-04-05T15:30:13Z</time></trkpt></trkseg></trk></gpx>